GFSCGP_sfc_thetae_000.txt.gz
Theta_e
302 297 293 296 299 300 298 296 296 301 305 302 302 303 306 308 307 306 305 306 307 308 311 314 317 315 314 317 318 318 319 320 321 318 319 318 319 321 323 325 326 325 322 322
297 293 298 302 302 299 297 297 296 301 304 301 301 301 306 307 306 306 306 306 306 308 312 315 315 314 314 316 318 319 320 319 320 319 322 321 321 322 323 324 325 326 324 325
293 298 302 299 298 297 297 296 298 298 302 303 300 299 301 306 307 308 307 307 308 309 310 313 314 312 313 316 318 320 320 320 319 321 322 321 320 321 322 323 324 323 324 326
295 300 299 297 295 298 294 302 301 301 298 292 300 289 296 301 302 304 305 305 307 309 311 313 314 312 313 314 317 320 320 318 320 321 320 319 318 316 319 320 321 322 323 324
293 296 296 294 295 300 297 302 301 301 298 294 296 290 294 299 299 303 304 305 306 309 311 312 313 314 314 317 317 319 318 319 321 321 320 320 317 319 319 319 319 320 323 325
296 301 298 297 300 301 304 301 299 299 296 289 295 293 295 296 300 302 304 306 307 307 309 312 315 314 314 315 316 317 316 317 321 321 321 319 318 318 317 316 317 318 319 324
295 295 299 300 296 300 300 295 287 283 286 287 295 292 294 300 303 304 302 305 307 309 311 313 314 313 313 314 315 316 317 317 319 319 320 319 320 318 316 316 317 315 316 316
289 287 295 300 297 294 295 293 290 282 283 287 296 290 296 303 305 306 306 308 308 308 312 313 314 313 313 314 315 316 316 314 315 318 319 318 320 318 316 318 318 317 316 317
289 289 299 300 300 298 294 292 298 291 291 288 291 296 302 303 302 306 307 308 307 308 311 313 314 312 310 312 314 314 316 315 314 318 319 320 321 320 319 318 318 318 318 320
293 288 298 299 300 299 296 298 291 289 284 282 288 291 293 297 301 306 306 306 306 309 311 313 313 311 310 312 312 311 316 314 316 318 317 322 325 322 321 319 318 318 318 319
295 291 293 297 294 293 293 292 294 293 290 285 282 288 297 299 300 306 306 308 308 309 312 313 312 311 310 311 309 312 315 314 315 317 318 324 324 323 322 321 318 319 319 320
297 290 289 292 298 300 297 295 295 292 288 289 289 290 301 302 304 308 307 309 309 311 312 312 311 311 310 309 310 314 314 314 313 316 316 321 324 322 322 320 320 320 320 321
297 291 286 290 292 298 294 297 296 293 292 289 288 289 304 305 307 309 308 308 309 310 311 311 311 311 311 310 311 313 315 314 313 316 314 322 321 321 322 320 321 321 321 321
297 291 291 287 292 295 293 296 299 294 288 289 292 294 299 304 307 308 309 309 309 311 312 312 311 310 312 312 312 312 315 313 315 314 314 319 320 320 321 321 321 321 322 321
291 291 293 295 297 298 297 297 299 297 296 293 294 295 299 303 308 310 310 309 309 310 311 312 311 310 309 310 312 314 314 311 314 313 316 319 319 320 322 322 320 321 321 322
291 288 294 293 296 297 295 299 300 300 297 297 298 297 303 308 310 309 310 309 309 310 312 313 313 311 310 311 313 315 314 310 314 313 313 319 319 324 322 322 319 322 321 321
287 289 289 290 296 295 291 297 300 300 301 299 295 298 302 303 309 310 309 310 310 310 312 313 314 313 311 311 314 314 313 311 314 313 314 315 315 322 319 320 318 319 316 315
288 287 288 288 292 285 296 302 304 301 301 301 299 301 303 306 307 313 313 311 311 311 313 314 315 314 312 312 313 314 312 312 315 313 315 313 315 322 317 316 317 317 314 314
292 288 286 285 288 293 299 301 300 298 297 301 302 302 304 305 308 308 314 314 313 313 314 315 316 315 312 312 313 314 311 310 314 314 314 313 314 320 318 315 316 315 314 312
294 292 291 289 284 285 296 304 307 304 296 303 303 302 302 309 302 306 313 314 313 314 315 315 316 314 313 313 313 314 310 308 312 314 315 314 313 318 319 315 316 316 314 313
291 294 288 288 284 294 301 305 308 294 294 304 305 305 303 304 307 311 316 315 315 315 314 316 316 313 314 314 314 313 310 308 310 314 316 314 313 316 320 318 318 318 317 315
287 287 287 288 286 288 302 304 297 299 306 307 305 304 305 306 306 307 314 316 316 315 314 317 316 314 314 315 315 314 310 311 311 312 313 314 313 318 322 320 318 319 317 315
286 291 288 290 293 296 302 300 301 299 301 308 307 308 308 307 307 311 311 315 317 316 316 318 317 314 314 315 316 314 314 312 312 311 310 310 314 317 323 321 319 317 318 316
291 295 291 290 298 295 298 300 301 301 300 305 309 308 308 308 308 310 313 315 317 317 317 319 317 314 314 315 316 315 316 315 313 310 309 308 314 320 323 323 322 320 317 316
292 294 290 291 296 295 300 299 300 301 301 301 308 310 309 308 307 311 313 315 318 318 319 319 317 316 316 316 316 316 318 317 314 311 310 310 315 321 321 322 321 320 319 318
295 292 289 288 295 294 295 299 302 300 299 301 302 308 309 312 308 312 314 317 318 319 319 319 319 318 318 317 316 317 319 318 315 313 312 311 316 320 321 318 308 295 301 302

GFSCGP_sfc_thetae_003.txt.gz
Theta_e
299 295 292 296 296 296 295 293 293 297 301 300 299 300 304 307 305 305 306 306 306 307 307 310 311 311 313 314 316 317 317 318 318 317 316 317 317 319 320 322 324 324 325 322
295 292 299 300 299 296 295 293 293 298 301 299 299 299 303 305 305 306 307 305 305 305 308 310 310 311 314 315 316 317 317 318 318 316 319 318 318 319 320 321 326 327 324 322
291 295 302 301 297 295 294 293 294 295 299 300 298 297 300 304 305 306 306 305 305 307 308 310 310 311 313 315 316 317 317 317 318 318 319 318 318 318 319 319 320 321 322 323
293 298 297 297 295 296 292 299 298 297 294 291 298 287 295 299 301 302 304 304 305 306 309 311 311 309 313 314 316 318 318 317 317 321 318 316 315 314 316 317 318 319 322 323
291 294 294 294 295 298 295 301 299 298 294 292 295 289 293 297 298 300 302 302 303 305 309 310 310 311 313 314 315 317 318 316 319 319 318 318 315 316 317 317 316 317 320 324
293 300 297 296 300 300 300 297 296 295 292 286 293 290 292 295 298 300 302 304 305 305 308 310 311 311 311 313 315 316 315 317 318 319 319 318 316 316 314 315 315 315 316 322
292 294 297 299 295 298 296 291 284 280 284 285 294 290 294 299 302 303 303 302 304 306 309 310 310 310 311 312 314 314 313 316 318 319 319 317 317 317 315 314 314 313 314 317
287 285 294 298 296 293 294 294 286 280 281 285 294 289 295 302 304 304 304 303 305 306 309 310 311 311 311 312 314 315 313 315 315 318 318 316 318 315 314 315 315 314 314 314
287 288 297 298 298 297 293 290 296 288 289 286 289 294 299 301 301 303 303 305 304 306 309 310 311 310 311 312 313 314 313 312 313 317 317 317 318 315 316 315 315 314 315 317
291 285 295 297 299 298 293 296 287 286 280 280 287 289 292 296 299 303 303 303 304 307 309 311 311 309 310 312 313 313 314 313 313 317 317 319 321 318 316 316 316 315 315 316
290 289 290 295 293 291 289 291 289 291 289 283 281 288 296 298 299 303 303 304 305 308 310 311 310 310 309 310 310 311 314 312 314 316 316 322 320 320 318 317 316 316 315 317
293 288 287 290 295 298 296 292 292 287 286 287 288 291 299 298 299 304 304 306 306 308 310 310 310 308 307 308 307 310 313 312 314 315 316 320 321 320 318 317 316 316 316 317
293 287 283 285 290 293 291 293 293 291 290 288 286 291 302 300 299 305 304 305 307 308 309 308 309 309 308 308 308 312 312 312 312 314 315 319 319 319 317 316 317 317 317 318
293 288 288 285 288 292 290 293 293 293 289 289 290 291 297 300 302 303 304 306 307 309 311 310 309 309 308 309 310 313 313 312 312 312 317 318 317 318 318 318 318 318 319 319
288 282 291 292 293 295 294 294 294 292 294 291 294 293 297 302 303 306 306 306 307 309 309 310 309 309 308 308 310 311 314 312 313 311 317 318 316 318 319 319 319 319 319 320
288 282 289 291 293 293 292 295 295 296 295 295 295 294 299 304 307 307 307 307 308 309 311 311 311 310 310 310 310 311 313 311 312 311 317 317 316 318 319 316 317 318 318 319
285 285 284 285 293 291 288 293 294 296 297 297 292 296 300 302 307 308 307 308 309 310 312 311 311 310 310 312 313 311 312 310 311 310 315 317 316 318 318 317 317 317 315 314
286 284 284 281 288 281 292 298 298 298 298 298 296 299 302 304 310 311 311 309 309 311 312 313 313 312 310 311 312 312 311 311 311 310 313 313 314 317 316 315 316 313 311 312
295 286 282 281 282 290 295 299 297 295 295 300 299 300 302 304 307 306 311 313 312 312 314 314 315 314 311 310 312 312 309 311 312 311 312 311 314 315 314 313 314 311 310 309
292 289 285 285 280 282 292 298 302 302 291 300 304 303 300 304 301 303 310 312 311 312 314 314 315 314 311 310 311 312 309 311 311 312 312 311 313 316 314 314 313 311 310 309
286 286 282 282 282 292 296 299 301 291 290 297 303 304 301 303 306 310 312 312 313 312 313 314 314 313 311 311 312 311 308 310 313 314 312 310 311 317 315 314 314 311 310 309
285 285 288 288 283 285 297 297 290 294 297 298 298 304 303 305 306 308 312 313 311 310 311 313 313 313 312 312 312 311 308 310 313 313 313 310 308 317 317 315 314 313 311 308
285 288 288 289 290 298 298 296 298 298 297 298 298 300 306 305 303 308 311 313 313 312 312 314 314 312 312 312 313 311 311 308 310 312 312 310 308 312 318 315 314 314 312 310
290 293 290 290 296 296 297 299 299 301 299 300 301 301 306 305 305 306 312 313 313 312 312 314 314 311 310 312 313 314 312 310 309 310 309 310 309 310 317 318 317 316 314 312
291 293 289 290 295 296 298 297 298 300 301 301 302 302 304 304 309 305 309 313 315 314 313 315 314 312 312 313 313 314 313 311 309 309 308 307 311 313 316 317 316 318 318 316
294 291 288 287 294 294 295 297 299 300 299 301 301 302 304 304 307 311 308 313 316 315 315 315 315 314 313 313 313 313 315 313 310 308 307 307 310 314 317 316 308 296 298 302

GFSCGP_sfc_thetae_006.txt.gz
Theta_e
294 292 290 293 296 295 293 291 290 293 299 297 296 297 300 304 302 302 304 305 306 306 307 308 309 310 313 315 316 316 317 317 317 317 316 317 318 320 321 324 326 326 326 325
293 289 295 298 297 295 293 290 290 295 300 298 296 296 300 302 303 303 304 305 306 304 306 308 307 310 313 315 316 316 317 316 318 317 318 319 319 320 321 323 325 327 326 325
289 292 298 297 296 293 292 291 292 291 298 298 296 294 297 302 303 303 304 305 304 304 306 307 307 309 313 314 316 317 317 318 318 318 319 319 318 319 319 320 322 323 324 325
291 295 295 295 295 296 291 297 296 295 294 287 295 285 294 297 300 301 302 302 303 304 307 307 307 309 312 314 316 317 317 317 318 319 317 317 317 316 317 319 320 321 323 324
288 292 292 292 295 299 294 300 296 297 293 288 291 287 292 295 296 300 301 303 302 302 307 306 307 311 314 315 316 317 317 317 318 319 318 318 317 317 318 319 319 321 321 325
291 295 295 294 298 299 299 295 294 292 289 284 290 289 288 293 297 299 301 302 304 304 307 307 309 312 311 314 315 316 316 316 318 318 319 319 317 317 316 317 317 317 319 322
289 289 294 296 292 296 294 288 281 279 279 282 292 288 292 297 299 301 302 302 303 305 306 307 309 309 310 312 314 315 315 316 317 319 320 318 318 318 317 317 317 316 317 320
284 283 290 296 293 291 293 291 282 278 280 285 291 287 293 300 303 303 303 302 304 305 307 308 309 310 311 312 314 314 314 315 317 319 319 318 319 317 316 317 317 316 316 318
285 286 294 296 297 296 292 287 293 287 289 284 287 293 298 300 301 301 301 303 303 305 306 307 309 310 311 312 314 314 313 315 316 318 318 318 319 317 317 318 317 316 317 319
289 284 292 294 296 297 292 295 286 287 279 279 286 288 290 295 297 301 301 301 302 305 307 308 308 309 310 312 313 314 314 313 314 317 318 319 319 318 318 318 317 317 318 320
289 287 288 292 290 289 288 288 287 289 285 282 280 286 295 298 299 300 301 301 303 306 308 309 308 310 310 312 312 313 314 313 314 317 317 321 320 319 318 319 318 318 318 319
291 285 284 288 292 296 294 291 289 286 283 287 286 287 298 299 298 299 301 303 304 307 308 309 309 308 309 310 311 311 313 314 314 317 318 321 321 320 318 318 318 318 318 320
290 284 281 284 288 291 290 292 293 288 287 286 285 287 300 301 300 301 301 303 305 307 307 307 307 308 309 309 309 310 312 314 314 316 316 320 320 318 318 317 318 318 319 320
291 284 284 283 285 289 287 291 292 289 284 286 290 290 295 300 299 301 303 304 305 307 308 309 308 307 307 308 309 311 313 313 313 314 318 319 319 319 318 319 319 319 320 321
287 281 286 287 291 291 291 291 291 289 291 287 289 291 294 298 301 302 303 305 306 307 308 309 309 307 306 307 309 313 313 313 313 313 318 318 318 319 319 319 320 320 321 322
287 281 285 285 291 293 290 291 292 292 292 292 292 292 297 300 304 304 305 306 307 308 309 310 310 309 308 308 309 312 314 312 313 312 318 318 319 320 319 319 319 320 321 321
285 284 282 279 286 289 285 291 291 292 293 293 290 296 298 302 304 304 304 307 308 309 310 310 311 311 310 310 311 310 312 312 312 312 318 318 319 319 318 319 319 319 319 320
287 286 285 279 285 279 290 297 295 294 296 296 295 297 299 302 307 307 308 308 309 310 311 312 312 311 310 311 310 312 312 312 312 312 316 317 319 319 318 318 318 316 316 317
293 290 283 279 280 287 293 294 292 292 293 295 297 301 303 304 306 306 310 310 311 312 313 313 313 312 309 311 312 312 311 311 311 311 314 315 317 318 317 317 316 314 314 314
292 290 285 282 279 280 289 294 299 300 289 295 296 296 298 302 298 303 309 311 310 312 314 313 313 312 310 311 312 312 310 311 311 312 313 313 317 318 316 316 315 314 314 314
285 286 280 281 278 289 294 296 299 288 287 296 296 296 297 299 302 305 307 311 313 313 314 314 313 312 312 311 313 312 310 311 313 314 313 312 316 317 317 315 315 314 313 313
285 283 286 286 285 285 297 295 289 293 296 297 297 297 297 298 304 306 307 311 310 311 312 313 313 313 312 311 313 312 310 313 313 313 313 311 313 318 316 316 315 313 312 311
285 288 286 289 288 296 298 297 300 300 296 297 297 299 300 299 302 305 306 310 311 311 313 314 314 313 311 312 314 312 312 311 312 313 312 311 311 318 317 316 314 312 312 311
290 293 289 289 292 293 296 300 300 299 297 299 300 300 301 300 302 305 305 309 310 311 312 313 313 311 310 312 314 315 312 312 312 312 312 310 309 314 317 318 317 314 312 311
288 291 289 289 293 294 297 298 299 300 299 300 301 302 302 302 302 303 308 310 311 311 312 314 313 311 311 312 313 314 312 311 311 312 312 310 310 312 317 317 316 317 317 313
291 289 288 287 294 293 294 298 300 299 299 299 300 301 304 304 305 310 311 308 312 311 312 313 313 312 312 313 313 313 313 311 311 310 309 310 311 310 316 316 311 295 300 303

GFSCGP_sfc_thetae_009.txt.gz
Theta_e
297 294 293 296 298 299 299 298 298 301 303 300 300 300 304 308 309 309 310 312 314 317 320 317 318 320 322 325 327 330 330 332 330 328 328 329 329 332 333 334 336 336 336 335
294 291 297 300 298 297 297 296 296 299 300 300 300 300 305 307 307 309 311 312 314 317 318 316 317 319 322 324 326 329 330 330 331 330 331 333 333 334 334 336 336 336 335 335
293 295 297 297 296 295 295 294 295 296 299 301 300 298 301 306 309 310 311 313 315 316 317 317 315 318 322 323 325 328 329 331 332 333 332 332 334 333 332 333 334 335 333 332
294 298 296 295 294 297 292 298 297 296 295 291 300 290 299 302 304 307 309 313 314 316 316 317 316 317 321 323 326 329 330 331 332 333 332 333 330 329 332 333 333 334 331 332
291 293 294 293 295 298 295 300 298 298 296 296 296 293 297 302 301 304 308 311 315 314 314 316 316 318 321 324 327 329 331 331 332 333 333 332 332 332 333 332 331 332 333 332
295 299 297 296 298 300 301 299 299 299 296 289 294 293 294 298 301 304 309 312 312 313 315 316 317 320 321 325 327 328 329 330 331 332 333 335 332 330 329 329 330 330 331 331
292 293 297 298 296 300 300 296 288 287 287 286 296 293 295 302 304 306 309 313 313 315 315 315 316 318 321 323 326 327 329 328 330 331 332 332 331 330 328 329 329 329 328 327
287 285 293 298 296 295 297 296 290 284 286 289 296 290 294 306 308 308 311 313 313 315 315 316 317 319 321 324 326 327 328 328 330 331 332 332 332 330 329 329 330 329 328 328
290 289 296 298 299 299 296 293 299 291 294 291 294 298 303 307 308 310 310 310 313 315 316 316 318 320 322 324 326 327 328 328 330 331 332 331 331 328 329 329 330 328 329 329
292 289 296 296 299 299 297 300 291 292 284 283 290 293 297 303 306 309 309 310 312 315 315 316 318 320 322 325 327 328 328 328 330 330 331 330 330 329 330 329 328 329 329 330
294 292 293 295 294 293 294 294 295 296 293 287 285 291 306 307 310 310 311 312 313 315 315 316 318 320 322 325 326 326 326 326 326 328 330 331 330 329 329 329 328 328 329 329
294 292 289 292 298 300 298 296 296 290 288 292 292 292 307 309 310 310 310 311 314 316 316 317 318 320 321 322 325 324 326 325 326 329 329 331 331 330 329 328 328 328 328 329
293 290 287 290 294 297 295 297 298 298 297 291 287 293 306 310 309 310 310 311 313 315 316 317 318 319 320 321 323 323 325 326 325 328 329 331 331 330 330 328 328 328 328 329
294 289 289 287 291 295 292 294 297 297 292 292 292 295 301 305 308 310 311 313 314 315 316 317 317 319 320 321 322 322 323 326 325 326 328 330 330 330 329 328 329 328 329 329
292 286 288 290 292 293 294 294 294 293 295 291 295 296 300 306 307 310 313 313 314 315 315 316 317 319 319 320 321 321 322 324 325 325 328 329 330 330 329 329 329 329 330 330
293 286 289 289 292 293 292 295 295 295 295 295 296 297 305 307 309 310 312 313 313 315 316 317 318 319 319 319 319 321 323 323 325 325 328 328 329 328 329 329 329 329 329 331
289 289 287 286 291 292 289 294 296 296 297 297 293 299 304 304 308 312 313 314 315 316 317 317 318 320 320 320 321 320 324 324 324 324 327 327 328 327 327 328 328 328 329 331
289 288 288 287 290 284 295 300 301 298 298 299 300 303 305 308 310 312 315 316 316 318 318 319 320 321 321 321 321 322 324 323 322 323 326 326 327 326 327 328 328 329 329 330
293 290 286 286 289 294 295 296 295 297 295 299 299 301 303 305 310 312 316 318 319 321 321 322 322 323 323 321 322 322 323 323 322 321 326 326 327 326 327 327 328 327 328 328
292 292 287 288 287 286 292 297 300 303 294 300 300 301 301 304 302 309 310 314 318 322 323 322 323 323 323 323 323 321 321 322 322 321 324 326 328 327 328 329 328 327 328 327
288 288 284 287 287 290 296 299 301 294 293 300 301 302 302 301 306 307 311 314 319 322 323 323 323 323 323 324 323 321 322 321 324 323 323 325 327 329 330 331 328 326 326 325
287 287 286 288 287 285 299 297 293 296 301 301 302 303 303 305 306 308 311 313 317 320 321 322 321 322 324 323 323 322 321 324 325 324 322 324 327 328 327 330 328 326 327 324
285 288 287 288 289 297 300 298 301 301 300 301 302 304 305 306 307 309 310 313 317 320 321 322 322 322 322 322 323 322 323 324 324 323 323 323 325 326 328 328 327 323 325 323
291 294 290 290 293 295 298 300 301 301 301 303 303 304 307 306 308 310 313 315 316 319 321 322 322 321 320 322 323 325 324 323 323 323 324 323 322 325 327 327 327 325 322 322
293 294 291 290 294 296 298 299 299 300 302 302 303 304 306 308 308 310 311 318 317 319 321 322 322 321 321 321 322 325 324 322 322 324 323 322 322 323 326 327 326 325 327 321
294 292 290 289 294 294 295 299 301 299 300 302 302 303 306 309 309 312 314 319 320 319 320 321 322 322 322 321 322 323 323 323 324 323 322 321 320 320 324 325 322 296 302 302

GFSCGP_sfc_thetae_012.txt.gz
Theta_e
301 297 297 301 303 304 303 303 303 306 310 307 306 307 310 313 313 312 314 315 316 318 323 327 328 329 330 332 334 336 338 343 340 335 331 331 330 334 336 337 341 340 340 339
299 295 302 304 304 302 302 301 302 306 309 308 306 304 309 311 312 313 314 314 316 319 320 325 326 327 330 331 334 336 338 340 338 333 333 332 333 333 336 338 340 340 339 338
296 298 303 302 301 300 300 300 301 300 304 307 304 301 304 309 311 312 314 316 318 318 319 325 325 327 330 331 333 335 338 338 337 337 336 337 338 338 334 335 336 337 338 337
297 302 301 300 299 301 297 303 301 300 299 295 304 294 303 307 308 310 312 315 317 318 323 324 326 327 329 331 333 336 337 337 337 339 336 336 329 328 333 336 338 337 336 334
295 297 298 298 300 302 300 302 301 301 299 299 299 296 300 306 305 308 312 315 318 319 322 324 325 327 329 331 333 335 336 337 337 337 337 334 333 333 335 334 334 336 336 334
298 303 301 301 302 303 304 301 301 301 299 292 298 297 298 302 306 309 313 314 316 320 322 324 326 327 328 331 332 334 336 335 337 337 337 337 336 334 332 332 331 333 336 336
296 296 301 302 300 302 301 299 293 291 291 291 300 297 300 307 310 311 311 315 319 322 323 323 324 325 327 329 331 332 333 333 335 335 336 338 337 336 334 333 332 331 329 335
289 289 297 301 300 298 299 299 293 287 289 293 300 295 300 308 311 314 313 315 318 322 324 324 325 326 327 328 330 330 332 332 333 333 336 338 338 333 333 333 333 333 333 332
290 292 300 300 302 302 299 296 303 296 298 295 298 302 307 310 310 312 314 315 318 322 323 324 325 326 327 329 330 331 331 331 332 333 337 337 337 335 333 333 336 332 335 331
295 291 299 299 302 303 302 304 295 297 290 288 294 297 301 306 308 311 312 316 319 322 323 324 325 326 328 330 331 333 332 330 332 335 336 335 336 336 335 334 332 332 333 332
296 296 296 299 296 297 299 299 300 300 297 291 291 295 305 308 311 312 315 319 320 321 322 323 324 326 328 330 331 332 330 330 331 334 335 335 335 335 334 333 332 333 333 333
296 296 291 295 300 303 302 300 301 294 293 296 295 294 310 312 313 314 315 319 321 322 322 323 324 326 327 328 329 329 328 329 331 332 333 334 335 335 334 332 332 332 332 332
293 294 291 293 297 301 299 299 301 302 302 296 291 295 309 312 314 315 316 318 320 322 322 323 324 324 326 327 327 326 327 327 330 332 332 334 334 334 334 332 333 332 331 330
296 295 293 291 294 298 296 298 300 301 296 296 296 297 304 310 311 314 317 319 320 321 322 323 323 324 326 326 325 324 326 327 329 330 331 332 332 334 333 333 332 331 331 330
295 291 295 296 296 297 298 298 299 298 300 296 298 299 303 309 310 314 316 318 319 320 321 322 323 324 325 325 324 323 326 327 328 328 330 332 335 334 333 332 332 332 332 332
296 291 295 293 296 296 295 298 299 299 300 300 300 300 308 310 311 311 314 317 319 320 321 322 323 325 325 324 323 323 324 326 328 328 329 331 332 331 332 332 332 333 332 333
292 291 292 289 295 294 292 297 299 299 301 301 298 303 308 307 308 311 315 317 319 321 322 322 324 325 326 324 323 323 325 326 326 327 329 330 330 329 330 331 331 332 333 334
290 290 294 291 294 285 299 304 303 301 301 303 303 305 307 309 311 313 316 315 318 322 323 324 325 327 327 325 324 324 326 324 325 326 328 329 329 329 330 330 331 333 334 334
295 291 288 290 291 295 299 300 301 301 299 304 304 306 308 310 311 312 317 320 320 324 326 327 328 329 328 325 324 324 325 323 323 324 328 329 329 330 331 331 333 334 334 334
294 294 289 293 289 287 298 301 304 306 298 304 305 306 307 309 304 311 316 318 322 326 328 328 328 329 327 326 325 324 323 322 322 324 328 330 330 330 330 332 332 335 334 332
290 289 286 290 293 295 300 304 306 296 297 305 306 308 308 307 311 314 317 318 321 325 328 330 329 329 328 327 326 323 323 322 324 324 328 330 331 332 333 334 333 333 332 332
288 288 287 289 290 288 303 302 299 301 306 306 307 309 309 311 313 315 317 318 320 323 327 329 328 329 328 327 325 323 323 324 324 324 326 328 332 331 332 335 333 332 331 332
288 289 289 289 289 300 302 302 305 306 305 306 307 309 310 312 313 315 317 319 320 323 326 328 328 328 327 327 325 323 325 324 324 324 324 327 329 331 333 333 332 329 330 326
292 295 290 290 294 298 300 304 304 305 305 307 308 309 311 312 315 316 318 319 322 323 325 328 328 327 325 326 325 325 326 325 324 325 325 326 326 330 332 331 331 328 326 324
294 295 292 291 297 299 301 303 303 303 305 306 308 309 310 313 315 316 319 321 323 324 325 328 328 328 326 326 325 326 326 325 324 325 325 325 325 327 331 330 330 328 330 323
294 292 290 290 297 297 300 302 303 302 303 306 306 308 311 313 314 316 318 324 326 325 325 327 328 329 327 325 325 326 325 325 325 325 325 324 322 324 326 329 329 297 304 303

GFSCGP_sfc_thetae_015.txt.gz
Theta_e
305 299 297 300 304 306 305 304 304 307 312 309 308 309 312 315 315 315 316 318 319 319 323 326 328 331 334 337 341 344 346 354 351 345 341 337 333 336 335 337 340 341 341 342
301 297 302 304 305 304 303 302 303 307 311 309 309 308 312 314 315 315 315 316 318 319 321 323 327 334 334 336 339 340 343 350 350 345 343 338 338 334 336 337 340 341 339 340
297 300 304 302 302 301 303 301 302 303 308 309 308 306 308 312 314 315 315 317 318 319 320 323 324 333 334 335 338 339 342 347 348 347 342 340 338 338 335 333 335 339 338 340
298 303 302 301 300 302 298 306 305 304 303 298 307 297 305 309 310 312 314 316 317 319 321 323 325 332 334 335 338 340 343 343 341 346 343 346 334 330 331 336 336 337 336 336
296 298 299 299 300 304 301 306 305 305 302 301 301 298 302 308 306 310 313 315 317 319 320 322 327 331 333 336 337 340 341 340 341 342 345 335 336 331 334 333 336 338 338 335
297 304 302 301 304 305 306 304 305 305 302 295 300 299 300 304 307 310 314 316 318 319 321 325 331 332 333 335 337 338 338 338 339 338 339 340 337 334 332 333 335 338 338 337
294 297 302 304 300 304 304 301 294 292 293 293 302 299 301 308 310 312 313 315 317 322 325 327 328 329 331 333 335 336 336 336 337 337 337 337 337 337 336 333 335 334 332 336
288 287 297 303 301 299 301 301 295 289 292 294 302 296 302 311 313 314 315 316 322 325 326 327 328 329 330 332 333 334 334 334 335 335 336 337 338 334 333 335 333 335 334 335
290 289 299 301 303 302 300 298 304 299 301 297 300 304 308 312 312 313 315 316 321 324 326 327 329 330 330 332 332 333 334 334 334 334 336 336 337 335 336 336 336 333 335 333
296 289 297 301 303 303 302 305 297 300 292 291 297 300 300 307 309 312 314 315 319 324 326 327 328 329 331 332 332 335 334 333 333 334 335 335 335 336 336 335 334 335 335 333
296 293 295 299 298 297 299 299 301 302 300 294 293 296 308 309 312 312 314 317 322 324 325 326 328 329 331 332 333 334 333 331 331 334 334 336 335 335 335 334 333 335 334 335
298 294 291 295 302 303 302 301 302 297 297 299 299 299 312 312 313 316 317 321 324 325 325 326 327 329 329 330 332 332 331 330 331 332 333 334 334 335 335 334 332 334 333 333
296 293 287 293 298 301 300 302 304 304 305 298 296 299 312 314 315 316 317 321 323 324 324 326 327 327 328 330 331 329 329 328 331 332 332 334 333 335 335 333 334 332 331 330
296 294 292 289 294 299 297 300 303 303 299 299 299 302 308 311 313 316 319 322 322 323 324 325 326 327 328 329 328 326 327 328 330 330 331 333 334 335 335 335 333 331 330 329
294 290 293 293 297 299 299 299 301 301 302 299 302 302 306 311 313 315 319 321 321 322 323 324 325 326 328 328 326 325 326 327 330 329 330 333 334 334 332 332 331 331 330 330
296 290 292 289 295 298 298 300 301 302 303 303 303 303 308 311 314 314 317 319 320 321 323 324 325 327 327 326 324 325 326 327 329 328 330 332 332 331 332 332 331 331 331 332
292 291 291 285 294 296 294 299 300 302 304 304 300 304 310 310 311 315 316 318 320 322 323 325 326 327 327 326 325 325 326 327 328 328 330 330 330 330 330 331 331 331 335 337
291 290 291 288 292 286 298 305 305 303 305 307 307 307 310 311 312 314 318 319 318 323 324 326 327 329 329 327 325 326 326 326 326 328 329 330 329 329 330 331 331 333 338 335
296 292 289 287 289 296 298 303 303 302 302 308 306 308 311 312 313 313 319 321 323 325 327 328 329 331 329 326 325 325 325 324 326 328 329 329 330 330 331 331 332 334 337 337
297 297 289 291 287 285 297 304 308 309 299 308 309 309 310 312 306 313 319 320 323 328 329 329 330 331 329 326 326 325 324 323 324 328 329 330 331 331 331 333 334 335 335 333
288 290 287 291 292 296 302 307 308 297 299 309 310 311 311 310 314 316 320 321 323 326 330 331 331 331 329 327 326 324 324 323 325 329 330 331 332 332 334 334 335 335 334 333
288 290 291 293 289 288 304 305 301 305 310 310 311 311 312 314 316 318 320 321 322 324 328 331 330 331 330 327 325 324 324 325 326 327 330 332 333 332 333 334 332 332 333 334
288 290 289 289 288 298 303 302 306 309 308 309 310 312 313 314 316 319 320 321 323 324 328 331 331 331 329 327 326 324 326 325 326 326 330 332 333 333 334 334 331 328 331 330
292 296 292 292 295 298 302 303 305 307 308 310 311 312 313 314 317 319 321 323 323 326 327 330 331 330 328 327 326 326 326 325 325 325 328 330 331 331 333 331 330 326 326 327
292 294 292 292 295 299 302 303 304 307 309 309 311 312 312 314 316 318 320 325 326 327 327 330 330 331 329 327 326 326 327 325 325 326 326 328 329 331 331 331 328 328 330 322
296 292 291 290 296 296 299 304 306 306 307 308 308 310 313 315 315 318 319 323 326 328 327 329 331 331 330 327 325 326 326 325 326 327 325 325 326 328 330 328 329 298 304 303

GFSCGP_sfc_thetae_018.txt.gz
Theta_e
302 297 295 298 301 303 302 302 301 306 310 308 308 308 311 315 314 315 316 317 318 320 325 326 332 335 334 343 348 353 354 357 351 349 346 344 340 341 342 343 345 343 343 343
297 295 301 302 302 301 301 300 300 305 308 308 307 307 312 314 315 316 318 319 319 320 321 323 328 331 341 343 345 351 351 354 351 350 347 345 341 338 339 341 344 343 342 342
294 298 302 301 299 299 300 299 300 300 305 307 306 304 308 312 315 316 317 318 319 318 319 321 324 332 338 340 343 344 347 353 350 350 347 349 344 343 340 342 341 342 341 340
295 300 298 299 298 300 296 302 302 301 300 297 306 296 306 311 311 314 315 317 318 320 322 323 325 335 337 338 341 344 348 349 349 348 344 341 335 336 337 338 339 340 341 338
291 295 296 295 299 302 299 303 302 302 300 301 300 298 302 308 307 310 313 315 317 319 321 320 323 335 336 338 340 343 346 346 346 345 342 341 340 340 342 339 339 339 340 338
294 298 297 299 301 302 304 301 301 302 301 294 300 299 299 303 306 310 314 315 318 319 321 323 332 334 335 337 340 342 342 342 341 345 344 341 340 341 338 337 336 337 338 338
293 293 297 299 297 301 301 299 292 290 292 291 301 299 302 308 310 311 313 314 318 324 324 329 330 331 333 335 337 339 338 337 339 341 340 343 342 341 339 339 336 336 335 334
287 287 293 298 297 297 298 299 293 286 288 292 300 296 300 311 313 315 314 316 321 325 328 329 330 330 331 334 336 336 337 336 337 338 339 342 343 337 339 340 337 336 335 335
288 289 299 297 300 300 298 294 301 297 298 294 298 303 308 311 311 313 313 316 323 325 327 328 329 330 331 334 335 335 335 335 336 337 340 340 341 337 337 339 338 336 337 334
292 285 295 299 299 300 299 302 294 297 289 290 296 298 300 307 309 312 312 316 323 326 326 327 329 331 333 333 335 336 336 335 336 336 338 337 335 338 338 339 336 335 335 335
294 289 288 295 295 294 297 296 298 300 298 292 292 297 312 310 311 312 313 316 323 324 325 327 329 332 332 333 334 336 335 334 334 336 337 335 335 333 332 335 332 335 336 331
295 291 287 292 300 300 300 298 299 294 294 298 298 298 312 313 314 316 315 320 323 325 325 326 328 329 330 331 332 333 333 331 333 334 335 333 334 334 335 334 331 335 331 335
293 290 285 289 295 300 297 299 301 302 304 298 294 298 312 312 314 316 318 322 323 324 325 326 327 328 328 330 331 331 330 330 331 332 332 333 333 336 336 334 332 332 332 333
295 290 288 285 290 294 294 297 300 302 296 298 299 301 307 310 313 315 321 322 323 323 325 325 326 327 329 330 330 328 328 329 330 331 330 332 334 335 335 332 333 334 333 332
292 287 291 291 291 292 294 297 298 300 301 298 301 301 308 313 313 317 322 322 321 322 323 325 325 327 329 330 328 327 327 329 331 330 332 333 334 335 333 331 334 332 333 330
295 287 290 289 292 291 291 296 299 300 302 302 303 303 313 314 315 317 320 320 320 321 323 324 326 328 328 328 325 325 327 328 330 331 331 331 332 332 331 332 334 333 331 331
292 290 288 285 289 289 289 297 299 301 305 305 300 307 312 312 314 316 319 321 320 321 323 324 326 328 329 327 327 326 327 328 329 330 330 331 331 330 331 331 330 331 331 332
291 290 289 287 289 282 298 305 305 303 306 308 307 309 311 312 313 315 319 321 321 323 324 326 327 330 330 327 326 328 327 326 327 329 327 328 328 328 330 330 331 333 333 333
296 291 287 285 286 291 297 300 303 302 302 309 308 310 311 313 313 316 319 320 321 326 328 328 330 331 331 327 327 326 325 325 326 328 329 328 328 329 328 329 330 333 334 333
295 295 289 288 282 286 296 303 308 309 298 309 310 310 311 311 304 312 319 321 322 326 331 329 331 332 330 329 327 326 324 325 326 328 328 329 330 330 330 333 334 335 335 335
290 290 287 287 285 291 299 303 308 296 297 310 311 311 312 311 313 317 320 321 323 326 329 331 332 331 331 330 328 326 324 324 327 329 330 331 332 335 336 336 336 336 330 332
287 287 288 289 287 284 299 303 298 304 310 310 311 312 312 315 317 318 319 321 323 324 328 331 331 332 330 329 326 325 325 327 327 330 330 332 334 331 333 336 337 335 332 331
287 290 286 290 288 295 300 302 304 307 307 310 311 312 314 316 316 319 320 322 322 324 327 330 331 331 329 328 326 325 327 327 327 330 332 332 333 334 334 333 334 331 334 331
292 295 290 293 294 296 300 304 307 308 308 310 312 313 314 314 317 318 321 324 323 325 325 331 331 331 328 327 327 328 328 326 326 330 333 333 332 333 334 331 330 328 330 328
293 294 291 293 295 298 300 303 304 306 308 309 311 312 313 315 315 318 319 322 325 326 327 331 331 331 329 328 326 328 327 326 327 330 332 333 332 334 333 333 328 329 329 324
297 293 291 290 297 297 299 303 305 305 306 308 309 310 313 314 315 318 318 320 322 327 328 329 333 333 331 327 326 326 327 326 329 328 329 329 330 330 331 329 325 298 303 301

GFSCGP_sfc_thetae_021.txt.gz
Theta_e
295 290 289 292 295 297 297 297 296 299 304 303 302 303 306 310 309 308 309 311 312 313 315 316 320 320 319 330 332 336 340 343 345 343 340 336 333 332 333 332 334 335 335 335
292 288 294 298 297 296 296 293 294 300 304 302 302 301 306 309 308 309 310 310 311 311 314 316 316 317 323 326 333 337 343 344 343 342 338 336 331 332 332 331 331 332 332 331
288 292 297 297 296 294 294 293 293 294 300 301 299 297 300 305 308 310 310 310 311 312 311 312 313 314 327 329 334 337 342 341 341 340 339 334 330 329 327 328 330 331 332 333
289 295 296 294 294 296 290 298 297 297 295 290 299 289 297 301 304 307 310 310 312 311 313 314 313 322 327 330 333 335 341 340 341 338 334 329 326 324 326 326 329 331 331 331
287 290 290 291 293 297 294 299 297 297 294 293 294 291 295 301 300 302 306 308 309 310 312 313 314 327 329 330 332 337 339 337 336 333 331 327 324 326 327 328 328 329 327 328
291 296 293 291 295 298 299 297 296 295 292 285 292 292 293 296 300 304 306 308 310 310 311 315 327 329 329 333 334 337 335 333 333 331 330 328 326 326 324 326 326 326 325 327
291 292 294 295 290 293 294 290 284 283 284 284 293 292 295 300 304 306 306 307 310 315 322 324 325 327 329 331 333 333 331 328 331 332 328 330 325 326 325 324 324 324 324 324
284 283 293 297 291 288 288 290 284 278 282 285 294 289 294 304 307 308 309 307 318 320 322 323 325 327 329 331 331 330 328 328 329 328 329 329 327 325 326 325 325 325 324 325
285 285 296 295 296 293 289 286 294 288 290 286 290 295 300 303 304 307 307 308 316 319 321 323 323 326 329 329 328 328 328 327 328 327 329 328 327 327 326 326 325 324 325 325
290 282 291 293 295 296 292 294 286 288 281 281 288 291 292 300 302 306 306 313 316 319 321 322 323 326 328 328 328 328 327 327 327 329 328 327 328 328 327 326 324 325 324 325
290 286 286 291 288 288 290 288 289 290 288 284 283 289 301 302 305 304 307 315 317 318 320 321 324 326 327 327 328 327 326 327 326 328 326 327 328 328 325 325 327 324 323 327
291 287 283 286 293 295 294 291 290 286 286 290 288 290 306 307 307 305 310 317 317 320 321 323 325 325 325 326 326 325 325 326 325 328 327 328 328 325 325 324 325 324 321 322
291 284 280 283 288 293 291 295 293 291 291 288 287 290 303 305 309 312 315 317 318 319 321 323 323 323 324 324 325 325 324 323 325 329 328 328 328 325 324 324 327 323 322 325
294 286 283 280 286 290 288 290 293 292 287 289 292 294 298 304 308 313 316 317 318 319 320 321 321 322 324 325 325 324 322 323 324 328 327 328 325 325 325 325 324 327 324 324
291 285 287 289 291 291 289 289 290 288 292 290 293 295 301 306 309 314 316 317 317 318 319 320 320 321 323 322 323 322 321 322 323 328 328 328 326 326 325 325 323 325 325 323
293 286 288 286 291 291 287 290 290 290 292 295 296 297 307 309 313 315 316 316 316 318 320 320 321 323 323 323 320 320 320 322 326 327 328 329 329 328 327 326 327 321 324 326
287 287 285 283 290 289 284 288 290 292 294 296 293 299 310 310 311 312 313 316 317 319 320 321 322 323 322 320 319 318 320 322 327 327 329 330 328 326 327 327 322 323 324 327
287 286 287 285 287 277 289 301 297 294 297 304 302 307 310 310 312 313 314 314 317 319 320 321 322 322 321 319 318 319 320 320 324 327 327 326 326 324 325 326 324 324 322 322
291 289 285 283 283 287 291 297 296 295 300 307 305 307 310 312 312 310 316 317 317 319 320 321 324 323 319 319 319 319 318 319 320 325 323 324 325 323 326 326 323 323 323 323
294 292 288 286 281 281 291 296 300 301 295 308 308 307 309 310 303 305 312 316 318 318 321 324 324 322 319 319 318 318 316 317 318 325 324 325 325 326 326 327 323 323 324 325
286 287 285 285 284 287 295 296 299 293 295 309 309 309 309 305 306 310 313 315 319 318 320 325 324 321 319 319 318 316 316 316 320 326 326 325 325 327 326 325 324 325 325 325
286 285 286 287 284 282 295 297 296 300 305 309 308 310 309 310 312 313 315 316 318 318 320 325 323 321 321 319 319 317 315 318 322 324 326 327 327 330 328 324 324 325 324 322
285 289 285 288 287 296 298 299 304 306 305 306 307 309 310 311 311 313 315 318 318 320 319 326 323 320 320 319 318 317 316 319 322 323 326 326 326 326 325 324 323 324 323 323
291 295 287 291 293 295 299 301 303 305 305 306 307 308 309 309 311 313 316 317 318 320 321 325 323 320 319 319 319 319 319 320 322 325 325 325 326 324 324 324 324 324 323 323
292 293 291 291 296 297 300 301 302 304 306 305 306 308 309 310 311 312 313 316 315 317 321 324 323 321 320 320 318 321 319 319 322 325 325 323 326 325 323 319 316 321 319 326
294 292 289 289 297 296 298 302 304 302 304 306 306 307 309 310 310 312 312 314 315 318 322 323 325 322 321 321 320 321 320 319 322 325 325 324 325 326 324 315 311 298 298 302

GFSCGP_sfc_thetae_024.txt.gz
Theta_e
292 286 286 289 292 293 295 293 293 296 300 299 299 300 302 306 307 305 307 308 310 311 314 314 313 316 318 317 318 324 334 335 338 336 337 335 330 330 329 330 333 333 333 333
289 286 291 294 294 293 292 291 291 295 299 299 298 298 303 305 306 307 308 308 308 309 310 313 314 315 316 319 325 327 334 338 339 339 337 333 331 328 329 330 333 333 332 332
286 289 295 293 291 291 292 290 291 291 296 297 295 294 297 302 303 305 306 308 308 309 310 311 313 312 315 323 328 333 337 338 338 337 334 329 327 326 325 327 328 329 331 330
287 291 290 290 290 292 288 295 294 293 291 287 295 286 294 298 300 302 304 304 305 309 309 311 312 311 320 325 332 337 337 338 338 337 332 330 324 323 323 325 326 327 330 330
286 288 288 287 290 294 290 297 295 294 291 290 290 286 292 297 297 300 303 305 305 307 309 309 309 315 324 330 333 338 337 337 335 333 330 328 324 323 323 325 326 325 326 328
289 293 291 289 292 292 294 293 293 292 288 282 289 288 288 293 297 299 302 305 307 307 307 308 318 326 327 331 336 336 335 332 331 329 327 324 324 323 323 323 323 322 322 324
290 291 294 294 289 291 289 284 279 278 280 282 291 288 291 295 299 301 302 305 306 307 314 320 322 325 328 332 333 332 331 328 328 326 325 324 324 323 323 323 322 321 321 322
281 280 291 296 291 286 285 284 279 275 278 282 291 285 290 299 302 304 305 306 313 316 319 320 323 326 329 331 330 329 328 327 326 326 324 324 324 324 323 322 322 322 322 322
283 284 293 294 294 291 287 283 287 283 286 282 286 291 296 299 300 302 303 311 314 316 319 321 325 327 328 327 328 326 326 325 325 326 325 324 325 324 323 322 322 322 322 323
287 281 290 292 293 293 290 292 282 282 277 276 284 287 288 295 297 301 301 310 314 317 319 322 325 326 326 326 326 325 325 324 325 325 325 325 325 325 324 323 323 323 321 323
288 284 285 290 287 285 286 285 285 285 283 280 279 284 295 296 299 302 301 313 316 318 319 322 324 325 325 327 325 324 324 324 325 324 324 324 324 324 323 322 322 322 321 322
290 285 281 284 291 294 290 287 287 280 280 285 284 286 300 299 301 303 312 316 317 318 319 323 324 324 325 325 324 323 323 324 324 324 323 323 323 322 322 322 322 321 320 322
289 282 277 279 285 292 288 291 291 288 286 284 283 285 300 300 302 307 313 315 317 317 321 322 323 324 324 324 324 323 323 322 324 325 324 326 325 322 321 322 322 320 319 321
293 284 281 275 282 287 286 289 290 288 283 285 286 290 295 298 302 311 313 315 317 319 320 321 322 323 324 325 324 323 322 322 325 326 327 324 323 322 321 322 321 320 320 324
291 283 286 286 288 289 289 289 289 287 288 284 289 291 295 298 300 311 314 316 317 318 319 320 320 322 322 323 323 323 321 321 324 326 327 325 325 323 322 322 321 326 324 325
292 282 287 284 288 289 287 290 290 289 290 289 290 291 299 311 311 312 315 316 316 318 319 320 321 322 322 322 322 321 320 319 324 326 326 327 327 324 324 321 320 321 321 323
287 285 284 280 288 289 283 288 289 290 293 293 288 294 300 310 312 310 314 316 317 318 319 320 321 322 322 322 321 318 318 322 324 327 329 328 325 324 323 324 322 319 324 323
286 283 286 280 284 277 289 297 298 293 294 296 301 301 302 307 313 315 315 315 318 319 320 321 322 322 322 321 318 317 321 323 324 327 329 326 323 322 322 321 318 319 320 320
289 286 283 280 278 286 292 293 294 294 296 305 303 307 309 310 311 312 316 316 318 320 321 322 323 322 319 318 317 319 320 322 323 325 325 325 323 321 323 323 319 319 320 318
293 289 285 284 280 277 289 293 298 298 292 306 306 305 307 309 301 307 313 317 315 319 319 322 322 321 318 315 318 318 317 319 321 325 323 324 323 323 323 324 320 320 320 322
286 287 283 282 277 286 291 293 297 290 295 304 307 307 308 305 309 311 315 317 317 316 320 322 321 319 317 317 318 316 315 315 321 324 325 322 322 322 322 321 320 321 321 321
285 284 284 286 283 281 295 295 294 298 304 305 306 308 311 312 313 313 315 316 318 317 321 322 319 317 317 317 317 315 313 316 322 324 323 322 323 325 324 321 322 322 321 319
285 287 285 286 285 291 296 299 302 303 301 303 305 308 312 311 311 312 311 312 315 320 321 321 318 317 316 316 317 314 315 317 322 322 322 322 324 324 322 321 321 320 319 318
291 293 285 288 293 295 298 301 303 303 303 304 306 308 308 308 309 310 311 312 316 320 322 321 318 316 315 314 317 317 315 319 323 322 323 323 323 321 321 322 322 321 319 318
291 293 290 290 295 297 299 301 302 303 305 305 307 306 307 306 306 308 309 311 314 316 319 322 318 317 316 315 316 317 316 321 323 323 323 323 322 321 319 316 317 322 322 321
293 291 288 288 296 296 297 302 304 303 303 304 304 305 306 306 305 307 307 310 313 314 316 320 319 319 318 317 316 319 316 323 323 321 323 323 322 320 318 312 308 298 300 300

GFSCGP_sfc_thetae_027.txt.gz
Theta_e
290 285 284 289 291 292 290 290 289 294 298 297 296 297 299 302 303 304 305 306 307 309 311 312 313 314 313 314 313 315 322 327 333 332 331 331 332 331 331 334 335 334 334 333
286 284 290 292 292 291 289 288 288 293 297 295 295 295 299 301 302 304 304 305 306 307 309 310 311 312 312 314 314 314 321 329 332 334 334 330 331 327 329 331 333 334 334 332
284 288 293 291 289 288 288 287 288 289 294 295 293 291 294 298 301 304 305 306 306 306 307 308 310 311 311 312 316 319 324 330 332 330 329 327 327 326 325 326 327 330 332 330
285 289 289 288 287 289 284 292 292 292 289 284 292 283 291 295 297 299 301 302 302 305 307 307 309 309 309 312 322 328 331 332 333 332 328 328 326 325 322 326 326 326 329 329
284 286 285 285 287 290 287 292 292 291 288 285 287 283 290 293 293 297 300 301 303 305 305 306 307 307 308 318 328 332 334 333 332 329 330 326 323 322 324 326 324 324 325 327
287 292 289 287 290 291 293 291 289 289 286 279 286 285 287 290 293 295 299 301 303 303 304 305 309 312 320 330 333 333 333 330 330 328 326 326 323 323 323 322 322 321 321 323
288 287 291 292 286 290 288 281 277 276 278 279 288 286 288 293 296 297 298 300 302 302 303 309 314 320 326 332 331 331 331 326 326 325 324 325 323 323 322 323 322 320 319 320
282 280 289 295 289 286 284 282 277 275 277 280 289 283 288 296 299 301 301 301 301 305 314 317 320 323 328 329 327 330 328 323 324 323 322 322 322 322 321 322 322 320 320 321
284 283 292 293 293 291 286 280 285 279 283 279 283 288 294 297 298 298 298 299 301 309 316 319 323 325 327 325 324 327 324 323 323 322 322 322 322 322 321 321 321 321 320 322
287 280 289 292 292 292 288 290 280 278 275 275 281 284 286 291 295 297 297 298 303 313 317 321 324 324 325 324 323 324 324 323 322 322 323 323 322 322 321 321 321 320 320 320
287 283 284 289 285 283 286 284 284 283 281 277 277 281 292 294 295 296 298 300 309 315 318 322 323 323 324 323 323 322 323 323 322 323 323 322 322 322 321 321 321 320 319 321
289 283 280 283 289 291 289 286 286 278 279 281 281 282 296 293 295 298 305 305 314 316 320 321 322 323 323 322 322 322 323 323 322 323 322 321 321 320 319 320 320 320 319 321
288 281 277 278 284 289 286 289 288 287 284 281 279 282 295 296 296 302 307 311 315 318 320 321 322 323 323 322 322 322 322 322 321 322 321 320 320 319 319 320 320 318 318 319
293 282 280 275 280 285 283 288 289 286 280 283 284 286 291 294 295 298 310 313 312 318 320 321 321 322 323 323 323 322 321 323 322 322 321 320 319 319 319 320 319 317 318 319
288 282 283 285 286 287 286 286 288 286 287 283 286 287 292 294 297 299 310 313 316 318 319 320 320 321 322 321 322 322 320 321 323 322 321 320 323 321 320 320 318 319 319 323
292 282 285 283 287 287 286 287 288 289 289 288 289 288 297 299 307 309 311 315 316 317 319 320 321 322 322 321 321 321 320 320 323 322 325 325 325 321 319 319 319 319 320 323
286 284 281 278 285 285 282 286 288 289 290 289 285 292 298 298 302 310 311 316 317 318 319 320 321 322 322 322 322 318 319 319 322 326 326 326 323 321 321 320 318 317 321 323
285 285 284 279 283 274 287 296 296 292 291 292 293 295 302 302 303 313 313 313 317 319 319 320 321 322 321 321 320 317 318 320 324 326 326 324 322 321 320 320 317 318 320 323
290 284 280 278 279 284 289 293 292 291 291 301 302 303 306 307 309 310 317 317 317 319 320 321 322 322 321 318 317 317 318 320 323 326 324 323 321 319 319 316 316 316 316 316
292 288 283 281 278 277 289 293 296 296 287 301 303 303 303 305 301 305 317 318 317 318 319 320 322 322 321 317 316 317 318 320 320 324 324 322 320 319 319 318 317 317 317 317
285 284 281 280 279 285 291 293 296 287 288 301 304 302 303 302 305 310 316 317 319 317 318 320 321 319 319 315 316 316 317 318 321 324 326 321 320 320 320 319 318 319 318 320
284 283 283 283 281 280 293 290 292 297 301 303 302 302 304 307 309 312 315 317 318 316 319 321 320 318 314 317 317 313 315 319 321 323 322 320 319 322 321 319 319 320 318 317
284 285 284 285 284 289 292 292 295 303 301 303 303 304 306 307 307 309 311 315 317 320 320 321 319 315 315 317 317 313 315 316 320 320 319 318 320 321 320 319 318 318 317 316
290 292 285 287 291 290 295 301 302 304 303 305 306 309 307 305 307 307 309 311 314 320 319 318 316 315 313 314 315 316 313 318 320 319 318 319 320 318 319 320 319 318 316 316
291 293 289 288 293 296 299 301 302 303 304 306 308 308 305 306 306 308 309 311 312 314 319 317 317 315 315 315 314 313 315 320 319 320 320 320 319 319 318 316 316 319 318 317
293 290 289 287 295 295 297 301 303 303 302 304 304 305 306 307 306 307 309 311 311 312 315 318 317 316 316 316 315 313 318 320 320 319 320 319 319 318 317 313 310 298 300 301

GFSCGP_sfc_thetae_030.txt.gz
Theta_e
289 284 283 287 291 291 289 287 287 291 295 294 294 295 298 300 300 301 303 304 305 307 310 309 311 312 312 312 313 313 314 325 332 330 328 328 330 331 331 333 334 334 334 333
285 282 288 291 290 289 288 285 285 290 294 293 292 291 295 297 299 301 302 303 303 304 305 308 309 310 310 312 312 312 314 324 331 333 330 330 330 331 331 333 334 335 334 334
282 286 291 290 288 287 286 285 286 287 292 294 291 290 293 296 298 300 301 302 304 304 304 307 309 308 309 309 312 314 314 324 328 330 328 327 327 327 326 329 330 333 334 334
284 288 287 286 286 287 282 290 290 290 287 283 290 281 290 294 295 297 299 300 302 303 305 306 306 307 309 309 311 315 320 327 330 330 327 328 325 324 325 328 329 330 332 331
285 285 284 283 285 289 285 291 289 288 286 283 286 282 288 291 291 293 297 299 300 301 302 303 305 306 307 307 312 323 327 330 330 329 330 328 324 323 327 327 327 327 328 329
288 290 288 286 289 289 291 288 287 286 284 278 284 283 285 288 291 292 296 298 300 300 301 302 304 309 314 325 329 331 329 327 328 329 326 326 324 325 325 324 325 325 324 326
287 286 290 290 285 287 286 281 275 275 275 277 286 283 287 291 294 295 296 297 299 300 301 301 303 317 324 329 330 331 329 325 325 326 325 325 325 325 325 325 323 323 322 322
281 279 287 292 286 283 282 281 276 274 275 277 287 281 286 294 297 298 298 298 298 298 299 305 316 322 328 328 330 328 326 324 324 325 324 324 325 325 325 324 324 323 323 324
283 282 292 293 292 290 284 279 284 278 280 276 281 285 291 295 295 296 296 298 297 298 299 314 322 326 328 328 326 325 324 322 323 323 323 323 323 323 323 322 323 322 323 324
287 280 289 292 293 291 286 288 278 277 274 274 279 281 284 289 292 295 296 296 298 302 314 320 322 325 323 323 323 323 323 322 322 323 323 323 323 323 323 323 322 323 323 324
287 283 283 288 285 282 285 282 283 280 278 276 276 279 289 291 293 293 295 300 306 307 318 321 322 324 321 322 322 322 322 322 322 323 323 323 322 323 323 323 322 323 322 322
288 283 280 283 287 290 286 284 284 278 278 279 278 279 291 292 293 295 298 310 311 314 319 321 322 323 321 321 322 321 322 322 322 323 323 322 322 322 321 322 322 321 321 323
287 281 277 278 284 287 284 287 285 284 283 278 277 280 292 293 295 296 296 311 313 317 318 321 322 321 321 320 321 322 322 322 323 323 321 321 320 320 320 321 322 321 322 323
291 281 279 274 279 284 282 285 286 285 279 280 281 284 290 292 293 296 300 308 313 318 320 321 322 320 321 321 322 322 321 322 322 322 321 320 320 320 321 322 321 320 321 321
286 281 281 283 285 286 285 285 286 284 286 282 284 285 290 292 294 297 303 307 315 317 320 320 320 320 320 320 321 322 322 322 322 322 321 320 320 321 321 321 320 320 321 323
288 281 283 282 285 286 284 285 285 286 286 286 288 287 294 296 297 298 304 311 315 317 319 320 321 321 320 321 321 321 321 321 322 322 321 323 324 321 321 321 320 321 323 326
286 285 281 276 284 283 278 282 284 285 289 288 284 289 294 295 298 300 307 312 315 318 320 320 321 322 322 321 322 320 320 321 322 324 325 325 323 321 321 321 321 319 322 325
287 285 281 276 277 269 282 291 293 289 290 291 291 293 296 298 303 307 309 312 316 319 320 320 321 322 322 321 320 320 319 321 323 324 325 324 323 321 321 320 319 321 324 324
290 286 281 274 275 282 285 291 291 289 289 295 292 294 297 305 307 308 315 316 316 318 320 321 322 321 320 320 319 319 318 321 324 325 324 324 322 321 320 319 317 319 321 320
290 288 283 280 276 274 286 292 295 295 285 301 302 302 303 303 299 305 314 316 316 318 319 320 321 320 319 318 318 318 318 320 322 325 324 324 322 320 320 318 318 320 320 320
284 284 280 280 278 281 291 292 293 285 286 301 302 301 302 300 305 308 316 317 319 319 319 320 320 320 320 316 318 317 318 319 323 326 325 323 321 320 321 319 321 321 321 321
284 282 281 282 279 277 291 289 288 295 301 302 303 304 302 303 307 312 314 316 318 319 319 321 320 318 317 317 318 316 318 321 323 326 323 321 320 322 322 320 321 322 321 319
283 285 283 284 284 290 291 290 294 295 295 303 303 305 305 305 306 308 311 316 317 319 319 321 321 317 315 317 319 316 318 320 322 322 321 320 321 322 321 321 320 320 321 319
289 290 284 285 289 290 293 295 302 303 303 305 306 308 306 304 307 308 310 310 312 319 320 320 318 316 314 317 317 319 316 320 321 320 320 320 320 320 321 322 322 321 319 319
291 292 289 288 292 294 294 298 301 302 304 303 304 306 306 305 306 308 309 310 312 314 319 318 317 317 316 316 316 315 317 321 320 320 320 320 320 321 320 319 319 321 321 319
293 291 288 288 295 294 296 300 303 299 302 303 303 303 305 306 306 308 308 310 313 314 317 317 317 316 316 316 315 314 319 321 320 319 320 320 320 320 320 317 312 296 301 303

GFSCGP_sfc_thetae_033.txt.gz
Theta_e
294 290 287 291 294 295 294 292 292 296 300 299 298 300 303 306 307 307 309 310 311 313 316 319 322 324 327 332 333 337 333 334 333 337 337 338 337 340 340 341 342 342 342 342
291 287 291 293 293 292 292 291 291 294 298 297 299 298 302 304 304 306 307 308 310 312 313 317 320 324 326 329 332 335 332 332 337 338 340 341 341 339 339 340 343 344 342 342
289 291 293 291 291 290 291 290 291 291 295 297 296 295 298 303 305 306 307 309 310 311 313 316 318 322 326 327 330 331 332 332 339 342 341 341 340 336 336 338 337 340 341 342
289 293 290 290 288 291 287 293 293 292 291 288 296 287 296 300 301 303 305 307 308 310 312 314 317 320 324 326 326 326 330 332 337 343 341 340 339 334 337 336 337 337 342 342
288 289 288 288 288 291 289 294 292 291 290 290 291 288 293 299 297 300 304 305 308 309 311 311 313 317 321 322 322 326 332 336 338 341 342 340 340 340 341 340 339 340 343 342
292 296 292 291 292 291 293 291 291 291 290 283 289 288 290 294 297 300 303 305 307 308 309 311 313 316 316 323 333 335 336 339 339 340 342 342 341 339 338 339 338 339 340 340
290 291 294 294 289 292 290 287 281 280 281 281 290 287 291 298 299 301 302 305 307 310 311 313 314 314 321 331 334 333 337 337 340 340 340 341 341 341 341 340 337 336 336 337
284 281 289 293 290 287 288 287 282 276 279 282 289 285 291 299 302 304 304 306 308 310 312 312 312 322 329 333 333 334 338 338 339 339 339 339 341 340 340 340 339 336 336 337
283 283 293 294 295 292 288 284 291 284 286 283 286 290 295 298 300 302 304 307 310 313 315 313 322 330 332 332 333 339 338 338 338 337 337 338 339 339 337 339 339 337 338 337
288 281 290 291 295 294 291 293 284 285 278 277 284 286 289 294 297 301 303 307 312 321 316 322 326 329 330 333 338 339 338 337 337 337 337 336 337 338 337 338 336 337 338 337
291 286 286 290 288 285 288 286 288 288 286 281 282 287 297 297 299 300 302 308 316 321 319 323 325 329 331 336 336 336 335 335 335 335 335 335 335 336 336 336 336 336 336 336
292 288 282 284 291 293 291 288 289 284 283 285 284 286 298 300 300 301 302 304 313 320 320 323 326 329 332 334 334 334 335 334 334 334 334 334 335 335 335 334 335 335 334 333
292 286 280 282 288 291 287 289 290 290 289 285 282 286 299 299 300 302 302 303 308 320 321 323 325 328 331 332 332 332 332 332 333 333 333 333 333 334 334 334 333 333 332 333
295 288 284 280 283 287 285 288 289 288 285 285 286 288 293 296 298 300 302 305 309 321 321 323 324 328 331 332 330 330 330 331 332 331 331 331 332 333 333 333 332 332 332 332
292 284 286 287 288 288 287 286 288 286 288 284 288 289 293 296 299 300 304 305 307 317 321 322 323 327 330 330 330 330 330 330 331 329 329 331 332 333 332 331 331 331 332 331
292 285 287 283 287 287 284 287 288 288 288 288 289 289 297 299 301 301 302 303 306 315 321 323 324 327 329 329 329 329 329 329 330 329 329 330 331 331 331 331 330 330 330 333
288 287 284 280 285 285 281 286 287 288 290 290 286 291 295 297 299 302 305 308 309 315 323 324 326 329 330 329 330 329 329 330 330 329 329 330 330 329 330 329 329 329 331 331
288 287 286 281 283 274 286 293 293 291 294 296 294 294 296 297 301 304 307 309 312 320 324 328 330 330 331 331 330 331 330 329 329 329 329 329 329 328 329 328 328 331 331 330
290 287 283 279 279 283 286 291 290 289 289 297 294 296 298 299 302 306 310 316 321 324 328 330 331 331 331 330 331 330 328 329 329 330 330 330 329 328 328 328 330 332 332 327
289 289 284 282 277 276 288 293 294 294 286 299 299 297 298 300 298 303 316 322 324 328 329 330 331 331 331 331 331 328 327 328 328 330 330 330 329 328 328 329 330 332 334 331
285 285 281 280 279 284 291 293 294 284 290 299 302 304 305 301 305 314 318 322 326 328 329 331 330 330 331 330 330 328 328 328 330 332 331 330 329 329 330 330 330 331 331 330
284 284 283 283 280 279 290 289 287 293 295 296 298 306 306 308 309 312 316 322 324 325 327 330 329 330 331 330 329 327 328 330 330 332 331 329 330 327 329 330 330 331 332 330
284 285 284 285 285 291 292 287 291 293 291 294 298 307 309 311 312 314 318 321 323 323 326 328 329 329 329 329 330 327 330 330 330 332 329 330 329 329 331 330 331 330 330 328
289 290 284 285 290 291 295 296 300 303 301 304 306 307 309 309 311 314 316 320 322 323 325 327 326 327 327 329 329 330 330 330 330 331 328 330 329 328 330 330 331 330 329 327
293 293 289 288 292 294 296 297 300 301 303 303 306 305 306 311 312 313 316 317 319 320 324 327 325 327 328 329 328 330 329 330 330 330 326 330 329 329 330 330 329 331 332 327
295 291 288 287 294 294 295 300 301 300 301 302 301 301 302 306 310 314 315 317 319 320 323 324 325 327 328 327 328 328 329 330 331 330 328 328 329 329 329 327 324 296 301 300

GFSCGP_sfc_thetae_036.txt.gz
Theta_e
300 294 291 294 296 295 295 296 296 299 303 302 302 302 305 310 311 312 313 316 317 319 322 323 324 326 327 331 339 343 345 351 342 337 339 342 341 344 345 346 349 348 348 347
295 291 296 296 295 294 294 293 294 299 301 302 301 301 305 307 309 311 312 314 315 317 318 320 323 324 327 332 339 343 346 347 344 339 344 344 345 345 346 346 346 348 348 347
291 294 297 294 293 291 292 291 293 294 299 301 300 298 302 307 309 310 312 313 314 315 316 318 320 323 325 329 337 337 342 343 345 346 346 347 348 347 344 343 343 344 346 345
293 296 293 293 292 292 288 294 294 294 294 290 300 290 299 303 305 307 310 311 313 314 316 317 319 321 324 326 330 334 339 340 342 349 350 351 343 340 342 344 341 342 344 343
291 293 293 291 292 294 291 295 294 294 293 293 294 291 297 303 301 305 309 310 312 314 315 316 318 320 322 325 327 334 336 337 342 347 350 346 346 344 346 344 338 342 344 344
294 299 297 295 296 295 296 293 292 293 292 286 293 292 294 298 301 305 308 310 311 312 314 316 318 320 321 324 325 329 337 341 344 347 348 349 348 347 344 345 340 342 343 345
292 293 298 298 293 295 293 288 281 280 283 283 293 291 294 302 303 304 305 308 311 313 315 317 318 319 321 324 328 336 341 342 345 346 347 348 350 350 349 347 345 345 342 343
286 283 293 296 294 290 290 288 282 277 280 284 292 288 294 303 305 307 308 310 311 313 316 318 322 321 319 324 335 339 340 342 344 346 347 350 351 348 347 349 346 344 342 343
286 284 294 296 298 295 291 286 293 286 287 286 289 294 299 303 303 305 306 310 314 319 323 324 325 323 329 336 339 342 343 344 345 347 348 349 350 350 348 348 347 343 345 343
290 284 292 293 294 296 293 294 284 287 279 279 287 290 291 298 299 303 305 309 313 323 325 325 327 330 336 340 344 345 346 345 346 347 347 347 348 348 347 346 342 343 344 343
293 289 288 293 290 288 290 289 290 290 287 281 284 288 300 300 303 304 306 308 310 320 325 328 331 333 336 343 344 345 345 345 345 345 345 345 345 344 344 342 343 344 344 343
294 291 285 288 293 295 291 290 288 285 284 288 287 291 304 304 304 305 306 308 311 322 323 325 328 332 339 341 342 342 343 343 343 344 343 343 341 341 342 342 342 343 341 339
295 289 283 285 291 294 290 291 290 291 291 287 285 291 304 304 303 305 306 307 310 316 324 326 328 331 334 338 340 341 341 341 341 341 340 340 341 341 341 341 341 339 337 335
296 291 287 283 286 290 287 289 292 291 286 287 289 292 298 301 301 304 306 307 308 311 326 325 327 330 333 337 338 338 338 338 338 337 337 338 338 339 339 339 338 336 335 335
294 287 289 290 291 291 289 289 290 289 290 287 289 291 297 300 302 304 306 306 307 309 320 324 326 329 331 332 335 336 335 335 335 333 333 334 336 337 336 335 335 335 335 334
293 287 290 287 290 290 288 290 290 290 291 291 292 291 299 301 302 302 303 305 306 309 314 325 326 328 329 331 333 334 333 332 331 330 331 334 335 335 334 334 334 334 333 333
289 287 286 284 289 288 285 289 290 291 292 292 289 294 299 298 299 301 303 305 307 309 314 326 326 330 332 331 332 333 331 329 330 330 331 332 333 333 333 332 332 332 333 335
288 288 289 285 285 277 289 294 294 293 294 296 296 297 300 300 301 303 305 306 308 311 316 328 329 332 333 332 334 333 329 329 329 330 330 331 331 331 331 331 331 333 334 335
291 288 286 282 283 286 288 293 292 289 292 299 299 300 302 303 303 303 306 309 312 316 324 331 333 334 333 333 334 330 327 329 329 329 330 330 330 330 329 329 332 333 334 333
291 291 286 285 279 277 288 294 296 296 287 301 301 301 302 301 295 300 311 323 326 329 331 331 333 335 335 334 333 328 328 328 329 329 329 330 330 330 330 331 332 334 333 332
286 286 283 283 281 285 292 294 294 284 291 301 302 301 305 301 303 309 314 317 323 330 332 333 335 333 334 334 332 326 328 328 329 330 331 331 331 330 331 332 334 334 333 333
285 285 286 286 283 280 293 290 287 296 299 298 300 300 303 309 311 312 314 319 321 329 332 332 332 332 333 333 329 326 328 330 331 332 331 331 331 330 330 333 333 334 335 333
286 287 286 286 286 294 296 291 292 293 291 297 300 301 305 310 312 314 318 321 325 329 331 333 332 331 332 331 328 328 331 331 332 332 331 331 331 331 332 333 333 334 336 335
294 291 286 286 293 293 296 298 298 301 302 302 302 303 310 311 314 316 321 322 325 329 329 332 330 328 327 328 328 330 332 332 332 332 331 331 331 331 332 332 335 336 335 331
295 294 289 290 295 297 296 298 298 301 303 303 305 306 308 311 314 317 319 323 326 327 331 331 328 326 326 327 329 331 332 332 331 332 331 331 331 332 331 334 332 336 336 326
298 293 290 290 297 295 295 299 298 298 301 302 301 303 305 309 313 317 321 325 326 327 328 332 329 327 324 325 328 330 331 332 333 331 330 328 329 330 330 330 329 298 299 298

GFSCGP_sfc_thetae_039.txt.gz
Theta_e
302 297 295 297 299 298 297 295 294 299 304 303 302 303 306 310 310 311 314 317 319 320 324 327 329 331 331 339 343 347 347 353 347 339 338 337 339 343 347 348 357 354 352 352
297 293 298 299 298 296 295 293 294 298 301 303 302 301 305 308 310 311 312 314 317 319 321 324 327 328 335 337 342 344 347 351 353 342 346 342 346 344 347 348 354 353 351 351
293 296 298 296 295 294 294 292 293 293 298 301 301 298 302 307 309 311 312 314 316 317 320 323 323 329 332 335 340 340 347 352 355 352 347 352 352 352 346 348 348 350 350 350
294 298 295 294 293 295 291 296 295 294 292 289 299 291 300 304 306 308 311 312 313 316 318 319 321 326 330 332 334 340 345 351 352 358 345 355 345 343 344 348 348 346 349 348
292 294 294 293 294 296 293 297 295 294 292 292 293 291 297 303 303 306 309 312 314 316 317 318 319 322 325 330 334 338 345 351 352 353 353 348 351 345 346 346 350 346 347 347
295 300 298 296 297 297 299 295 294 294 292 286 291 291 293 298 302 306 310 312 314 315 317 318 320 324 324 325 327 336 343 347 350 349 354 358 356 355 346 347 340 341 343 343
293 294 297 299 295 298 296 291 284 282 283 283 293 291 294 301 304 306 308 310 313 315 316 317 317 318 321 322 324 327 334 339 345 346 349 351 356 361 357 344 341 343 342 343
286 285 293 296 296 293 293 291 284 278 279 283 291 287 293 304 307 309 309 311 312 315 316 317 319 320 322 323 325 327 333 341 344 346 348 351 355 349 350 349 347 345 345 346
287 287 295 297 299 296 293 288 294 287 288 283 286 291 299 302 304 307 308 310 312 315 318 321 323 326 326 323 327 336 339 342 346 346 349 352 351 355 351 357 356 347 350 347
292 285 293 295 298 298 295 297 286 289 280 278 285 288 290 297 300 305 307 310 312 315 322 326 326 327 327 333 340 343 344 345 346 349 350 349 353 353 352 351 351 349 349 346
294 291 290 294 292 292 292 290 293 291 287 282 281 286 298 300 302 304 307 310 312 318 326 328 331 334 338 341 344 346 345 345 345 346 349 347 348 348 348 348 345 345 346 343
296 292 286 289 295 298 294 291 292 285 282 288 287 287 300 303 308 307 308 309 312 322 327 327 331 334 339 340 343 344 344 345 346 344 345 345 346 347 345 343 343 343 341 341
296 290 284 287 291 295 291 293 294 294 290 286 283 286 301 305 307 308 308 309 310 315 328 330 330 337 337 340 341 342 343 343 344 343 342 343 343 343 344 342 342 341 339 337
296 292 287 283 287 287 285 290 293 293 287 287 287 288 291 297 303 306 307 308 309 313 328 328 329 333 336 337 339 338 339 341 341 341 340 340 341 341 341 340 340 338 336 335
293 287 290 291 292 291 290 291 291 290 290 287 289 289 293 297 300 304 307 307 308 311 320 328 327 331 335 336 335 337 338 338 338 337 337 338 339 339 337 336 336 336 336 334
295 288 291 288 292 292 290 291 291 291 292 291 291 290 297 300 303 303 304 305 306 310 314 329 328 331 331 333 334 335 335 335 335 334 333 334 333 333 335 336 335 335 334 334
292 291 288 285 290 290 286 291 292 292 294 293 289 294 299 299 301 303 304 305 306 309 312 327 329 330 331 333 333 333 333 333 331 330 331 332 331 331 333 333 332 333 336 337
289 290 289 285 288 279 291 296 295 293 295 297 297 297 299 300 302 305 306 306 307 309 313 328 330 331 332 335 333 333 330 330 329 329 330 331 331 330 332 331 331 335 334 335
293 290 285 283 283 287 290 294 293 293 293 299 298 301 302 304 305 304 308 308 309 313 320 328 332 336 335 333 333 330 329 329 328 328 329 330 329 329 329 330 333 333 335 334
293 291 287 286 281 278 289 294 298 296 288 302 303 303 302 304 297 300 309 316 321 322 323 331 335 333 332 335 333 329 328 328 327 328 329 330 331 330 329 331 332 336 336 333
288 286 283 284 283 287 294 293 294 285 290 297 301 303 305 304 307 311 312 316 318 322 321 334 336 332 334 334 331 328 327 328 330 329 329 331 331 331 331 334 334 335 335 334
288 286 287 288 284 282 295 293 286 296 299 297 300 303 305 308 310 314 314 316 319 321 331 331 332 333 334 333 329 327 328 331 331 330 330 330 331 330 330 333 333 334 336 334
288 289 285 287 287 298 298 295 297 296 293 295 297 302 306 309 310 312 315 317 321 324 329 332 329 331 333 332 329 327 331 331 330 330 330 330 330 329 332 333 333 336 337 335
295 293 287 289 295 295 297 297 298 298 299 306 306 304 307 304 314 317 317 319 322 328 327 329 331 330 329 329 328 330 331 332 330 329 330 330 331 330 332 332 336 337 337 335
297 296 294 292 295 296 297 299 298 298 300 303 305 306 309 310 314 318 317 321 322 326 329 329 329 327 327 327 328 332 332 332 330 329 329 330 329 332 332 331 328 336 329 320
299 297 293 289 297 295 296 300 299 298 299 301 302 304 307 311 312 319 317 322 323 327 330 327 327 326 325 326 328 331 333 333 331 330 328 328 328 330 329 330 328 297 298 296

GFSCGP_sfc_thetae_042.txt.gz
Theta_e
301 296 293 297 299 298 297 295 294 297 300 299 299 301 305 308 309 309 312 315 315 317 322 327 328 334 332 344 349 349 349 351 355 352 345 341 341 342 347 350 354 357 354 351
296 293 298 299 298 297 296 293 293 296 299 298 298 298 303 307 308 310 312 312 314 318 321 322 326 334 341 344 345 346 349 352 352 347 344 347 345 340 345 351 354 357 355 352
292 295 298 297 295 294 294 293 293 292 296 297 296 295 299 304 308 310 311 314 316 316 317 321 326 332 340 340 343 345 346 347 349 345 345 347 347 353 354 351 352 354 353 352
294 297 295 294 293 294 289 295 294 294 292 287 296 286 296 301 303 307 309 311 314 315 317 317 322 327 334 337 341 347 346 345 345 349 346 344 340 339 347 351 351 351 352 351
291 293 293 292 293 296 293 297 295 294 291 291 290 288 292 298 299 304 309 311 313 315 317 316 317 321 327 330 331 337 344 346 345 346 347 342 345 346 354 353 353 349 352 349
295 299 297 296 298 298 299 295 295 294 292 284 289 289 290 294 298 302 307 311 312 314 316 318 320 320 320 324 328 335 337 338 345 347 351 349 348 347 346 349 346 344 345 343
292 294 297 299 294 297 297 292 284 282 283 282 291 288 292 298 300 302 305 309 312 314 317 318 319 319 320 321 322 325 336 338 346 344 349 346 351 348 355 346 343 341 340 340
286 284 292 297 293 292 292 289 283 277 279 282 290 285 290 299 302 305 307 309 312 314 315 318 319 322 320 323 326 330 334 339 343 342 343 348 348 350 349 345 342 341 339 340
286 286 295 295 297 296 292 288 292 287 288 283 286 290 295 299 300 302 305 308 311 313 314 318 321 321 322 325 331 332 334 336 339 343 346 349 351 352 348 347 345 344 344 344
292 285 293 294 296 296 295 296 288 288 279 277 284 285 287 294 298 301 304 307 310 314 316 320 324 328 332 336 333 335 338 342 347 348 350 350 353 354 351 350 347 346 347 346
295 290 289 294 291 290 292 291 291 290 287 280 280 284 297 297 298 298 303 307 312 313 314 320 327 331 332 339 342 345 344 346 346 346 348 350 351 351 351 348 346 346 347 345
296 292 286 288 294 296 295 291 291 284 283 287 286 286 300 298 297 297 297 309 310 315 325 326 329 335 335 335 340 344 345 342 344 348 349 349 347 347 345 343 342 344 343 343
295 289 283 285 290 294 291 292 293 293 291 286 283 285 299 297 295 298 299 306 309 311 327 326 328 331 334 338 338 339 342 343 344 343 343 342 340 340 341 341 342 343 341 342
296 290 285 281 285 288 285 288 292 291 286 286 287 289 294 294 295 298 300 303 308 310 325 327 330 334 336 336 337 339 339 341 340 340 340 339 341 342 342 342 343 340 339 337
292 287 290 290 290 291 290 289 291 289 290 286 287 288 292 296 296 297 300 303 306 308 321 326 330 334 334 333 335 337 338 339 339 338 339 340 342 342 341 340 339 337 337 333
295 288 290 288 291 290 289 290 291 291 290 290 290 289 296 299 300 300 302 304 305 306 312 326 328 331 329 332 332 334 335 335 339 337 338 339 338 338 338 338 332 331 334 334
290 290 288 284 289 289 285 290 291 292 293 292 287 293 298 297 298 302 303 304 305 306 309 323 327 330 333 332 332 331 335 336 335 334 333 333 333 331 331 333 332 332 334 335
291 290 289 285 287 278 290 297 296 293 295 296 296 297 299 300 302 302 304 305 306 307 309 321 330 332 334 333 331 332 333 332 331 330 329 331 331 331 331 331 331 331 335 336
296 290 286 283 283 287 290 294 292 290 290 296 298 300 301 302 304 305 308 308 309 311 323 325 332 333 334 333 330 331 329 329 328 328 330 330 330 330 330 331 331 333 335 334
296 293 287 285 280 278 289 293 296 297 286 298 299 299 301 304 296 301 312 315 315 320 321 327 331 333 336 331 329 329 328 328 327 329 329 331 330 329 330 332 331 334 334 334
290 287 284 284 283 287 292 295 295 283 288 297 297 298 299 299 302 309 313 313 317 320 323 325 330 330 334 333 331 329 328 327 330 331 330 331 329 331 332 332 334 335 333 333
288 285 285 287 283 281 297 293 287 293 295 295 296 297 298 301 305 309 311 314 319 321 323 327 328 332 334 331 330 328 329 331 331 330 329 330 331 327 332 332 331 335 335 332
289 290 287 288 288 297 298 295 297 298 294 294 296 303 302 303 305 309 311 317 320 322 325 329 329 333 331 330 330 331 331 332 331 331 330 330 332 328 333 329 330 334 333 331
296 296 288 291 294 296 297 299 300 298 296 299 302 306 306 307 309 310 312 318 320 324 323 329 332 328 327 329 332 332 332 332 331 330 329 331 329 331 331 331 335 332 331 331
297 297 295 293 296 297 297 298 298 298 300 300 302 304 306 306 308 310 313 318 321 324 326 330 328 326 328 328 331 331 331 331 329 330 329 329 329 331 328 319 318 326 314 318
300 296 294 290 297 294 295 299 301 298 298 300 301 302 304 306 307 312 314 319 321 324 326 327 328 327 326 327 331 331 332 331 330 330 327 327 329 330 331 326 319 297 297 295

GFSCGP_sfc_thetae_045.txt.gz
Theta_e
295 289 285 290 293 294 292 291 290 293 297 294 292 293 296 300 300 302 305 306 308 312 316 317 318 319 325 328 333 332 332 336 344 341 340 338 338 336 338 340 341 344 348 344
290 286 293 296 295 293 291 289 289 293 297 294 292 292 295 297 299 301 302 305 306 310 312 315 316 318 318 324 332 332 331 333 339 339 335 332 331 332 333 337 341 343 347 347
287 291 296 294 291 290 290 288 288 289 293 294 292 289 292 296 298 301 303 305 306 307 310 313 315 317 319 326 332 332 332 333 334 334 333 332 332 331 335 336 338 342 346 346
290 294 293 291 290 292 286 293 293 291 288 282 291 281 289 293 294 298 300 302 303 305 309 311 312 315 320 326 330 330 332 333 335 335 330 331 330 329 328 336 340 342 345 345
289 291 290 289 292 295 290 295 293 292 288 287 287 282 287 292 292 294 297 300 303 305 307 309 309 310 314 324 324 330 333 332 331 334 333 332 329 331 333 338 340 340 341 343
292 296 295 294 296 296 296 292 291 290 287 280 286 285 285 288 291 294 297 300 302 304 308 308 310 310 311 313 319 319 328 331 330 332 335 332 332 333 335 339 338 337 337 339
289 290 294 297 291 294 291 286 281 276 276 278 287 285 286 291 295 297 297 299 302 303 305 308 309 310 312 311 312 315 322 327 333 332 336 334 333 334 336 339 337 336 334 334
281 281 290 296 292 288 287 287 278 274 277 279 286 282 286 294 296 299 301 300 302 303 304 306 308 311 312 313 312 312 313 322 330 333 339 338 336 342 340 340 338 336 335 334
283 284 294 294 295 293 287 285 292 283 285 280 282 287 292 296 297 297 298 300 299 300 305 306 308 310 312 313 314 314 315 320 334 334 336 338 335 341 339 337 337 336 335 337
289 283 292 293 295 294 289 292 281 284 276 275 280 282 284 291 292 295 295 297 300 304 308 307 307 309 310 311 315 317 323 330 332 333 334 338 340 343 339 338 336 336 335 337
291 286 287 291 288 286 288 286 287 285 283 277 275 279 296 292 293 293 295 298 300 304 307 310 310 319 321 320 321 320 327 332 335 338 339 340 342 343 341 340 339 338 338 339
292 287 282 285 292 294 292 290 287 281 280 283 281 281 296 294 295 296 296 299 301 304 305 309 312 324 329 329 331 330 335 337 339 340 340 341 342 344 342 340 341 341 338 339
291 285 280 282 286 291 287 289 288 288 286 281 279 281 297 296 296 297 296 300 302 304 306 307 316 318 327 328 335 336 337 338 340 342 341 340 339 339 337 338 337 339 336 334
295 288 283 279 283 286 285 287 289 288 280 283 284 286 292 294 295 297 299 300 302 302 304 307 307 317 327 328 333 336 336 340 341 340 338 335 336 337 336 336 336 335 334 332
293 286 287 288 290 290 288 288 289 286 287 283 286 287 290 294 296 298 300 301 301 301 301 305 312 322 326 331 334 336 336 338 339 336 337 336 336 336 336 335 333 331 327 327
294 286 288 285 290 290 288 289 289 290 290 289 290 289 296 297 298 297 299 299 299 301 303 309 322 324 328 328 333 335 336 336 338 336 335 336 334 333 331 328 330 328 327 327
286 286 285 279 289 288 281 288 290 291 292 290 286 291 297 297 297 296 297 299 299 301 303 309 323 325 324 326 332 332 335 336 335 334 334 334 332 330 330 326 327 327 327 327
287 287 286 281 284 275 287 295 294 291 292 294 293 295 298 299 302 304 303 303 303 303 313 319 323 324 326 328 331 333 334 333 332 330 329 327 329 326 325 327 326 327 327 327
293 289 283 278 277 285 289 291 290 288 287 295 293 295 297 298 300 302 306 307 309 311 314 316 324 320 317 323 330 328 327 327 326 325 326 326 326 325 327 326 326 327 326 323
295 293 287 282 277 272 287 293 296 293 283 295 293 292 293 295 289 296 303 305 309 312 316 319 323 325 323 327 327 325 323 323 323 325 327 327 329 327 327 327 328 327 324 325
286 287 282 283 280 284 291 295 295 280 285 293 293 293 293 291 294 298 302 304 310 311 316 322 323 323 329 325 325 322 321 320 326 327 327 326 326 327 327 328 327 324 324 325
285 283 283 285 281 276 295 293 287 292 295 295 295 295 295 297 297 299 301 305 309 313 318 322 321 324 327 324 324 321 322 325 326 326 326 326 327 328 328 327 325 325 324 324
282 288 285 286 285 295 296 295 298 297 296 296 296 297 299 300 301 301 302 307 310 315 321 324 324 326 328 325 325 323 325 325 324 325 325 325 325 326 326 322 325 322 324 324
292 294 287 288 292 294 297 298 297 299 297 298 299 300 302 301 304 306 307 308 311 316 321 324 326 323 324 326 325 326 327 327 325 324 326 325 327 326 324 325 324 322 323 323
292 295 293 291 293 295 297 296 298 299 299 298 300 302 301 302 302 304 305 308 313 317 322 324 325 326 324 326 325 326 327 326 325 325 325 324 325 319 315 312 314 321 317 319
297 294 289 287 294 294 293 297 300 298 297 299 300 300 303 303 303 306 307 311 315 318 323 324 326 324 326 326 327 326 327 327 325 323 324 326 326 322 318 316 312 296 296 296

GFSCGP_sfc_thetae_048.txt.gz
Theta_e
292 286 284 288 290 292 291 289 286 290 294 292 290 291 294 295 296 296 297 300 302 305 310 312 315 315 317 321 323 321 327 333 342 342 342 342 341 341 339 341 342 343 344 340
288 284 290 294 292 290 288 286 285 289 293 292 290 291 294 295 295 295 296 298 300 303 306 309 312 314 313 316 322 324 326 336 344 344 344 341 342 336 341 342 341 341 344 343
285 289 294 292 289 289 287 285 288 288 293 293 289 288 290 295 295 297 297 298 300 301 304 307 311 312 312 312 317 327 327 335 343 343 341 330 331 329 329 330 331 335 342 344
288 292 291 289 289 291 285 293 292 290 287 281 289 280 288 291 293 294 295 295 297 299 302 304 307 308 312 317 321 326 329 329 338 337 334 332 328 325 325 326 333 334 342 343
287 289 289 287 291 293 288 294 291 291 287 283 286 280 286 289 289 292 295 296 297 298 298 301 304 308 310 315 324 326 326 327 329 331 331 331 323 324 324 330 331 333 338 342
290 294 293 292 295 294 295 290 289 287 284 278 284 283 283 287 289 293 296 298 299 301 301 302 304 308 309 311 319 325 326 327 328 327 326 324 324 325 327 330 332 333 335 338
287 288 293 296 289 292 289 282 276 275 275 276 285 282 285 290 293 295 296 298 300 301 301 304 305 303 306 306 311 318 326 327 328 328 328 329 327 327 328 332 333 333 332 333
279 280 288 295 290 286 285 283 275 272 275 278 286 279 284 294 297 298 299 298 299 300 302 304 306 308 305 307 308 312 316 324 326 326 325 330 330 330 332 336 337 338 337 336
281 283 293 294 293 291 285 282 287 278 283 280 281 285 289 295 295 296 296 297 297 298 301 304 307 309 313 308 309 310 312 317 320 326 327 328 331 332 336 336 337 335 334 336
287 281 290 293 294 292 288 289 279 279 275 274 279 281 281 290 291 294 294 294 296 299 300 303 306 308 312 317 311 310 311 313 318 325 329 333 332 338 337 337 334 334 333 335
288 285 286 290 287 285 285 283 286 284 283 278 276 278 291 291 292 291 293 295 296 298 300 303 305 307 310 313 319 311 310 313 324 328 330 334 335 336 336 335 335 334 333 334
290 285 281 285 292 293 289 286 286 279 280 284 282 280 292 293 293 293 293 296 299 300 301 303 304 305 310 312 317 321 316 323 328 331 333 335 338 336 335 334 335 335 335 337
290 282 280 280 285 289 286 289 289 286 284 280 278 279 293 294 295 294 294 297 299 301 302 302 302 304 307 311 317 325 327 329 333 336 336 337 339 337 336 337 337 337 337 336
294 287 282 278 283 288 283 287 289 285 278 280 281 283 288 292 293 294 296 298 298 299 301 302 302 304 305 310 319 330 332 335 337 338 337 336 338 337 337 337 337 336 337 335
292 286 287 288 289 289 288 287 288 286 285 281 284 285 289 291 294 295 297 299 299 300 301 302 302 303 305 308 321 329 334 337 338 336 335 333 334 334 334 333 334 334 334 332
293 286 289 286 289 288 286 288 289 289 288 288 288 286 294 295 296 296 297 298 298 300 302 303 303 306 315 315 326 325 332 333 336 334 333 334 333 334 333 332 329 327 326 325
287 286 284 280 287 287 282 288 289 290 292 289 284 288 293 294 295 296 297 300 304 306 309 311 316 320 322 325 322 319 329 334 333 333 334 334 333 331 330 328 326 323 322 322
288 285 287 281 282 276 287 294 292 289 291 291 291 292 292 292 294 296 299 303 301 302 306 311 317 318 319 321 321 321 329 333 333 333 333 332 331 329 325 326 324 322 325 326
290 287 283 280 277 283 288 291 290 288 287 293 291 291 292 293 294 294 303 301 299 301 306 312 319 319 320 319 321 322 325 332 332 330 331 331 328 325 323 322 324 325 327 327
292 292 286 283 277 272 285 293 295 293 283 294 292 292 292 293 285 291 297 299 300 302 306 312 318 322 320 319 320 318 328 327 326 326 325 324 325 324 323 325 325 326 325 323
286 287 283 282 280 283 291 295 295 279 283 294 293 294 293 291 294 297 300 301 302 303 308 316 320 322 321 323 325 325 324 323 325 325 324 324 325 326 327 326 326 325 323 323
280 282 281 284 281 275 294 291 285 291 294 294 294 296 294 296 298 300 303 303 302 304 311 315 319 320 322 321 324 320 322 324 325 325 325 324 324 326 327 326 325 324 322 320
280 286 285 286 284 294 294 291 295 297 295 296 296 297 297 297 299 302 302 304 306 309 312 316 321 322 320 322 325 321 323 325 324 323 323 324 324 324 326 324 321 322 322 320
288 291 287 288 292 292 294 297 298 297 297 299 298 297 298 298 301 301 302 303 305 308 310 317 321 317 319 324 325 323 324 326 324 322 323 323 322 321 322 323 323 323 321 320
289 293 289 288 293 294 296 297 296 298 299 298 298 299 300 301 301 302 303 305 307 309 313 319 322 323 323 324 324 325 325 325 323 321 323 322 322 319 314 308 311 320 318 320
295 294 290 289 296 293 293 294 298 297 298 298 298 299 301 301 301 302 303 307 310 313 317 320 322 322 323 326 324 325 326 325 323 322 322 320 317 317 315 312 307 295 297 300

GFSCGP_sfc_thetae_051.txt.gz
Theta_e
290 285 283 286 288 289 288 286 284 287 291 289 288 290 292 294 294 294 295 297 298 300 304 307 311 315 318 323 323 324 324 324 327 335 336 336 337 340 341 341 341 340 339 337
286 282 289 292 290 288 287 284 284 288 293 291 290 289 293 292 293 294 295 296 297 298 301 304 308 310 313 316 321 323 323 325 325 336 338 336 337 339 341 342 340 341 341 338
284 288 292 291 288 288 286 285 286 287 291 291 289 287 289 292 293 295 295 296 296 297 298 301 303 305 310 311 315 320 322 324 326 336 337 329 331 329 332 332 335 338 339 340
286 291 290 288 287 289 283 291 291 289 286 279 289 278 287 290 291 292 293 293 294 295 297 298 299 301 302 306 310 316 320 321 325 328 336 336 336 334 333 335 335 333 337 339
287 288 287 286 288 292 286 293 289 288 285 282 283 279 285 288 288 291 293 295 297 298 300 300 302 303 304 305 307 312 319 322 324 332 338 337 335 329 323 323 328 329 332 337
288 292 291 290 293 292 293 288 286 285 282 275 282 281 282 283 286 289 295 297 299 299 301 302 304 306 307 308 304 309 319 323 325 332 335 336 334 326 323 324 325 326 329 333
286 286 292 294 287 289 287 281 274 274 274 275 284 281 283 289 293 295 295 296 297 298 299 300 302 304 307 308 310 304 313 321 323 326 332 331 330 328 326 325 327 327 329 331
279 279 287 294 288 284 283 282 273 269 273 276 283 278 283 294 296 297 298 297 298 297 297 299 301 303 305 308 312 307 307 316 322 325 327 329 328 327 325 325 329 330 332 333
280 282 292 293 292 289 284 281 285 275 279 275 279 284 288 293 294 295 295 296 295 296 297 298 300 302 305 306 309 312 311 308 317 322 325 324 324 323 325 327 331 332 332 335
286 280 289 291 292 291 287 288 278 278 273 273 278 280 281 286 289 293 293 293 294 296 298 300 301 302 305 305 308 312 315 312 310 319 322 322 324 326 328 331 332 332 331 335
287 283 284 288 286 283 283 282 283 282 281 274 274 278 287 289 291 292 293 294 293 296 298 300 301 303 304 304 307 311 313 315 307 312 318 322 325 329 331 332 332 332 333 334
289 284 280 284 291 292 288 285 286 279 277 280 279 279 292 292 291 292 293 295 295 298 299 300 301 303 304 304 305 309 313 316 309 311 318 325 329 332 332 332 332 332 333 334
289 281 279 280 283 287 286 289 289 287 285 280 275 279 291 291 292 294 294 296 297 297 299 300 301 302 303 304 306 308 315 321 317 322 325 330 331 332 332 332 332 333 334 334
293 284 281 279 281 285 284 286 289 286 281 280 281 282 288 290 291 293 295 296 296 297 302 301 301 302 302 304 306 309 316 326 327 329 331 333 332 333 333 333 333 334 335 335
289 284 285 286 288 288 287 287 287 285 285 282 284 284 287 290 290 293 296 298 298 302 304 305 307 305 306 305 309 312 320 330 331 332 333 335 335 335 335 335 335 336 335 335
291 284 285 284 287 287 285 288 288 288 288 287 287 286 292 292 294 294 294 295 296 303 303 303 305 312 315 313 319 317 323 332 333 332 333 335 334 335 334 335 335 334 330 328
283 285 285 280 287 286 281 286 288 289 291 289 284 289 292 291 292 292 293 294 297 299 301 302 303 308 315 317 319 320 323 330 332 332 334 334 334 331 331 330 329 327 326 324
284 286 286 280 281 275 285 293 292 289 291 292 292 292 293 293 293 294 295 297 297 299 300 302 303 307 315 320 321 321 322 324 331 331 331 332 331 329 327 327 325 324 324 322
288 286 284 277 277 282 286 291 290 287 286 292 291 293 294 293 294 293 297 298 298 299 301 303 305 308 317 320 321 321 319 319 323 330 330 330 328 326 326 324 324 324 321 319
292 292 286 281 277 272 283 293 295 293 282 294 293 291 291 292 286 290 296 298 300 302 304 304 305 312 318 319 320 320 318 320 322 329 330 327 327 325 324 324 324 322 322 321
284 284 282 282 280 281 290 294 295 281 282 292 292 292 293 291 293 296 299 300 302 304 305 306 310 316 317 319 321 319 319 325 330 330 327 325 324 324 324 322 323 323 322 319
279 279 282 284 279 274 294 293 286 290 296 294 293 294 294 296 297 297 299 300 302 303 306 308 311 316 318 319 320 318 320 327 326 326 325 324 324 325 324 323 324 323 320 316
280 285 283 284 281 292 296 294 297 297 294 294 295 297 297 296 296 298 299 301 302 304 305 309 312 316 318 319 321 318 323 325 324 322 321 322 324 324 324 324 322 321 319 319
288 288 285 287 292 294 296 298 296 296 294 296 298 298 297 296 298 299 300 301 302 305 307 310 313 316 316 318 321 323 323 323 322 321 320 321 322 323 324 324 323 320 320 318
288 290 289 289 292 295 296 296 294 294 296 297 299 297 297 299 299 300 300 302 304 306 309 312 314 320 320 323 321 323 324 323 321 321 321 319 320 321 314 307 313 320 320 319
290 290 288 287 295 295 296 297 294 293 295 298 297 297 299 299 299 300 300 303 305 308 311 315 320 320 319 323 322 323 324 323 322 320 320 318 316 315 312 312 309 295 298 300

GFSCGP_sfc_thetae_054.txt.gz
Theta_e
288 284 281 285 287 287 286 284 283 286 290 289 288 289 292 294 293 293 295 295 297 299 303 305 307 309 310 313 321 323 325 330 330 331 333 333 333 335 335 337 338 337 337 336
285 281 287 290 289 287 285 283 283 287 291 289 288 288 291 292 292 293 294 295 295 297 299 303 303 306 308 308 311 318 322 324 327 332 336 336 336 336 337 339 340 339 339 337
283 286 291 289 286 287 285 284 284 285 289 289 287 284 286 291 293 294 295 295 296 295 296 298 301 303 303 305 307 310 315 322 323 324 333 332 333 333 335 336 338 340 340 339
285 289 289 286 286 288 282 290 289 287 284 277 287 276 283 286 288 291 293 292 293 296 299 300 302 302 304 307 306 308 311 315 319 323 326 332 332 332 335 337 338 337 340 340
285 286 286 284 286 290 285 291 287 287 282 280 282 278 281 287 285 287 290 292 296 298 299 300 301 303 305 307 306 306 307 311 316 320 324 327 331 333 335 329 333 332 337 339
287 290 289 288 291 291 291 287 284 282 280 274 280 279 278 282 285 289 293 296 297 298 299 300 301 303 303 305 306 307 306 309 317 319 323 327 331 332 325 326 329 329 331 333
285 286 291 293 286 288 285 280 273 273 273 274 282 279 282 287 291 291 293 295 296 297 297 297 298 299 301 302 305 308 309 307 312 320 324 330 332 333 329 329 329 326 328 331
280 280 287 293 287 284 281 281 273 269 272 273 281 277 281 290 293 295 297 296 297 297 296 296 298 299 301 303 304 307 308 308 309 318 323 328 333 334 332 331 329 328 329 331
282 283 291 292 291 289 283 279 282 274 276 274 278 281 288 291 291 295 294 296 295 295 296 297 298 299 300 303 304 306 307 309 312 311 319 324 329 328 329 327 329 328 331 334
286 281 289 291 291 290 286 287 276 276 271 272 276 278 280 285 288 291 291 292 293 295 296 298 299 301 303 304 304 306 306 309 313 314 313 322 325 328 327 325 327 330 332 336
287 283 284 288 285 283 283 281 282 279 278 275 274 277 286 287 288 289 291 294 295 296 297 298 300 302 302 303 304 305 306 308 310 314 311 318 320 324 325 327 329 331 333 335
288 283 280 283 289 290 286 284 282 276 273 280 273 279 290 290 289 291 291 293 296 298 298 298 299 302 302 304 304 304 305 306 310 316 313 315 321 325 327 329 331 333 334 336
288 281 277 279 282 286 284 287 287 287 285 280 277 279 290 291 292 293 293 294 296 297 296 301 304 305 305 308 309 305 306 307 311 319 312 317 323 327 328 330 331 333 334 335
293 282 280 276 280 282 281 285 287 286 281 280 281 282 287 289 290 291 292 294 295 296 298 303 302 303 304 306 311 306 306 309 313 322 317 320 325 329 330 331 332 334 335 335
288 283 284 285 287 287 286 285 286 285 286 282 284 283 287 290 290 292 293 294 295 295 296 303 302 303 303 305 308 316 319 316 320 326 323 325 329 331 332 333 333 335 335 336
289 281 284 281 286 286 284 286 287 287 287 287 287 286 293 294 294 293 293 294 294 296 298 301 302 304 304 305 308 313 319 321 330 328 329 332 332 332 333 332 334 335 335 334
286 282 282 279 285 284 280 285 287 288 291 289 284 288 292 292 293 293 293 294 294 296 299 300 302 304 306 307 309 311 319 323 330 331 334 334 332 332 333 334 335 333 331 332
283 283 285 280 280 274 283 292 292 289 291 292 290 290 292 293 294 295 295 294 295 297 298 300 301 304 306 308 310 315 320 322 328 332 332 332 333 332 332 332 330 329 328 326
287 286 283 280 278 281 285 290 289 286 287 292 290 292 292 292 293 293 296 297 297 298 299 300 303 306 307 308 310 317 320 319 322 329 330 331 331 330 328 326 326 325 324 322
289 289 286 282 277 274 282 292 294 293 283 293 292 292 292 292 284 289 297 298 299 300 301 302 304 307 308 309 312 318 318 318 319 330 330 331 329 327 326 326 325 324 323 320
285 285 282 280 279 281 288 293 293 283 283 292 295 293 293 290 292 296 299 298 300 300 301 304 306 306 308 312 316 318 318 317 322 331 328 327 328 326 326 326 324 321 319 318
277 277 275 279 276 273 293 291 286 291 294 295 294 293 292 295 297 297 297 298 300 301 302 305 305 306 310 313 317 317 319 323 326 328 326 326 325 327 326 324 321 320 318 317
277 282 282 283 279 288 295 294 298 298 296 294 293 294 295 297 296 297 298 300 301 302 303 305 306 308 312 316 318 317 319 325 326 325 324 324 325 325 325 322 320 319 319 318
286 287 282 286 288 291 294 297 298 298 295 294 294 294 297 295 296 297 299 299 300 302 303 306 307 309 311 317 319 319 323 325 325 323 323 323 323 322 323 323 322 321 319 318
287 286 285 286 291 293 296 297 297 296 294 294 297 297 296 297 297 298 298 299 301 302 305 307 309 311 314 319 320 322 323 325 322 322 322 322 322 320 313 308 317 321 321 318
288 288 287 286 293 294 294 297 297 293 293 296 295 296 297 297 297 298 298 300 302 303 305 308 312 317 320 322 321 322 324 323 321 320 320 319 318 316 315 314 310 295 299 300

GFSCGP_sfc_thetae_057.txt.gz
Theta_e
295 293 290 292 293 292 291 290 288 292 295 294 293 293 296 298 299 299 300 300 302 305 308 310 312 315 315 319 321 324 335 351 349 343 338 335 333 336 337 339 343 337 339 341
292 289 294 294 293 291 291 289 289 292 295 293 293 292 295 297 298 300 301 301 302 303 305 308 311 314 317 317 321 321 324 333 345 347 347 345 343 339 341 341 347 347 343 342
289 291 294 293 292 291 291 289 289 288 292 294 292 289 292 296 298 300 301 302 303 303 303 306 309 313 315 317 319 320 322 324 331 343 346 346 345 345 342 344 346 346 345 344
291 294 292 291 290 292 287 294 291 290 288 284 291 282 290 293 295 297 299 301 302 304 305 307 308 310 312 314 316 319 322 323 323 332 337 345 341 340 344 344 346 348 347 346
290 291 291 290 290 294 289 294 292 291 289 287 287 285 289 293 292 294 298 301 303 306 307 307 308 308 310 313 314 317 320 323 326 326 333 335 342 344 346 345 351 354 349 350
292 295 294 293 295 294 294 292 290 289 288 282 286 285 286 290 292 295 298 301 304 305 306 308 309 310 310 312 312 315 317 322 325 325 328 332 336 340 339 342 342 343 344 347
290 290 295 296 292 293 292 289 282 280 281 280 288 285 287 293 295 296 297 300 304 306 307 307 307 308 309 311 314 314 315 318 322 322 324 329 333 336 339 342 340 342 340 342
285 283 291 295 292 290 290 289 283 275 278 281 287 282 289 295 297 299 301 303 305 305 305 306 308 308 309 311 313 314 315 315 318 321 322 327 332 333 337 341 338 337 337 343
286 285 293 294 295 294 289 287 290 284 285 281 284 288 293 296 296 298 299 301 302 303 305 306 308 308 309 312 314 315 314 315 318 320 322 325 329 335 338 346 346 342 343 343
291 284 291 293 295 294 292 294 285 287 277 276 282 284 285 291 293 296 297 299 301 303 305 307 308 307 310 314 315 316 316 315 317 319 321 322 326 333 337 343 343 344 345 344
293 289 288 291 290 289 289 288 288 288 286 279 278 284 293 293 295 295 298 299 300 302 304 306 307 308 312 314 316 318 319 318 315 317 319 322 325 330 335 336 339 341 343 343
293 290 284 286 293 294 292 290 290 284 282 285 284 283 296 297 296 298 298 300 301 303 304 305 306 308 312 312 312 314 317 319 317 316 318 321 325 329 332 334 337 340 341 343
294 288 282 283 288 291 289 290 291 291 288 284 280 284 296 297 297 299 298 300 301 303 304 304 305 306 310 311 311 312 315 317 321 320 320 321 325 329 332 333 337 340 341 342
296 290 286 281 284 289 286 289 291 289 283 285 285 287 292 295 296 298 299 301 301 302 303 304 304 305 310 311 311 311 312 316 319 325 326 323 327 331 332 334 337 339 341 342
294 286 288 288 289 289 289 288 289 288 288 283 287 288 292 295 297 299 300 300 300 300 301 302 303 306 308 308 311 312 312 315 319 322 326 328 331 333 333 334 337 339 341 342
294 286 287 284 289 289 287 289 290 290 290 289 290 290 297 299 299 298 299 298 298 299 300 301 303 306 306 307 310 312 312 315 318 321 324 330 333 332 333 336 337 338 341 343
290 288 284 280 287 287 284 289 290 291 293 292 288 293 298 296 297 297 297 298 297 299 300 301 303 303 305 307 310 312 314 315 317 321 323 329 335 332 333 334 334 335 338 342
288 286 286 282 285 278 289 294 294 292 293 295 295 295 297 297 298 298 298 298 299 300 301 302 303 305 307 308 310 313 314 315 316 320 322 332 333 331 332 333 334 335 340 342
291 288 284 282 282 286 288 292 292 290 289 295 294 295 296 296 297 295 298 299 298 300 302 303 304 307 307 308 311 312 311 314 313 322 322 332 331 330 331 333 334 337 339 337
289 289 286 285 279 277 288 294 297 295 286 296 295 294 294 295 286 290 298 299 300 302 303 303 305 307 308 309 311 310 310 311 318 321 323 332 332 332 334 333 334 335 336 332
284 285 281 282 281 286 293 296 297 284 287 296 296 295 296 293 294 298 299 301 301 302 303 305 307 307 309 311 311 310 312 316 320 323 327 331 332 333 333 333 333 330 329 324
285 284 283 285 282 279 296 295 287 293 296 296 298 298 296 297 297 296 298 299 300 302 303 305 305 307 309 311 310 311 314 320 324 324 328 330 330 330 330 329 328 327 322 323
285 289 286 287 288 296 297 296 299 299 298 299 298 298 297 296 297 298 298 298 301 302 303 306 305 306 309 310 313 313 316 322 326 327 328 328 329 328 329 325 324 321 322 321
291 293 288 288 293 294 298 299 301 301 299 299 298 297 297 294 296 296 297 299 300 300 301 303 305 305 307 311 313 315 320 322 326 326 326 327 325 326 325 325 326 326 323 322
291 292 290 289 293 296 297 299 300 299 299 298 298 297 296 296 296 297 297 298 299 300 302 304 304 306 309 312 314 318 321 325 324 325 324 324 326 325 323 321 327 328 329 323
292 288 286 287 293 294 296 300 300 298 297 298 296 296 297 297 296 297 297 298 299 299 301 303 306 309 309 313 316 320 325 327 327 322 325 322 320 320 321 319 314 295 299 300

GFSCGP_sfc_thetae_060.txt.gz
Theta_e
301 296 294 297 298 297 295 294 293 296 299 297 298 298 300 303 303 303 304 304 305 307 310 313 315 318 320 325 328 332 330 341 350 340 339 338 338 340 340 341 346 346 348 347
297 293 298 298 297 295 295 293 294 296 298 297 297 296 299 301 302 303 304 305 306 307 308 310 313 316 320 323 326 328 330 332 337 349 351 347 343 340 340 342 346 348 346 346
294 296 298 296 295 293 295 293 293 292 295 297 296 295 297 299 301 302 304 305 306 305 306 308 310 315 318 319 321 323 327 332 333 336 344 352 352 351 345 343 342 345 348 345
296 298 295 295 294 295 292 296 293 292 292 289 295 288 295 298 298 300 301 302 304 306 308 309 310 312 314 316 319 322 325 328 330 333 335 346 345 345 344 349 346 346 353 349
293 295 295 293 294 295 293 295 294 294 292 292 292 289 294 297 295 299 300 303 306 309 309 309 310 311 314 317 318 322 324 326 329 333 335 332 340 338 344 349 355 356 357 353
296 300 297 297 297 297 297 295 295 295 293 286 291 290 292 294 296 298 301 302 305 308 310 311 311 313 313 316 319 321 322 324 326 329 332 335 335 338 337 344 347 348 350 353
296 294 298 298 295 298 296 293 287 285 286 286 292 289 294 297 298 299 300 302 305 308 309 309 310 312 313 314 317 318 320 322 324 326 328 331 334 338 340 345 340 347 345 346
289 287 294 298 295 293 294 293 287 279 282 287 292 286 293 299 300 302 303 304 306 308 309 309 311 313 313 314 316 319 320 321 322 324 326 329 332 331 335 339 337 338 341 344
289 289 296 297 297 296 292 290 295 288 289 286 289 292 297 300 299 300 301 302 304 306 308 309 311 312 313 315 317 319 320 323 324 324 327 329 329 331 334 346 349 340 347 344
294 288 295 296 297 297 295 297 289 290 280 280 287 289 291 295 297 299 300 301 304 307 307 309 310 312 314 316 318 320 321 322 326 327 326 324 327 331 335 339 345 348 350 349
297 293 291 295 293 291 292 291 292 292 290 284 283 288 298 297 298 299 300 302 304 305 306 308 310 312 313 314 317 319 319 319 322 326 327 325 325 327 330 334 339 345 352 349
296 293 288 290 296 297 296 293 293 287 286 289 288 287 300 300 301 301 302 304 305 307 307 308 310 311 312 312 313 316 318 318 320 323 327 326 325 327 329 333 338 342 344 348
297 291 285 286 292 295 292 293 294 293 292 288 285 289 301 301 301 303 303 304 305 306 307 308 310 310 311 312 312 315 316 317 318 320 325 328 329 330 331 333 338 342 342 346
297 293 289 284 287 292 289 291 293 291 287 289 289 292 296 299 300 302 303 305 305 305 306 307 307 308 310 312 312 314 315 317 318 318 323 326 330 333 333 334 338 341 341 344
296 289 291 292 292 292 291 290 291 289 290 287 291 292 296 299 301 302 304 305 304 304 304 305 306 307 308 310 312 313 314 316 318 317 321 325 330 333 335 334 337 341 341 342
298 289 291 288 291 291 290 292 293 293 294 293 294 293 300 302 303 301 300 302 303 303 303 304 305 306 307 309 311 312 312 315 318 318 320 324 327 330 334 336 339 340 340 342
292 291 287 284 289 290 287 292 293 295 296 295 291 296 301 300 300 299 301 302 302 302 302 302 303 306 308 309 311 311 313 316 316 318 320 324 327 329 332 336 338 339 342 347
291 290 288 284 287 280 292 297 296 294 296 298 298 299 300 301 302 301 304 302 301 301 301 304 304 305 308 310 311 312 313 315 315 316 320 322 325 328 332 336 338 342 344 349
293 290 285 284 285 289 292 295 295 293 293 298 298 299 300 301 301 298 303 303 301 301 303 304 305 306 305 308 310 312 312 312 315 316 319 321 325 329 332 336 338 339 340 343
292 292 288 287 281 279 291 296 299 298 287 299 299 298 298 297 290 296 303 302 301 303 301 304 305 306 308 309 310 312 311 312 314 316 318 323 328 327 332 334 334 338 340 341
285 286 283 284 283 288 297 298 299 285 290 300 300 298 298 295 299 301 301 301 302 303 303 305 305 306 308 311 312 311 311 312 316 318 320 325 327 328 332 333 336 338 338 339
288 286 285 286 283 282 299 298 289 297 300 300 300 300 298 299 299 299 300 299 300 301 302 304 304 304 307 310 309 311 311 314 315 317 320 325 324 331 333 333 334 335 337 335
288 293 289 290 291 299 300 299 302 302 300 300 300 300 300 298 298 297 297 298 299 301 302 304 304 304 308 310 310 310 315 316 318 320 322 323 329 331 333 330 331 334 336 332
293 296 290 290 295 296 299 302 303 303 301 301 301 299 299 297 297 296 297 298 298 300 301 303 303 303 304 308 311 315 317 320 320 320 323 328 327 327 329 330 334 334 332 329
293 293 290 292 296 297 298 300 302 300 300 300 301 299 297 296 296 296 297 297 298 299 301 303 302 302 304 308 311 317 320 322 319 320 325 326 326 327 328 330 333 332 332 328
292 289 286 286 290 291 294 301 300 299 298 299 296 296 297 297 296 297 296 297 297 298 299 299 300 302 304 308 314 317 319 322 322 324 324 325 324 324 327 325 315 298 301 298

GFSCGP_sfc_thetae_063.txt.gz
Theta_e
304 299 296 299 302 301 299 298 297 300 303 299 300 301 303 306 307 306 307 308 309 310 313 315 316 317 320 326 328 331 332 343 348 349 345 345 344 346 346 346 346 350 350 348
300 296 300 302 300 299 298 296 296 299 301 300 299 299 303 305 305 307 307 308 308 309 311 312 314 317 318 320 331 330 329 334 339 349 345 345 343 344 345 347 348 348 348 351
296 299 301 298 297 296 296 295 296 296 299 300 298 296 299 303 305 306 307 309 309 310 310 311 312 316 318 320 320 323 328 330 336 343 347 351 350 350 345 342 341 346 347 350
299 301 297 297 296 298 294 300 298 296 294 290 298 289 298 301 301 303 305 307 308 309 310 311 313 315 317 317 319 321 326 329 332 335 339 346 349 348 348 347 347 348 346 349
297 298 296 295 297 299 295 298 297 296 294 294 294 292 296 301 299 301 304 306 308 310 310 311 312 314 315 316 320 322 325 328 330 332 341 334 338 339 348 352 358 359 353 350
300 303 300 298 299 300 300 297 297 297 295 288 293 293 294 297 299 301 303 305 306 309 311 311 312 313 315 317 317 320 323 325 328 329 331 336 337 339 336 340 346 352 349 352
298 298 301 301 296 298 298 295 288 287 288 287 295 293 295 300 301 302 302 304 306 310 311 311 311 312 314 315 316 318 320 324 325 326 328 331 337 337 342 342 336 344 348 352
292 290 298 302 298 295 295 294 288 282 284 286 295 289 295 302 304 303 304 305 307 309 310 311 312 312 313 314 316 317 319 321 324 326 327 329 334 328 330 336 336 334 336 344
292 292 299 301 301 299 294 291 297 290 292 288 292 295 300 302 301 303 303 304 305 308 310 310 312 313 313 315 316 318 319 321 323 325 328 330 330 334 333 341 344 338 346 341
296 290 298 299 300 300 297 299 290 291 282 281 288 290 290 298 300 302 302 303 305 308 309 310 311 312 314 316 316 318 321 321 323 324 325 326 329 329 333 338 340 342 346 352
298 294 294 297 295 294 294 293 293 294 291 284 283 288 299 299 301 301 302 304 306 307 308 310 310 312 314 315 315 317 317 319 320 321 323 327 328 329 331 334 336 340 345 348
298 295 289 291 298 301 298 295 295 288 287 290 288 288 301 302 303 303 303 306 307 308 309 310 311 312 313 313 314 315 316 316 318 320 321 322 327 330 333 333 334 339 342 347
298 292 286 289 294 297 293 294 295 294 294 289 286 289 302 302 303 304 304 306 307 308 309 309 310 311 311 312 312 314 315 315 317 319 319 323 326 330 336 336 337 339 339 343
299 293 289 285 287 291 290 292 295 294 289 289 290 292 297 300 301 303 305 307 307 308 309 310 310 310 311 311 311 312 314 316 317 318 318 321 326 330 332 337 338 336 335 339
297 290 292 293 294 293 292 292 293 292 293 288 292 293 296 299 301 303 306 307 306 306 307 308 309 309 310 310 311 311 312 314 317 316 317 321 325 327 328 331 336 336 338 339
298 291 292 290 293 292 290 292 293 293 294 294 295 294 301 303 304 304 303 306 305 305 307 308 308 308 308 309 309 311 314 313 316 315 315 319 320 322 327 331 336 339 337 341
294 293 289 286 291 291 287 292 294 295 295 294 292 298 301 300 302 303 304 304 304 305 305 306 307 307 306 308 310 307 309 314 314 314 315 317 319 320 324 327 331 334 341 346
294 291 291 287 289 281 292 298 298 296 297 298 298 299 301 302 304 305 304 303 304 305 304 305 306 307 309 309 310 311 311 310 312 313 314 316 317 319 323 325 332 336 342 346
296 291 288 285 286 290 293 297 297 295 294 299 299 301 302 301 302 302 304 306 305 306 306 305 307 309 309 308 307 309 309 309 309 312 314 315 317 319 322 324 333 338 341 344
296 294 289 289 283 281 292 298 301 300 290 302 301 299 298 298 292 298 303 305 305 305 306 304 306 307 309 308 310 308 308 309 309 311 314 316 316 318 322 328 333 339 342 344
290 289 286 287 285 290 298 300 301 287 291 301 301 300 299 297 300 303 304 304 305 305 306 306 306 305 306 307 306 308 310 309 312 313 316 316 319 321 326 330 336 340 342 341
290 288 287 289 286 283 301 299 291 299 302 301 300 301 300 300 301 301 302 303 304 304 303 304 303 303 305 306 307 305 306 311 313 314 315 316 321 322 327 330 336 339 340 337
290 294 290 292 293 301 302 301 304 304 301 301 300 299 299 300 300 301 301 302 301 301 301 302 302 304 306 307 308 306 309 313 314 314 315 317 318 322 329 329 332 337 333 331
295 300 293 293 297 297 300 303 303 304 301 300 300 301 299 297 298 297 297 298 298 299 299 301 300 301 302 306 307 308 310 312 313 313 314 315 317 325 330 331 335 330 331 335
293 296 292 292 296 295 298 300 303 301 301 300 300 297 296 296 295 295 295 296 297 297 299 300 300 300 302 305 307 309 312 314 312 314 315 318 321 323 328 328 329 337 340 334
293 290 286 286 292 292 293 300 302 299 299 300 295 296 297 296 295 295 295 296 297 297 298 299 300 301 302 304 307 310 315 315 316 319 321 320 324 324 319 324 313 300 301 303

GFSCGP_sfc_thetae_066.txt.gz
Theta_e
303 298 295 298 300 300 298 297 296 300 304 301 300 300 302 305 306 306 307 308 310 311 314 320 322 324 329 334 337 339 339 354 350 349 344 344 343 345 344 345 348 348 352 351
299 296 301 302 301 299 298 296 296 299 302 301 300 298 302 304 306 307 308 308 309 311 313 315 319 323 327 331 333 333 338 338 350 347 345 341 343 344 345 345 344 346 348 349
296 299 303 300 298 296 296 295 295 295 299 301 299 296 299 303 305 307 308 310 310 311 312 314 316 322 324 328 329 331 333 338 339 345 349 342 340 345 343 343 344 342 346 345
298 302 300 298 296 297 292 299 298 297 294 290 299 288 297 301 302 304 306 308 308 310 313 314 315 317 323 323 328 332 334 330 331 339 339 340 343 335 337 338 340 342 344 342
297 298 298 296 296 299 294 300 297 296 294 293 293 290 294 300 299 301 304 305 307 309 310 311 313 316 319 323 326 328 331 334 332 331 336 337 337 340 339 348 344 344 343 342
299 303 301 299 300 300 300 296 296 296 293 286 291 291 292 296 299 301 304 305 307 308 310 312 315 317 317 321 321 328 329 329 331 332 332 334 336 336 336 338 338 341 342 344
298 298 302 302 297 300 297 293 285 283 285 285 294 292 295 300 303 303 303 304 306 308 311 312 311 312 316 318 321 322 324 329 332 332 333 332 333 336 336 336 336 335 336 343
290 289 298 302 299 295 295 294 287 280 282 286 293 289 294 302 304 305 305 306 306 308 311 312 314 314 313 318 321 320 322 327 329 331 333 333 333 331 331 333 332 333 333 338
292 292 298 300 302 299 295 291 297 290 290 286 289 294 300 302 302 303 303 304 305 307 310 310 312 315 316 319 322 322 322 326 328 329 333 336 335 334 330 332 335 332 334 339
296 289 296 299 301 300 297 299 290 291 282 280 286 288 290 297 299 301 302 303 305 307 308 310 312 314 316 318 321 325 325 324 325 327 329 327 332 335 333 333 332 334 336 337
296 294 293 297 294 291 294 292 293 293 291 283 282 287 298 298 301 301 302 304 305 307 307 309 310 313 315 318 318 323 322 322 324 325 326 328 329 330 335 333 331 332 335 337
297 295 288 291 298 300 297 295 294 287 286 290 289 288 301 302 301 303 303 305 306 308 309 309 310 311 312 313 314 316 321 320 320 320 321 324 325 328 332 334 333 333 331 333
298 292 286 286 293 297 293 294 296 295 295 288 283 288 302 302 302 304 303 304 307 308 309 310 310 310 311 312 314 313 316 315 315 317 318 322 326 328 328 331 334 333 332 332
298 293 289 283 287 291 287 290 293 293 289 288 289 291 297 298 298 302 302 304 306 308 309 312 311 311 312 314 314 313 313 314 314 314 315 317 324 326 328 330 331 332 334 331
297 289 291 291 293 293 291 292 293 291 292 288 291 291 295 299 300 302 301 303 306 307 308 309 309 311 312 312 313 313 313 313 315 313 314 315 320 324 325 324 326 329 331 333
298 290 292 290 293 293 291 293 294 293 293 292 292 292 299 302 303 303 303 303 304 305 306 307 309 310 310 312 312 311 311 312 313 312 311 315 317 319 321 323 325 328 330 332
294 292 289 285 291 291 287 292 294 295 295 294 290 295 300 299 300 302 303 304 303 304 305 307 308 309 311 311 312 311 311 312 312 311 312 311 314 316 318 320 322 323 327 331
293 292 291 286 289 280 291 297 296 294 296 296 297 298 300 301 302 303 304 303 304 305 305 307 308 310 313 312 312 312 311 311 309 311 311 311 311 314 316 318 320 323 327 330
298 292 288 284 285 289 292 296 294 292 292 300 298 298 300 301 301 300 304 306 305 306 306 307 309 309 310 310 310 309 308 309 309 308 310 311 311 311 316 316 319 324 328 329
297 296 290 288 282 280 292 298 301 299 288 300 299 298 298 299 293 298 303 304 304 306 307 306 308 309 310 309 310 309 308 308 308 309 310 312 311 309 312 317 319 323 327 329
290 290 286 286 285 288 297 299 301 287 290 300 300 299 298 296 297 302 304 304 306 306 306 307 306 306 308 309 308 306 307 307 309 310 311 312 311 310 312 319 321 322 325 327
290 288 287 289 285 283 300 298 290 297 301 301 300 299 298 299 300 300 301 301 302 303 304 305 304 305 307 305 305 305 304 306 307 310 311 312 313 313 316 319 320 323 325 326
290 294 291 291 292 302 301 299 303 304 301 299 300 300 300 299 297 298 297 298 299 299 300 301 301 301 303 303 304 303 306 308 308 310 311 312 314 316 316 318 320 321 324 326
296 299 294 294 296 297 298 301 302 302 301 302 301 301 299 297 295 295 296 296 297 298 297 299 299 299 300 303 303 304 306 308 309 308 310 312 314 314 317 318 320 322 325 327
296 296 291 292 296 295 297 297 299 299 301 301 301 299 297 295 295 295 294 295 295 296 297 298 297 298 299 302 303 305 307 307 306 308 310 312 313 315 317 318 319 324 328 328
295 290 287 287 293 292 294 297 299 299 300 300 299 297 296 296 294 294 294 294 294 294 294 294 295 296 298 300 302 305 307 308 309 308 310 312 313 314 317 319 313 300 307 303

GFSCGP_sfc_thetae_069.txt.gz
Theta_e
297 290 288 291 294 295 294 292 291 295 299 297 295 294 297 299 299 299 300 301 302 304 307 312 316 319 321 324 325 325 329 342 343 344 342 340 341 342 340 340 342 342 347 350
293 289 296 299 298 296 294 292 290 295 298 297 295 295 297 298 299 299 300 301 302 303 305 309 315 318 318 322 322 322 326 330 340 343 341 340 339 339 341 340 341 341 343 345
291 295 300 299 297 295 293 290 291 291 295 297 294 292 295 299 300 301 302 302 303 303 304 305 310 314 319 319 319 321 321 325 327 333 340 337 336 339 338 339 339 339 340 342
294 298 297 296 294 294 288 296 295 295 291 284 293 282 291 295 296 300 301 302 301 303 306 306 306 310 312 318 318 318 320 320 322 324 329 337 333 329 333 333 337 340 340 341
293 295 294 294 295 297 292 298 294 294 290 287 289 283 287 294 294 296 300 302 301 302 304 305 305 306 310 312 315 318 319 318 319 320 324 328 329 331 335 336 336 336 338 340
295 300 298 296 300 300 298 294 292 291 287 280 287 285 286 290 293 297 299 300 302 302 304 306 308 308 308 308 311 313 317 318 319 319 319 322 325 328 329 331 331 336 337 338
294 296 299 302 296 299 296 288 278 277 277 279 290 289 290 296 300 299 299 299 301 303 304 305 305 306 306 308 309 314 314 314 318 318 320 321 322 323 325 328 329 331 332 334
288 286 296 299 297 294 293 292 282 275 275 281 291 284 290 299 301 300 301 300 301 303 304 303 304 304 307 307 309 309 311 313 316 320 319 319 317 320 322 323 325 325 328 333
289 289 299 299 299 299 294 288 293 286 287 281 285 290 297 300 301 300 299 299 298 300 303 304 306 305 305 307 308 308 308 310 313 316 317 320 322 322 320 320 322 324 325 328
293 286 296 298 300 299 296 297 287 285 280 276 282 285 289 295 297 301 299 298 299 299 301 304 304 305 306 307 308 309 310 310 310 312 313 318 321 323 322 322 322 322 323 327
295 291 289 294 292 290 290 288 291 289 286 278 277 282 294 295 297 299 299 301 298 299 300 301 303 305 306 308 307 309 310 311 312 312 314 315 316 317 319 324 324 324 324 327
294 288 286 288 295 297 294 291 289 284 280 284 281 282 297 297 298 300 299 302 302 304 301 301 302 303 304 304 305 307 311 310 311 313 314 316 317 318 317 319 323 324 323 324
293 285 279 283 288 292 289 292 292 290 289 283 280 281 298 299 299 300 300 302 303 303 304 307 307 303 303 304 305 306 306 307 307 308 307 307 311 315 316 319 321 323 325 324
295 286 283 278 283 288 286 290 291 289 284 285 285 288 293 296 297 299 300 303 302 303 305 306 305 307 304 306 307 306 306 307 307 309 307 306 307 310 315 318 321 323 326 326
291 284 288 289 291 290 289 290 291 289 289 283 288 288 291 295 297 298 300 302 303 304 304 306 306 305 304 304 306 307 306 306 307 307 306 306 307 308 310 314 318 320 321 322
293 284 288 287 291 291 289 292 292 291 291 290 291 290 295 296 299 299 300 302 303 303 305 305 305 304 303 305 306 307 305 305 306 306 306 307 308 309 309 311 315 317 318 320
288 285 283 280 289 288 283 290 291 292 294 291 286 291 296 296 298 297 300 302 302 303 304 304 303 303 303 304 306 305 306 306 305 305 307 308 308 309 309 310 314 314 315 318
287 286 285 280 284 276 289 294 294 293 294 296 296 296 297 296 299 299 299 299 298 299 299 300 301 302 303 305 303 304 305 305 306 305 306 307 308 308 308 308 309 311 311 313
292 288 282 276 277 286 291 295 293 291 290 296 294 295 296 296 297 295 300 300 299 299 301 301 302 302 302 302 304 304 304 304 304 305 306 307 307 306 307 307 307 308 311 314
295 293 284 281 277 272 289 296 298 296 283 295 296 295 294 295 288 291 297 299 298 299 299 299 301 302 303 303 304 303 303 303 303 305 306 307 307 306 306 307 307 308 313 316
285 288 282 282 278 285 295 297 298 280 284 295 296 295 294 292 294 297 299 298 299 298 298 299 300 300 301 303 303 303 303 302 305 306 307 307 307 307 307 307 307 307 310 314
286 284 281 286 280 277 297 295 286 291 295 295 295 296 295 297 298 296 296 296 296 297 298 299 298 298 300 301 302 302 301 303 305 306 307 306 306 307 309 307 307 308 312 312
285 289 282 285 284 293 295 293 295 296 295 296 296 298 298 298 295 295 295 296 296 297 298 298 298 298 299 301 302 301 302 304 305 305 306 306 307 308 309 308 309 309 312 312
294 295 285 287 292 290 294 296 296 297 296 299 299 298 297 295 295 294 294 294 295 295 295 296 296 296 297 299 299 301 303 304 304 303 305 306 307 308 309 310 311 310 312 313
291 292 287 287 291 291 295 294 295 296 299 300 300 298 296 295 295 294 292 292 293 294 294 294 294 295 296 299 299 300 302 303 302 303 304 307 307 307 308 309 310 312 313 314
292 287 284 283 290 290 291 294 296 297 298 299 298 296 296 296 294 293 290 291 291 290 291 291 292 293 295 296 296 299 302 303 302 303 304 305 306 307 309 309 308 297 298 300

GFSCGP_sfc_thetae_072.txt.gz
Theta_e
295 288 286 289 291 292 291 289 288 292 296 293 292 292 295 299 297 296 296 299 300 302 305 311 317 319 318 318 318 322 333 338 341 341 337 336 341 341 342 341 344 347 345 345
291 287 294 296 295 294 292 290 289 292 296 293 292 292 294 297 297 297 298 298 298 298 302 311 314 317 319 318 318 321 325 330 338 341 339 336 336 338 340 341 341 341 346 348
289 292 298 296 294 293 292 290 288 289 294 294 291 289 291 296 298 298 299 300 300 300 300 308 313 314 317 316 315 317 319 322 324 330 337 335 334 335 335 337 339 340 340 344
291 296 295 294 292 293 287 294 293 293 288 282 293 281 288 293 294 296 297 297 298 300 302 306 310 311 315 314 315 316 317 317 318 320 324 332 329 326 329 333 336 337 339 339
291 293 292 291 293 298 292 296 293 292 287 283 287 282 287 291 291 293 296 297 298 300 303 302 307 313 314 314 313 314 315 315 315 316 321 323 324 328 331 332 331 333 338 339
293 298 296 295 299 299 299 293 290 288 284 278 285 283 285 287 290 292 296 300 300 300 301 303 309 309 309 312 313 314 314 314 315 316 315 317 319 321 325 326 327 332 335 335
294 295 298 301 296 298 297 290 281 277 277 279 287 285 287 293 297 298 299 299 299 301 303 304 306 305 304 307 309 311 313 312 314 315 315 316 317 317 318 321 324 327 330 330
287 284 295 300 297 293 291 289 280 277 274 280 289 283 287 297 300 301 302 298 299 302 303 304 304 304 304 306 306 310 310 310 312 313 313 314 315 314 317 319 320 321 323 327
288 288 297 299 300 298 292 286 291 285 286 282 284 287 293 297 298 300 301 300 297 300 301 303 302 302 304 303 307 309 310 310 311 314 316 315 315 315 316 318 317 319 323 325
292 284 294 297 299 298 296 296 283 287 279 278 281 283 284 292 295 298 299 299 300 301 301 302 302 302 303 304 307 306 307 307 308 311 313 314 315 319 319 317 318 318 319 321
291 287 288 291 291 289 291 288 288 287 287 280 277 280 292 293 295 298 300 301 299 301 302 302 301 302 302 303 304 305 305 306 306 307 307 308 310 313 315 318 320 319 319 321
291 286 281 285 292 297 294 290 289 282 281 285 282 281 295 294 296 298 299 302 302 301 301 302 304 304 303 301 303 306 306 307 308 308 309 311 312 313 313 313 315 320 321 322
292 283 277 280 286 291 289 291 290 288 287 282 280 281 295 297 298 298 299 302 303 303 304 304 303 303 304 303 304 305 308 309 310 310 310 308 309 309 309 311 313 316 320 321
295 283 281 278 282 285 284 289 291 287 281 284 285 287 292 294 295 297 298 300 301 303 304 305 305 304 305 306 305 306 306 304 304 305 304 304 304 305 307 308 310 314 317 319
289 283 286 288 290 290 288 289 290 288 288 283 286 288 290 292 294 295 298 300 302 302 303 305 305 305 305 305 305 306 304 305 305 306 305 304 305 305 305 305 306 309 313 315
289 282 286 285 289 290 286 290 291 291 291 290 290 287 294 295 297 297 297 299 299 301 303 305 305 305 304 304 306 307 305 304 304 304 304 306 306 306 306 305 306 306 307 310
285 282 281 279 287 286 281 288 290 290 292 290 284 291 296 293 294 294 296 297 297 299 299 299 299 300 300 302 303 304 306 306 304 304 305 306 306 306 306 307 307 306 306 311
285 284 282 278 281 275 289 294 293 292 293 293 292 293 295 294 295 296 296 295 295 296 297 298 298 299 300 301 302 304 305 305 305 304 304 306 306 306 306 305 306 306 305 307
289 285 280 275 275 283 289 293 292 290 289 293 291 292 294 295 295 294 296 296 296 298 298 299 300 299 300 300 301 302 302 303 304 304 304 305 306 305 305 305 305 306 304 307
292 291 285 282 278 270 288 294 297 295 282 293 292 291 291 293 287 290 296 298 299 299 298 298 299 300 299 299 300 300 300 302 303 304 304 305 305 304 304 305 304 305 305 306
285 283 278 282 276 281 293 295 295 279 281 292 293 293 294 292 293 296 298 299 300 298 298 298 299 298 299 300 299 298 300 300 303 305 306 305 305 304 305 305 304 304 305 305
286 282 278 285 281 277 295 292 284 289 292 293 294 294 294 295 297 298 297 296 296 297 297 297 297 298 299 300 299 298 298 301 303 305 305 304 304 305 306 305 304 305 305 303
281 287 281 285 282 291 293 292 293 293 292 294 294 296 297 297 296 296 294 295 295 296 296 296 295 296 298 299 300 298 300 301 303 304 302 303 304 305 306 304 304 304 305 304
291 292 282 285 289 289 291 294 294 294 294 296 297 298 298 297 295 294 293 293 294 294 294 294 293 292 294 297 298 299 300 301 302 302 302 303 304 304 305 308 307 306 306 307
288 289 285 284 289 290 292 293 294 295 296 297 298 298 298 296 294 293 292 291 291 291 291 291 290 291 292 294 296 298 300 300 300 302 302 302 304 305 305 306 307 308 309 309
289 285 278 279 287 288 290 294 296 295 295 297 298 298 296 295 293 292 290 291 291 290 290 290 291 290 290 292 293 296 299 300 299 300 302 302 303 305 305 305 306 298 299 299

GFSCGP_sfc_thetae_075.txt.gz
Theta_e
293 288 285 288 289 290 289 287 286 290 294 290 291 292 293 295 295 295 296 295 298 300 303 306 313 316 317 319 323 328 334 338 341 340 338 338 337 337 339 341 341 341 341 342
289 286 292 293 293 291 290 287 287 291 294 290 290 290 293 294 295 295 295 295 297 298 299 309 314 315 315 315 317 324 332 335 338 339 338 336 335 336 339 339 341 345 343 341
287 291 296 294 292 290 289 287 288 288 292 292 289 287 290 294 296 297 297 296 297 298 299 305 312 314 314 313 316 322 326 328 329 334 335 332 332 333 333 334 335 337 343 346
290 295 293 292 290 292 286 293 292 290 287 282 290 281 288 290 292 294 295 295 296 298 299 301 311 311 313 314 313 317 320 319 320 326 330 331 330 327 329 330 334 334 338 338
290 291 291 290 291 296 292 296 291 290 286 282 285 280 285 289 289 292 294 296 296 296 298 299 307 313 314 312 311 313 314 313 314 317 319 323 324 328 329 329 329 329 333 336
292 298 294 293 298 298 298 293 290 286 283 277 284 282 284 288 289 291 295 299 300 300 299 299 303 311 311 311 310 311 311 311 312 313 317 319 319 318 322 323 325 326 329 331
292 293 297 299 293 296 294 289 279 277 277 279 285 282 286 290 294 296 297 298 298 299 300 298 305 309 311 309 309 311 310 310 312 313 312 313 314 315 316 317 319 321 324 327
285 284 293 299 295 291 290 289 280 277 277 279 287 281 286 294 298 298 299 297 297 297 297 300 306 310 311 309 309 310 309 308 311 312 312 313 313 313 314 315 318 318 319 323
286 287 296 298 299 296 290 285 293 284 284 280 281 286 292 296 296 298 298 298 297 297 299 299 300 301 305 307 307 309 309 307 310 312 311 311 311 311 312 313 314 316 318 323
290 283 292 295 297 297 292 294 285 286 277 276 280 282 284 290 293 296 296 295 297 299 300 300 300 301 301 301 306 306 309 308 309 309 311 313 313 313 313 313 314 314 316 317
290 286 286 289 288 287 287 288 290 288 285 276 274 280 292 293 295 295 296 298 297 299 300 301 302 302 301 300 301 304 305 306 305 308 310 312 312 312 315 315 314 314 315 315
291 286 281 284 290 293 292 289 290 282 281 285 282 280 296 296 296 295 296 299 301 300 302 301 302 303 303 300 300 302 303 302 304 306 305 306 306 308 309 310 311 313 315 317
291 282 277 279 283 288 287 290 290 288 286 281 277 280 296 297 297 295 295 298 301 303 304 304 302 302 303 304 303 302 304 305 305 305 305 305 307 308 309 310 309 311 313 315
294 282 281 276 281 283 283 287 289 288 282 281 284 286 291 293 294 295 295 297 299 300 302 304 304 304 304 305 305 304 303 303 304 304 304 305 305 306 306 307 307 308 310 312
287 282 283 285 287 288 287 287 288 285 287 283 286 286 290 293 293 295 295 297 298 300 302 303 304 304 304 305 304 304 303 303 304 304 303 303 303 304 304 305 305 306 307 308
287 282 284 284 288 287 286 288 290 290 291 290 289 288 293 295 294 294 294 295 296 297 298 300 303 301 299 300 303 303 303 304 305 304 304 305 305 304 304 304 304 304 304 305
284 282 280 279 286 285 281 287 289 290 291 290 283 288 292 292 293 293 293 295 296 297 298 297 297 298 298 299 300 300 301 303 303 303 304 305 305 305 305 305 304 303 302 303
283 282 281 278 281 275 286 295 293 291 292 292 291 291 293 293 294 295 296 295 295 296 296 297 297 298 299 299 299 300 300 302 303 303 305 305 305 305 304 304 303 302 302 302
287 284 283 276 275 282 288 293 292 289 287 292 291 292 292 293 293 292 295 296 294 294 297 299 300 300 300 299 300 299 299 300 300 301 304 304 305 304 304 304 303 302 301 301
290 290 285 280 278 271 284 293 295 293 282 292 291 290 290 291 286 289 294 297 297 298 299 300 300 300 299 299 300 298 298 299 298 299 301 304 305 305 304 304 303 303 301 303
283 281 278 281 280 280 290 293 295 279 281 290 291 291 291 290 292 295 298 298 299 300 299 299 297 297 298 299 299 297 298 297 299 300 301 302 304 305 305 304 303 302 301 303
282 282 281 283 278 275 293 291 283 287 290 292 292 293 293 294 296 296 298 297 296 297 297 297 296 296 298 299 298 297 296 299 301 301 301 301 303 304 305 302 302 301 301 301
283 287 280 283 280 288 290 290 292 293 291 292 293 295 295 295 296 297 295 295 295 294 295 296 294 294 295 297 298 296 296 300 300 300 300 300 302 303 304 303 301 301 301 302
292 290 281 285 287 288 290 292 293 294 293 295 295 296 297 295 296 294 294 293 292 293 292 293 293 292 292 294 295 296 296 299 300 299 300 301 302 303 303 303 303 303 302 302
287 287 284 284 286 289 291 292 292 294 295 296 297 297 297 296 295 293 291 291 291 291 291 291 291 291 290 291 292 294 296 298 298 299 301 301 303 303 303 304 304 304 305 304
289 284 278 279 285 288 289 291 294 294 294 295 295 296 297 296 293 291 290 291 290 289 290 291 292 294 295 297 292 293 296 297 298 298 299 300 301 302 304 304 304 296 299 298

GFSCGP_sfc_thetae_078.txt.gz
Theta_e
291 288 284 287 288 289 287 285 284 288 293 288 289 290 292 294 293 293 295 294 295 297 302 303 305 310 316 321 326 331 335 336 337 337 338 336 335 338 338 340 341 340 340 342
288 285 290 292 290 289 288 285 285 289 292 289 289 289 291 292 293 294 294 295 295 295 298 301 308 312 316 321 324 328 334 335 336 339 340 339 337 336 337 339 340 341 341 341
287 290 294 292 290 289 287 285 286 286 290 290 288 287 289 292 294 296 296 296 296 296 297 299 307 312 313 316 319 326 332 336 337 337 334 333 334 335 334 337 338 340 342 343
289 292 292 289 289 289 285 291 291 290 286 281 288 281 288 289 291 293 295 294 294 295 297 298 301 310 312 313 315 322 328 330 333 336 335 333 331 329 334 336 339 338 340 341
289 290 289 288 289 294 290 295 292 289 285 281 283 280 285 288 287 290 293 296 295 297 298 299 299 306 312 313 312 318 322 322 324 330 334 332 327 329 330 332 332 333 335 337
290 295 292 291 295 296 297 292 290 285 282 278 285 283 285 288 288 290 293 295 299 299 299 298 300 302 310 311 311 313 315 314 315 317 319 323 325 325 325 326 328 329 332 334
289 290 295 298 292 295 293 287 280 277 276 279 285 281 286 290 292 292 293 296 297 297 297 299 296 298 306 309 310 310 310 310 311 314 317 318 319 319 320 321 322 324 327 331
283 282 292 297 293 289 289 287 279 274 276 279 286 282 285 293 296 297 298 297 298 298 297 298 299 300 305 310 311 312 309 309 311 312 313 313 314 315 316 317 318 320 323 326
284 286 295 297 297 294 288 284 288 278 282 280 281 285 290 294 295 297 297 298 297 297 298 298 300 300 306 308 310 310 308 309 311 312 312 313 314 314 314 315 317 317 319 322
287 282 291 294 296 295 290 293 279 284 277 277 279 281 282 289 292 295 296 295 296 298 299 300 301 300 301 303 304 307 308 308 310 311 311 312 312 313 313 313 315 316 318 321
289 285 284 288 287 285 285 284 286 288 285 279 277 279 291 291 293 295 295 296 296 297 299 300 302 303 303 301 303 305 306 306 307 309 310 312 312 314 314 315 316 316 317 318
290 285 281 284 288 291 287 285 285 277 276 282 282 281 294 293 293 295 296 297 298 298 299 301 304 304 305 304 303 302 304 305 305 306 309 311 313 313 313 315 316 316 317 318
291 282 278 280 282 286 285 288 287 285 285 281 278 278 293 294 295 297 295 297 297 299 300 302 302 302 304 304 305 304 304 304 306 306 306 307 307 307 309 310 312 313 315 317
294 282 281 277 280 282 282 285 287 284 279 280 281 284 289 292 293 294 295 296 295 297 298 299 300 303 305 306 306 305 304 304 306 306 306 306 306 307 308 310 311 312 314 314
287 282 282 283 285 285 285 286 286 283 285 282 284 284 288 292 292 293 294 295 296 296 296 297 298 299 302 302 303 304 304 305 305 305 305 306 308 308 308 308 309 310 310 311
286 282 284 283 287 287 284 286 287 288 289 287 287 286 292 293 293 293 293 294 294 295 296 297 298 299 299 300 300 301 302 303 304 304 304 306 306 306 307 307 307 307 307 308
283 282 280 278 284 283 279 285 287 288 289 288 284 287 291 290 291 291 292 294 294 295 296 297 298 298 299 299 300 299 301 302 302 303 304 305 306 306 306 307 306 305 305 306
282 281 280 277 280 274 284 292 292 289 291 292 291 291 291 292 292 293 294 294 294 295 296 297 297 298 300 301 300 300 300 300 301 301 302 304 305 305 306 306 306 305 305 305
285 284 283 276 275 281 284 291 290 286 285 290 288 289 292 292 292 291 294 295 295 296 297 298 299 300 300 301 302 301 300 300 300 300 300 302 303 305 305 305 305 305 304 304
287 290 285 280 274 270 282 293 294 291 282 291 290 289 289 290 285 289 295 297 298 299 299 300 300 300 300 301 302 300 298 298 298 299 300 301 302 304 305 305 306 305 305 305
283 285 282 281 278 280 288 292 293 280 281 289 290 290 290 289 291 295 297 297 299 299 300 300 299 298 299 300 300 298 298 297 299 300 301 301 301 302 304 305 306 305 305 306
282 276 276 283 277 273 292 290 283 286 290 291 292 292 292 293 295 296 297 297 296 296 296 297 296 295 297 297 297 296 295 298 300 300 300 300 301 301 302 302 305 305 304 303
282 284 279 282 280 287 290 289 291 291 291 292 293 294 294 294 294 295 294 295 295 294 294 294 294 293 294 295 295 293 295 298 298 299 299 299 300 301 303 302 303 302 302 303
291 291 280 284 286 286 289 291 291 292 292 293 295 295 295 293 294 294 295 294 293 292 291 292 290 289 290 292 294 294 295 296 297 298 298 299 299 300 301 303 304 302 302 302
287 287 284 284 285 288 289 291 292 293 294 294 295 295 294 295 294 293 293 293 291 290 290 290 290 290 291 294 295 296 293 294 294 296 297 297 299 299 300 302 303 303 305 304
287 286 280 279 284 286 288 293 295 293 293 294 293 293 295 295 292 293 293 292 290 288 290 291 292 292 294 296 294 295 294 294 295 295 295 298 299 300 302 302 303 297 299 297

GFSCGP_sfc_thetae_081.txt.gz
Theta_e
298 296 293 296 296 295 293 291 291 295 298 295 296 297 299 302 302 303 304 306 306 307 311 311 313 314 319 326 336 346 347 350 349 346 345 345 345 348 348 348 351 351 351 353
296 293 298 297 295 294 293 292 292 295 297 296 297 296 300 301 302 303 304 305 307 308 310 312 313 315 319 324 331 340 347 349 348 346 348 346 346 347 346 347 348 350 350 350
294 295 297 295 294 293 294 292 293 292 296 298 296 294 297 300 302 303 305 306 307 308 308 310 313 314 320 323 329 335 344 348 347 348 348 348 346 346 344 345 345 347 348 347
295 298 296 294 293 295 291 296 295 294 294 289 296 287 295 298 300 301 303 305 306 308 309 309 313 314 318 323 326 331 338 344 345 347 346 344 341 340 342 343 344 345 346 346
295 294 294 294 295 296 294 298 297 296 294 292 292 289 293 298 296 299 302 304 306 307 308 310 311 313 315 320 326 329 337 342 346 347 349 345 345 346 346 345 346 349 348 348
296 299 297 297 298 299 300 297 297 294 293 285 291 290 290 294 297 299 301 303 304 307 309 310 312 313 313 316 323 327 333 340 345 346 347 347 346 345 342 344 343 344 346 347
295 295 299 301 296 299 298 294 286 284 285 283 291 289 291 297 299 300 301 303 306 308 309 309 310 312 313 313 318 324 327 334 337 343 346 347 346 345 344 344 342 343 342 343
289 287 296 300 297 294 295 292 285 278 280 283 290 285 290 299 302 303 304 305 306 308 309 309 310 311 313 314 313 320 324 329 332 332 334 335 336 335 337 340 337 338 339 341
290 289 298 299 300 298 293 290 295 288 288 283 286 290 296 299 301 302 303 304 305 306 308 310 312 312 312 316 316 318 321 326 325 325 327 328 330 330 329 333 334 332 335 335
293 287 293 296 300 299 296 298 287 289 278 277 284 286 288 294 297 300 301 302 304 306 307 309 310 312 313 313 317 318 320 321 323 323 325 324 327 328 329 329 330 331 332 332
296 291 289 293 292 290 293 291 292 290 285 280 279 285 296 296 298 298 300 302 302 303 305 307 309 312 314 315 314 317 318 316 316 321 323 324 326 327 327 327 329 329 330 330
296 293 287 289 293 294 293 291 291 285 282 286 285 284 297 300 299 300 301 302 303 303 304 305 307 309 311 312 315 315 317 319 318 317 318 321 324 325 326 326 328 329 328 330
296 290 284 285 290 292 291 293 293 291 289 284 281 284 298 300 299 300 301 302 302 302 303 304 305 305 307 309 311 313 313 314 314 316 317 320 321 323 325 327 329 329 329 328
299 291 288 283 286 290 287 290 292 291 285 285 285 287 293 296 297 300 301 301 301 302 303 303 303 304 305 308 309 309 309 310 311 312 313 316 321 322 324 326 326 326 326 325
295 289 290 290 291 290 289 289 290 288 289 284 288 289 294 297 298 299 300 301 300 300 301 301 301 303 305 306 307 307 309 310 309 309 310 312 316 319 321 320 322 323 324 325
293 289 290 287 290 290 287 289 290 290 290 290 291 291 297 299 300 299 299 299 299 299 299 300 302 303 304 305 305 306 306 306 307 306 307 309 310 313 316 318 319 321 322 322
291 290 286 282 287 288 284 289 290 290 293 293 288 294 298 297 297 297 297 298 297 298 299 300 301 302 304 305 306 306 307 308 307 307 307 308 308 310 312 314 317 319 320 321
290 289 288 283 287 279 289 296 295 293 294 296 296 296 296 296 297 297 299 298 298 298 299 300 301 304 306 306 305 307 307 306 306 306 306 307 308 308 310 311 313 317 318 319
293 290 286 283 283 287 289 292 292 290 291 296 293 295 296 296 296 295 299 300 299 300 301 303 303 304 306 305 307 307 306 305 304 305 306 306 307 308 308 310 312 314 316 316
291 292 289 285 281 279 287 295 297 296 287 295 294 293 293 293 286 291 298 299 299 300 300 302 302 303 302 301 303 301 301 303 303 304 306 307 307 307 307 310 312 313 314 314
287 287 284 285 284 288 293 295 297 285 287 294 294 294 293 290 293 296 298 297 298 299 299 300 299 298 298 300 300 298 299 298 302 304 306 308 308 307 308 310 312 313 312 313
288 287 286 286 284 281 296 296 289 293 295 295 295 294 292 294 295 295 296 296 296 296 295 296 296 295 295 296 295 294 294 298 299 300 301 303 307 306 306 309 310 312 313 312
287 292 289 290 290 294 297 295 297 297 294 293 293 294 295 294 294 294 294 294 294 294 294 296 294 292 293 294 294 292 293 295 296 297 298 300 303 303 307 308 308 308 311 309
295 295 293 291 293 294 296 296 297 296 294 295 295 296 296 293 294 293 293 293 293 293 292 293 292 291 291 293 294 294 294 295 295 295 295 298 299 300 302 304 306 305 305 307
294 295 291 292 294 295 294 297 296 295 296 295 296 295 295 295 293 292 291 292 291 291 291 292 292 292 292 294 295 298 297 295 294 294 294 296 298 300 300 301 303 305 309 309
296 293 292 291 292 292 293 296 296 294 294 295 294 294 295 294 292 292 290 291 290 289 291 291 292 292 293 295 297 295 295 294 296 293 294 296 298 298 300 301 302 297 299 297

GFSCGP_sfc_thetae_087.txt.gz
Theta_e
307 302 299 302 303 303 301 300 299 302 304 302 302 303 305 308 309 309 310 311 312 313 316 318 319 321 322 327 332 341 344 346 359 356 354 355 352 356 357 357 360 359 358 357
303 299 304 305 304 301 301 299 298 302 304 303 302 302 306 308 309 310 310 311 312 313 314 316 318 320 322 328 334 335 337 348 354 357 357 357 356 357 357 358 359 360 360 359
300 303 304 302 301 299 299 298 299 299 302 304 302 301 304 309 310 310 311 312 313 313 313 315 316 319 320 322 331 332 341 343 348 359 357 359 359 357 353 354 356 356 357 357
302 305 301 300 299 301 297 303 301 299 299 295 304 293 302 306 307 308 310 311 312 313 314 315 316 318 321 322 325 331 336 342 342 349 353 355 350 349 352 353 353 356 358 356
300 301 301 299 301 303 300 304 301 301 299 299 299 297 301 306 303 305 307 309 311 312 313 315 316 318 320 322 324 330 336 338 342 347 353 351 353 351 351 353 355 357 357 357
303 306 304 303 304 303 304 302 302 302 300 293 298 298 298 302 302 304 307 309 310 312 314 316 317 319 319 321 322 324 331 336 340 342 345 352 351 352 348 351 349 351 352 356
300 301 305 306 301 305 303 300 293 292 291 291 299 295 298 302 304 305 305 308 311 313 313 314 315 316 317 319 321 323 324 329 333 338 342 348 351 354 351 351 349 349 350 351
293 293 302 304 302 300 300 300 294 286 288 292 299 292 298 303 306 307 307 309 311 311 312 313 314 316 317 319 321 322 323 326 329 332 339 347 350 351 353 352 348 349 346 351
293 293 302 303 304 302 298 295 301 295 295 290 293 297 302 304 304 305 306 306 307 309 311 312 313 315 316 317 320 321 323 323 328 329 336 346 348 348 348 353 350 350 350 342
299 292 301 302 303 303 300 302 294 295 285 285 290 292 293 299 300 303 303 305 306 308 309 312 313 314 316 317 318 320 322 323 325 329 330 334 342 347 349 351 343 343 345 349
300 297 297 299 297 296 297 296 296 296 294 286 285 290 300 300 302 302 304 306 307 308 309 311 312 314 315 316 316 318 319 321 322 325 328 332 335 340 342 338 334 340 346 347
302 298 293 294 302 301 299 296 297 291 290 292 291 290 303 302 303 304 304 306 308 309 310 311 311 313 313 314 314 315 317 318 321 322 325 328 331 334 337 336 330 337 338 340
301 296 289 291 296 300 296 296 297 297 296 290 288 290 303 303 303 304 304 306 307 309 309 309 311 311 311 312 312 313 314 315 317 319 320 322 327 330 333 332 336 334 335 334
303 298 294 289 292 297 294 295 297 296 291 292 292 294 299 301 301 303 305 307 307 308 308 309 310 310 310 311 311 311 312 314 315 316 318 320 321 327 330 332 331 330 330 330
299 294 296 296 297 297 295 294 295 294 295 291 294 294 298 300 302 304 306 306 306 306 307 307 307 308 309 310 311 311 312 313 314 314 314 317 321 321 324 328 330 330 330 328
300 293 295 292 296 295 293 295 295 295 296 295 295 295 302 304 305 304 305 305 304 304 305 306 307 307 308 309 309 311 311 311 313 312 312 315 315 319 319 321 326 329 328 327
296 294 292 287 293 294 289 293 295 295 297 297 293 298 303 302 303 303 303 303 303 303 304 304 304 305 307 307 308 307 308 309 309 309 312 312 314 314 318 318 319 325 332 336
295 294 293 290 291 283 294 301 299 297 298 300 300 301 303 303 303 304 305 303 302 302 302 302 302 303 303 304 304 304 304 304 305 304 307 310 312 313 315 315 314 323 329 332
300 294 289 287 286 291 294 298 298 296 296 301 301 301 302 303 303 301 304 303 301 302 301 301 301 300 300 300 300 302 300 302 299 301 303 306 309 311 313 314 312 320 320 328
298 298 292 289 285 283 295 299 302 301 291 302 301 300 300 300 293 297 302 301 301 302 300 299 299 299 298 299 300 299 298 298 299 298 300 304 305 307 306 315 316 314 319 318
293 293 288 288 287 291 300 302 303 290 293 303 302 301 301 298 300 301 302 301 301 299 298 299 298 296 297 297 296 295 296 295 298 300 302 302 303 306 306 306 317 317 314 316
291 289 289 290 287 285 302 301 294 301 304 303 303 302 301 301 301 299 301 300 299 296 296 296 294 294 295 296 294 292 293 296 297 298 298 299 302 301 302 305 306 316 317 311
291 296 293 294 295 303 305 303 306 305 303 303 302 303 302 300 300 300 300 298 296 294 294 294 292 292 293 295 295 293 294 295 295 296 295 296 298 300 300 300 304 308 317 315
297 302 298 297 299 300 302 305 305 306 303 303 303 303 302 300 300 300 299 295 293 293 291 292 292 291 291 294 294 295 296 296 296 295 294 295 295 296 299 300 302 307 311 315
297 300 297 298 300 301 302 303 304 304 304 302 303 302 301 300 300 298 295 294 292 291 290 291 291 291 292 294 295 298 299 299 296 296 295 296 295 295 296 298 300 302 311 313
298 297 295 295 301 301 302 304 305 302 301 303 302 301 302 300 300 298 294 293 291 290 291 290 291 290 292 294 296 300 301 300 297 296 295 294 295 295 296 297 299 297 296 295

GFSCGP_sfc_thetae_090.txt.gz
Theta_e
306 300 298 301 303 302 302 300 299 302 305 302 302 302 304 307 308 308 309 311 312 314 318 321 324 326 329 330 338 338 339 344 343 353 353 354 354 354 354 355 353 351 352 352
303 298 303 305 304 302 301 298 298 302 304 303 302 301 305 307 308 309 311 311 312 314 316 319 323 334 332 332 336 341 343 345 348 347 352 354 354 355 353 355 354 354 352 350
300 303 305 303 301 299 300 298 298 298 302 304 302 299 302 307 309 311 312 313 312 314 316 319 321 325 329 329 331 333 339 344 348 348 340 350 355 355 352 352 352 352 353 351
302 305 302 301 299 300 296 302 301 300 298 293 302 292 301 305 306 309 310 312 311 313 315 316 318 321 324 325 329 335 339 342 336 342 342 338 342 345 348 350 352 353 352 353
300 301 301 299 300 303 299 304 302 300 298 298 298 294 299 305 304 306 308 309 310 312 314 315 317 320 322 326 330 335 337 335 336 337 341 336 335 342 348 351 349 350 352 351
301 306 304 303 304 304 305 301 301 301 298 291 296 296 297 301 302 304 307 308 310 311 313 314 317 321 322 323 322 328 332 335 335 333 334 335 339 337 343 345 346 347 349 351
299 300 304 305 300 304 303 299 291 290 291 290 300 296 299 303 304 305 305 307 309 311 312 313 314 315 318 319 323 322 324 328 334 333 331 332 333 339 342 343 345 345 345 347
294 292 301 305 302 299 300 299 292 286 288 291 298 292 298 304 306 308 308 309 310 310 310 312 314 316 314 318 321 321 323 324 327 328 329 331 333 336 340 344 344 343 343 345
295 294 303 304 305 302 298 294 301 294 295 291 294 297 302 304 304 306 306 307 307 309 309 310 312 315 316 318 320 322 321 323 324 327 327 330 331 333 338 343 345 344 345 343
299 293 301 304 304 303 300 302 293 294 285 284 290 292 293 299 301 303 303 304 306 308 309 311 313 315 318 319 319 323 324 323 324 326 325 325 328 333 336 340 341 342 344 336
302 298 297 301 298 295 296 295 296 296 294 286 284 289 301 300 301 301 303 304 306 307 308 310 311 313 315 316 316 319 321 320 319 320 323 325 326 328 330 334 338 340 324 318
302 298 293 296 303 303 300 296 298 291 289 292 291 290 304 304 303 304 303 305 306 308 309 309 311 313 313 313 314 315 318 317 316 318 318 323 324 325 327 329 333 324 321 318
302 296 290 292 297 301 297 297 297 297 297 291 288 290 302 303 304 305 304 305 306 308 308 310 311 311 312 312 312 312 313 313 314 315 315 317 323 323 323 327 330 322 324 317
302 298 294 289 293 297 294 297 297 295 291 290 291 293 299 302 302 303 305 306 307 308 308 309 309 309 310 312 312 312 312 313 314 314 314 315 318 322 322 323 321 323 324 327
301 293 295 296 297 297 296 296 296 294 294 290 293 294 297 300 302 304 306 306 305 305 305 307 307 308 309 309 309 309 309 309 310 311 311 311 314 317 319 320 323 319 324 327
302 293 295 293 296 296 294 296 297 296 295 295 295 294 301 303 304 304 304 303 303 304 304 305 306 306 305 306 305 305 304 304 306 306 306 309 311 311 313 318 319 323 319 325
296 295 292 288 294 294 289 294 295 296 297 296 292 297 302 302 302 302 303 304 302 302 303 303 304 304 304 303 304 302 303 303 303 302 303 305 307 309 309 313 317 318 320 322
296 294 293 288 291 283 295 300 300 298 299 299 299 301 302 301 302 303 303 303 302 302 302 302 302 302 301 301 301 301 301 300 301 300 302 302 303 306 307 308 312 317 320 321
299 294 290 287 287 291 294 298 297 296 296 302 300 301 301 302 302 301 305 304 303 303 303 302 302 300 299 299 299 299 299 298 298 299 300 301 303 302 303 306 308 315 317 320
298 297 291 288 284 282 295 300 303 301 290 302 301 300 299 300 293 297 303 303 303 303 302 299 298 297 297 296 297 296 296 296 295 297 299 301 302 301 302 305 307 309 315 316
291 291 288 288 285 290 300 302 303 289 292 302 302 301 300 297 299 302 304 304 302 301 299 298 296 294 294 295 295 293 293 293 295 296 297 298 299 301 301 301 303 306 310 315
292 290 290 290 286 284 303 301 294 301 304 303 302 301 300 300 301 302 302 301 300 298 296 296 293 292 293 294 294 293 293 295 296 296 296 296 296 298 301 302 302 302 305 310
291 296 292 293 293 303 305 304 306 305 303 303 302 302 301 300 300 301 300 300 297 296 294 294 292 291 293 294 294 292 294 296 296 296 296 295 296 297 297 298 300 299 301 304
299 302 295 295 299 300 304 306 305 305 304 304 303 302 301 300 300 299 299 298 295 294 292 292 291 290 290 292 293 294 296 298 298 298 297 296 296 295 296 297 300 299 299 302
297 299 297 296 300 302 302 304 305 304 304 302 303 302 300 301 299 298 297 295 293 292 291 291 290 290 290 292 293 296 299 299 299 298 297 297 296 296 295 296 297 299 301 302
299 297 295 294 301 300 301 304 304 302 301 302 301 300 302 301 298 298 296 294 292 291 290 289 289 289 290 292 293 296 299 301 300 299 297 295 295 295 295 295 296 295 297 295

GFSCGP_sfc_thetae_093.txt.gz
Theta_e
300 292 290 294 297 298 296 294 293 297 300 298 296 295 298 301 301 301 302 303 304 306 308 310 314 314 314 317 315 317 318 321 326 329 335 345 343 347 347 349 348 344 347 345
296 291 298 302 301 299 297 294 293 297 301 296 296 295 299 300 301 302 302 303 304 304 307 310 312 316 317 317 320 324 324 329 332 333 334 340 344 348 350 350 349 348 346 348
294 298 303 301 298 298 295 293 294 294 298 298 296 293 296 301 303 304 305 305 305 305 307 310 313 314 314 315 317 320 324 325 325 326 331 325 334 342 342 344 346 348 348 348
297 302 301 298 297 297 291 299 298 297 294 287 297 284 294 298 300 303 303 303 304 306 308 309 309 310 311 314 317 321 320 320 321 324 323 322 323 325 330 340 344 347 349 348
296 298 298 296 297 299 295 301 299 297 292 290 292 287 291 297 298 300 301 304 304 305 306 307 308 311 313 314 313 318 319 317 323 320 321 322 321 324 327 333 338 342 345 348
298 303 301 300 302 301 303 298 297 295 290 283 291 289 290 295 298 299 301 303 305 306 307 307 309 310 310 312 313 313 313 316 320 321 320 320 319 321 323 326 329 336 342 344
296 297 301 303 299 300 298 291 283 282 282 283 295 292 292 300 301 302 300 303 304 305 304 305 303 306 307 310 311 312 312 313 317 319 320 320 320 321 322 324 327 331 338 340
290 289 299 304 301 296 296 294 288 280 281 285 295 289 296 301 303 303 304 303 304 302 302 303 303 305 306 306 308 310 309 311 314 314 317 317 318 322 323 325 328 330 334 340
291 292 303 303 304 300 295 291 296 288 290 284 288 293 299 302 301 302 302 302 301 303 303 303 303 303 307 307 309 310 310 310 313 314 316 314 317 318 320 324 327 329 333 338
295 289 299 302 304 303 297 299 289 289 281 279 287 289 291 295 296 298 297 296 298 300 301 301 304 305 307 308 308 308 310 311 313 313 314 315 316 318 318 321 323 326 330 328
295 292 293 299 296 294 295 291 293 293 291 279 279 286 298 295 296 295 296 298 298 298 300 302 303 304 305 306 306 307 308 310 310 310 309 311 313 316 318 317 320 325 324 318
299 293 288 292 300 303 300 293 294 286 285 287 285 286 301 300 297 297 297 298 298 298 301 301 302 303 304 305 307 306 306 307 307 308 309 309 310 313 314 315 317 321 319 318
298 290 283 287 293 298 296 296 295 293 292 287 283 286 302 300 299 299 297 300 301 301 301 301 302 302 304 304 306 306 305 305 306 306 305 306 307 308 311 314 315 318 319 317
302 293 289 284 291 295 292 295 297 292 283 286 287 289 295 297 298 299 298 299 298 299 300 301 300 300 301 303 304 304 304 304 304 303 303 302 304 306 307 308 311 316 319 317
294 288 291 292 295 296 295 295 295 293 293 287 290 291 295 296 297 297 298 299 299 299 300 300 300 299 301 302 302 303 302 302 303 302 301 301 303 304 305 306 308 310 316 319
296 286 290 289 294 294 292 295 296 296 296 295 294 292 296 298 298 298 297 299 298 299 300 300 300 300 300 301 301 301 300 300 301 300 300 301 301 301 302 303 304 306 307 314
293 291 287 283 293 292 287 292 294 295 297 295 289 294 296 295 296 295 296 297 297 298 298 299 299 299 298 298 299 298 299 300 300 300 300 300 300 300 301 303 302 303 304 307
293 292 290 284 289 279 292 299 299 296 298 299 298 296 296 295 296 297 297 295 296 298 298 297 296 297 297 298 298 297 298 297 297 298 299 299 297 298 300 301 300 302 302 304
294 293 287 285 283 289 293 297 297 295 294 298 296 297 297 297 296 293 299 299 298 297 296 295 297 298 296 297 296 295 295 295 295 295 296 297 297 298 299 299 300 299 300 303
296 296 289 287 281 280 293 299 302 300 289 299 298 296 295 295 288 291 297 298 299 296 296 296 296 297 296 295 295 293 293 294 293 295 295 297 297 296 296 297 298 299 301 303
289 290 286 284 281 287 298 301 302 287 289 298 298 296 294 291 292 295 298 298 298 296 296 296 296 294 294 294 294 292 293 293 295 296 297 297 297 297 297 297 299 300 300 303
287 286 285 286 283 279 302 301 293 295 297 298 297 295 294 294 295 296 297 297 296 295 295 295 294 292 293 293 293 291 291 294 295 296 296 297 297 298 298 296 297 298 299 300
288 291 287 290 288 299 303 301 304 300 298 298 295 296 295 294 295 296 295 294 295 294 294 294 292 291 292 292 292 291 292 294 295 296 296 297 298 298 298 295 295 296 299 299
297 300 290 294 298 300 302 303 304 300 299 297 297 296 296 295 295 293 294 294 293 293 292 291 290 289 289 291 292 292 294 295 295 296 297 299 299 298 297 297 296 295 297 299
296 297 295 293 298 300 302 302 302 302 299 298 298 296 297 295 293 293 292 292 292 291 290 290 289 288 288 290 291 293 293 294 295 298 299 299 297 296 296 296 296 296 298 299
297 294 289 289 297 297 298 300 304 298 297 297 296 296 296 294 294 293 292 291 291 289 289 289 288 289 289 290 290 291 293 294 294 296 299 296 295 295 296 295 295 294 295 295

GFSCGP_sfc_thetae_096.txt.gz
Theta_e
298 291 288 292 294 295 294 292 291 293 298 296 295 295 297 298 299 298 299 300 301 304 306 310 314 315 318 320 321 321 323 322 324 326 327 334 340 343 344 344 346 344 343 344
294 289 295 298 298 297 295 292 291 295 298 294 293 293 296 298 298 299 300 300 301 302 307 312 312 313 313 314 316 318 320 320 323 326 328 332 330 335 343 346 346 345 344 343
291 296 301 298 296 295 294 291 292 292 296 296 293 291 294 299 300 302 301 302 302 306 307 308 310 310 311 313 317 317 316 317 318 322 321 321 322 323 326 331 337 342 344 345
294 300 299 297 296 295 289 296 297 296 291 286 294 284 291 296 297 300 300 302 304 305 305 307 307 308 311 312 317 316 316 316 320 319 317 318 318 316 320 322 329 333 338 340
294 296 296 295 295 298 293 300 297 296 290 287 289 285 289 294 294 297 299 301 302 303 304 305 307 308 309 310 315 316 313 316 319 316 317 317 316 318 320 321 321 322 327 336
295 300 299 298 300 299 301 296 293 291 288 282 288 287 287 291 295 297 299 301 303 303 304 305 307 307 308 309 309 309 310 312 315 318 316 315 314 314 315 317 317 320 323 328
294 294 299 302 297 299 295 288 281 281 281 281 292 289 289 296 298 299 299 301 302 303 303 304 303 304 304 306 308 309 308 308 310 313 315 314 314 314 315 317 317 319 322 325
287 287 298 302 299 294 293 290 283 279 280 283 291 287 293 299 301 302 304 303 302 301 301 303 304 304 304 305 305 307 308 307 308 311 312 312 315 313 316 317 320 320 322 323
291 292 301 302 302 299 294 288 294 287 288 283 286 291 297 300 301 302 300 301 300 300 300 300 302 301 301 304 305 307 307 307 307 308 310 312 312 311 313 316 318 319 320 324
294 288 298 301 302 301 296 298 287 287 281 278 286 289 290 294 296 299 298 298 298 300 300 299 301 302 303 303 304 305 305 305 305 306 306 307 308 310 314 315 315 316 318 321
295 291 292 296 294 292 293 291 292 290 289 279 278 285 296 295 294 295 296 297 295 295 297 299 300 300 301 302 303 302 303 303 303 304 304 304 305 306 308 312 314 315 317 318
297 291 287 290 297 300 296 292 290 284 283 286 283 284 300 299 298 296 295 297 297 298 297 298 298 300 300 301 302 302 302 302 302 302 302 302 303 303 304 305 307 310 313 317
296 289 283 286 290 296 293 295 293 291 288 285 283 284 300 301 299 299 295 295 297 297 297 298 298 298 300 301 302 302 301 301 301 302 301 301 302 302 302 303 304 306 308 312
300 290 287 282 288 292 291 295 295 291 283 284 286 288 294 296 296 295 295 295 295 296 298 298 296 296 298 300 301 300 301 302 302 302 301 300 300 301 301 302 303 305 306 307
293 287 289 291 293 294 294 294 294 293 292 285 287 287 292 294 294 294 295 297 297 296 296 297 297 296 297 297 299 300 300 300 300 299 299 299 300 300 301 301 301 302 303 305
294 285 288 288 292 292 290 294 294 295 295 295 294 292 294 295 294 295 296 296 295 296 297 297 298 298 297 297 298 298 298 297 297 297 298 298 299 299 299 300 300 301 302 304
289 288 288 282 291 291 285 291 292 293 297 296 291 292 293 292 294 294 293 294 295 295 296 297 296 296 296 296 297 295 296 297 296 296 296 297 298 299 299 298 297 298 300 301
289 289 290 286 287 279 288 296 297 294 296 297 294 293 294 293 294 295 294 292 294 295 295 295 294 295 296 296 296 296 296 295 295 295 296 297 296 297 298 297 297 297 298 298
295 292 288 284 280 286 290 296 295 293 292 296 294 294 295 295 294 292 297 296 294 294 294 293 295 295 295 295 295 295 294 294 294 294 295 296 297 296 296 296 296 297 298 298
295 295 288 286 280 277 290 299 301 300 289 297 296 294 294 292 286 289 293 295 294 294 293 294 294 295 294 294 295 293 293 293 293 294 295 296 296 296 296 297 296 297 297 297
288 289 286 285 282 284 295 299 301 286 288 296 296 294 292 290 291 293 295 294 294 294 295 295 294 293 293 294 293 292 292 291 293 295 295 296 296 297 297 298 298 297 296 297
285 285 285 286 283 280 300 300 292 295 297 296 296 294 293 292 294 294 293 292 293 293 294 293 291 291 292 292 292 290 290 293 294 294 295 295 297 298 299 299 298 297 296 296
288 289 286 287 284 295 300 299 301 300 297 294 294 294 294 293 291 291 291 292 292 292 292 292 290 290 291 291 291 290 291 293 294 293 293 295 298 300 300 298 297 296 295 295
297 300 290 291 296 299 300 303 303 303 298 296 295 295 294 290 291 290 290 291 290 291 290 291 290 289 288 290 291 291 292 292 292 292 294 296 298 297 297 297 298 296 295 295
293 297 295 292 296 300 301 302 303 302 297 296 296 294 292 291 290 290 290 290 291 290 290 290 289 289 289 290 289 290 291 292 291 292 293 295 298 296 296 297 297 297 297 296
294 292 288 286 296 296 298 300 303 296 295 296 294 292 293 292 290 291 290 291 291 290 291 289 289 288 288 289 288 289 291 291 291 290 293 295 297 296 296 295 295 294 294 294

GFSCGP_sfc_thetae_099.txt.gz
Theta_e
296 290 287 291 293 293 292 290 289 292 296 293 292 292 296 296 297 298 299 300 301 303 310 311 308 314 316 317 315 317 320 322 324 326 325 326 327 333 336 341 345 343 342 343
292 288 294 296 296 294 293 290 290 293 296 293 292 291 294 296 297 298 299 300 301 306 308 310 311 314 316 316 319 321 323 323 323 323 325 325 323 327 332 334 332 340 342 342
290 294 299 297 294 293 291 289 290 291 294 294 291 289 292 296 298 299 299 300 301 306 306 307 309 310 313 314 314 315 314 315 317 318 316 315 317 317 317 320 325 328 333 337
292 297 297 295 294 294 288 295 295 294 290 285 292 282 290 293 294 298 299 299 303 305 305 306 307 309 312 314 314 313 314 316 317 316 315 314 313 312 314 317 321 322 326 329
292 295 293 292 294 296 292 297 295 293 288 286 288 284 288 292 292 295 297 300 300 302 303 306 308 308 310 314 312 311 312 316 315 315 315 314 313 314 315 317 317 317 319 323
294 299 297 296 298 298 298 294 291 289 286 281 286 285 285 289 292 294 297 299 301 302 304 304 305 307 307 309 310 309 310 312 314 315 314 313 312 311 311 311 313 315 317 319
292 293 297 300 295 297 293 287 280 279 280 280 289 286 288 294 296 298 298 299 300 302 302 302 302 303 305 306 306 306 306 306 308 311 313 312 310 310 311 311 311 312 315 317
286 285 296 301 297 292 291 288 282 278 279 282 289 284 290 297 298 300 301 301 300 299 299 301 302 302 302 303 302 303 304 303 304 305 305 307 308 309 309 311 314 315 316 317
288 291 299 301 301 298 292 288 293 286 286 282 284 289 295 298 298 299 299 299 299 299 299 298 297 299 300 301 302 302 302 302 303 303 303 303 303 304 305 308 311 314 316 318
293 288 297 300 301 301 295 297 287 287 281 278 284 286 287 293 295 297 298 299 298 297 297 298 299 300 301 301 301 301 302 301 302 301 301 302 302 303 304 305 306 309 311 313
293 290 290 295 293 291 293 291 291 290 286 280 279 284 294 296 294 293 293 292 293 294 295 296 298 299 299 300 300 300 300 300 300 300 300 300 301 302 302 302 304 305 307 309
296 290 286 289 296 298 294 291 290 285 283 284 283 285 297 296 294 294 294 295 294 294 295 296 297 298 299 299 299 300 300 300 300 300 300 299 300 301 300 301 301 303 304 306
296 288 283 285 288 294 292 294 290 288 287 283 280 283 298 298 297 295 295 295 296 296 296 296 297 297 298 298 299 299 299 298 299 300 300 299 299 299 299 300 301 301 302 303
300 290 287 283 285 290 289 293 294 292 284 283 284 287 293 295 294 293 293 294 296 295 297 297 295 295 296 298 298 299 298 299 299 299 298 297 297 298 299 300 300 301 301 301
292 287 289 291 293 292 291 292 293 292 291 287 287 286 289 291 292 292 294 295 295 294 295 296 296 295 295 296 296 298 298 298 297 297 296 296 298 298 297 298 299 301 302 301
292 285 288 287 292 291 289 291 293 293 293 294 293 292 292 292 294 293 294 294 293 294 296 296 297 297 296 296 296 297 296 296 297 296 295 296 296 297 296 297 298 300 298 297
288 286 284 282 289 289 284 290 291 292 294 294 290 294 293 293 293 292 292 293 293 294 295 295 295 295 295 295 295 294 295 296 295 294 295 295 296 296 296 297 297 297 296 297
287 286 285 284 285 277 287 294 295 293 293 295 292 292 293 292 293 294 293 292 293 294 294 293 293 294 294 294 295 295 295 294 294 295 295 296 296 296 297 296 296 297 297 297
291 287 286 281 281 285 289 296 295 291 290 293 292 293 294 294 293 292 295 294 293 293 293 293 293 293 295 294 294 294 293 293 293 293 294 295 296 295 295 296 296 297 297 297
294 294 286 286 281 277 286 297 300 298 288 296 295 294 293 293 287 288 292 293 293 293 292 292 294 294 293 293 293 292 292 292 292 293 294 295 294 295 295 296 296 297 298 297
288 288 284 284 278 283 292 298 299 283 284 295 295 293 293 290 291 291 292 291 292 292 292 294 293 292 292 292 292 291 291 291 293 294 294 294 295 295 296 297 298 298 298 298
286 285 285 286 283 279 297 298 289 292 294 295 295 294 292 292 292 291 291 290 290 291 292 292 291 291 292 292 291 290 290 292 293 293 293 293 294 296 297 298 299 298 297 297
287 287 283 284 283 291 298 295 298 298 295 294 294 294 294 291 290 289 288 289 291 291 291 292 291 290 291 291 291 289 290 291 292 292 292 292 295 296 298 298 297 296 297 296
296 299 292 292 292 296 298 300 302 300 296 295 296 293 292 290 289 288 290 290 290 291 291 291 290 289 289 290 290 290 290 291 291 290 291 293 293 295 299 298 297 296 296 295
294 297 293 292 293 296 298 300 301 300 297 295 294 293 291 290 289 288 290 290 291 291 291 291 289 289 289 289 289 290 291 291 290 290 291 292 294 296 298 297 296 296 297 296
292 290 288 286 294 293 294 299 302 296 295 294 293 291 291 290 289 287 288 288 289 290 290 290 290 289 289 289 289 290 291 290 289 289 291 292 294 297 298 296 295 295 293 293

GFSCGP_sfc_thetae_102.txt.gz
Theta_e
291 287 285 289 291 291 290 288 288 291 294 291 290 290 295 296 296 296 299 301 304 303 309 309 310 315 317 319 323 324 323 323 326 326 330 329 329 334 339 343 345 344 343 344
290 286 292 294 293 292 291 288 288 292 294 291 290 290 293 293 295 296 298 299 299 305 308 310 311 314 316 315 319 321 324 325 324 324 326 323 324 325 331 331 336 342 342 342
288 292 296 295 292 291 290 288 288 290 293 293 290 288 290 293 296 298 298 299 303 306 307 309 311 312 314 317 319 318 317 318 318 319 317 317 318 318 318 320 324 328 332 334
291 295 295 292 292 292 287 293 293 291 288 283 290 282 288 291 294 297 298 298 302 305 307 307 309 311 312 312 313 314 316 317 317 317 315 315 312 312 314 318 321 323 325 326
291 293 292 290 292 294 291 295 293 291 287 284 287 283 286 290 291 294 297 299 301 302 304 307 309 311 313 313 312 314 315 316 317 316 315 315 314 314 315 317 318 317 319 322
294 298 296 294 296 296 297 292 289 287 284 281 284 284 284 288 291 294 297 299 301 302 305 306 307 310 311 312 310 310 311 309 311 313 313 312 311 310 311 312 312 314 316 318
290 292 296 297 292 295 291 286 279 279 279 279 287 285 287 292 296 297 297 298 300 303 303 303 304 305 306 307 304 307 305 304 305 306 307 308 308 309 310 310 311 311 313 316
285 284 295 299 295 291 289 287 280 277 278 280 288 283 289 296 297 299 299 299 300 300 300 299 300 300 299 302 303 303 303 303 303 304 304 305 305 305 306 308 308 310 313 316
286 288 298 300 299 296 290 287 289 284 283 280 283 288 293 296 296 298 298 299 298 296 297 298 298 299 300 301 302 302 302 302 303 304 303 303 304 304 304 305 307 308 311 312
291 288 296 299 300 300 294 295 285 284 279 277 282 284 286 291 294 296 296 295 296 296 297 298 299 300 301 301 301 302 302 302 303 302 302 303 302 303 303 304 304 305 306 309
293 290 290 294 292 292 293 289 288 287 283 278 277 283 292 293 294 293 293 293 292 294 295 296 298 300 300 300 300 301 301 301 301 301 301 301 301 301 302 302 302 303 304 306
296 289 285 290 295 297 293 290 288 283 284 283 282 283 296 295 295 293 293 294 294 295 295 296 297 298 298 298 299 300 300 300 300 300 300 300 300 301 300 300 301 303 303 304
298 289 283 285 290 294 291 291 289 287 285 282 280 283 297 295 294 294 293 294 295 296 296 296 296 296 297 297 298 299 298 298 299 299 299 298 298 298 298 299 301 301 302 302
299 289 287 283 284 289 289 292 292 288 281 283 283 286 291 293 294 295 293 294 294 295 296 297 296 295 296 298 298 298 298 298 298 298 297 297 297 297 298 299 299 299 301 301
292 288 289 290 293 292 290 290 292 290 290 285 288 287 290 292 293 292 294 295 295 295 295 296 296 295 296 296 297 297 297 298 297 297 296 296 297 297 298 298 298 299 300 302
291 286 288 287 291 290 288 290 291 291 292 291 292 289 294 292 294 293 293 294 294 295 295 296 296 296 296 296 296 296 296 297 297 295 295 296 297 298 298 298 298 298 298 299
287 285 284 282 289 288 283 289 290 290 292 292 288 293 292 291 293 292 293 294 294 294 294 295 295 294 294 294 296 295 296 296 295 294 295 296 297 297 297 297 297 297 297 298
286 284 282 280 284 276 286 293 294 291 292 292 293 292 292 293 294 294 294 293 293 293 293 293 293 293 294 296 295 295 295 294 294 294 295 296 296 296 296 296 296 296 297 297
290 285 284 280 281 283 287 294 293 290 289 292 290 291 293 293 293 291 295 295 292 292 292 292 292 294 295 294 294 293 292 293 294 293 294 295 295 294 295 295 296 297 297 297
291 289 283 284 280 277 285 294 298 296 285 294 294 293 292 292 289 290 293 292 291 291 291 291 294 293 292 293 293 292 291 292 292 293 294 295 294 294 295 295 296 297 297 298
286 287 284 283 276 282 290 296 299 282 284 293 294 294 294 293 293 292 291 290 291 290 292 293 293 291 292 293 293 291 291 290 292 293 294 293 294 294 294 295 297 297 299 299
286 284 284 285 279 277 296 297 289 290 292 293 294 293 293 292 291 290 290 289 291 291 292 293 292 292 292 293 292 290 289 291 292 292 293 293 294 294 295 296 297 299 298 296
286 287 282 285 283 290 296 294 297 295 293 293 293 293 293 291 289 290 288 291 290 290 290 292 291 291 291 291 291 289 290 291 291 291 291 293 294 294 295 296 296 298 297 296
295 298 290 291 291 293 296 297 299 297 296 296 296 295 293 289 289 289 290 289 288 289 289 290 290 290 289 291 291 290 291 291 291 290 291 292 292 293 295 297 299 297 296 295
293 297 293 292 295 297 297 299 298 296 296 294 293 292 290 290 289 289 288 288 288 289 289 291 290 289 290 290 290 290 291 291 289 289 290 291 293 294 295 297 299 297 298 296
289 288 288 286 293 294 294 298 296 294 293 292 291 290 291 290 289 289 288 288 288 288 290 291 290 290 289 289 289 290 290 290 289 288 289 291 292 293 294 297 298 296 294 293

GFSCGP_sfc_thetae_105.txt.gz
Theta_e
296 293 292 296 297 298 296 295 294 298 301 297 297 297 300 304 305 306 308 309 312 316 322 325 318 323 328 336 342 345 343 344 343 343 345 347 348 352 354 356 355 354 354 354
293 291 296 299 298 296 296 294 295 298 299 298 297 297 301 302 304 308 306 309 312 316 318 316 316 322 327 331 334 335 337 340 344 342 340 340 338 337 342 343 347 349 347 347
294 296 300 297 297 295 296 294 295 295 299 299 297 296 298 302 303 304 306 310 311 313 313 314 316 320 322 327 330 332 333 335 337 335 331 331 331 331 331 331 332 337 338 339
296 300 297 296 295 297 293 299 298 297 295 292 297 291 297 299 300 302 305 307 308 310 313 315 317 320 322 325 326 328 330 332 331 333 333 336 327 323 325 329 331 333 334 334
295 296 296 295 297 299 296 300 299 298 296 295 295 293 296 299 298 302 305 307 310 313 314 314 318 320 323 321 323 326 327 325 326 327 328 326 328 326 325 327 329 331 331 331
298 301 300 299 300 300 300 298 297 296 295 289 293 293 294 298 299 303 305 307 309 312 315 318 320 320 320 319 320 320 321 320 321 323 324 325 324 323 322 323 322 322 323 325
296 297 301 301 298 300 299 296 290 288 288 288 294 292 296 300 303 304 306 307 310 314 315 316 316 317 318 315 315 314 316 315 316 317 317 317 317 317 317 317 316 317 317 318
290 288 297 301 298 296 296 297 291 283 285 288 294 291 296 302 304 306 307 309 311 312 312 313 313 314 313 313 314 314 314 312 313 313 313 314 314 312 313 314 313 313 313 314
291 291 300 302 302 301 296 293 297 292 291 290 293 295 301 302 302 305 306 308 309 309 309 308 309 311 311 311 311 311 311 311 312 311 312 313 313 313 312 313 314 312 314 314
297 291 299 301 303 302 299 300 293 295 286 284 289 291 294 299 301 304 304 306 306 306 307 308 309 309 309 310 310 311 311 309 309 310 310 310 311 311 311 311 311 311 312 312
300 296 295 298 297 297 296 296 295 297 294 288 286 290 301 302 304 304 304 305 305 306 307 307 307 308 308 308 309 309 309 308 308 308 309 309 309 309 309 309 309 310 310 310
299 296 292 293 298 300 300 297 298 292 290 293 293 291 301 303 304 305 303 303 304 305 305 306 306 306 306 307 307 307 307 306 306 307 308 308 308 308 307 307 308 309 308 309
301 295 288 291 295 298 297 297 296 297 296 292 289 291 300 301 301 302 301 301 302 303 303 304 305 305 305 305 306 305 305 305 306 306 306 306 306 306 306 306 307 307 307 307
304 295 293 287 290 296 294 296 296 296 291 292 292 294 298 300 301 301 301 302 302 302 303 303 304 304 304 305 304 304 304 305 305 304 305 304 304 305 305 305 305 306 306 305
301 293 295 294 296 295 295 295 295 294 295 291 293 294 299 301 302 302 302 302 302 302 302 303 303 303 304 303 303 303 304 304 304 303 302 303 303 304 304 304 304 305 305 305
297 292 294 291 294 294 292 294 295 295 296 296 295 295 302 301 302 300 300 301 300 300 300 301 302 302 301 301 301 302 302 302 302 301 300 300 301 301 301 302 303 304 305 305
295 294 291 287 291 291 288 293 294 295 297 297 292 298 300 298 299 300 300 300 299 300 300 300 300 300 300 300 301 300 300 301 300 300 300 300 300 299 300 301 302 303 303 303
294 294 293 288 289 280 291 297 296 295 296 298 298 300 302 302 301 300 300 300 299 299 299 299 299 299 300 300 299 298 298 297 296 297 299 298 298 298 299 300 301 300 301 303
297 294 288 286 285 288 291 296 295 295 294 298 298 298 299 300 300 298 300 299 298 298 298 298 298 298 297 296 296 295 295 295 295 296 297 296 297 297 299 297 298 300 302 303
296 296 291 288 282 280 291 297 302 301 292 298 299 298 298 300 295 297 299 297 297 297 298 297 297 296 296 296 295 294 294 294 294 294 294 295 296 296 296 297 300 302 303 301
289 290 286 285 285 288 295 298 302 289 292 300 301 300 300 299 296 298 297 296 297 297 297 298 296 295 295 296 295 292 292 292 293 293 294 295 296 296 297 300 302 301 300 299
288 286 286 287 285 282 300 300 294 299 301 302 300 298 295 296 297 296 296 296 296 296 296 296 295 295 296 295 293 291 291 292 293 293 293 294 295 297 299 299 298 298 298 297
289 293 291 292 292 297 303 302 304 303 301 300 300 300 299 297 295 295 295 294 295 295 296 297 295 294 294 293 292 290 291 292 292 292 292 293 295 297 299 298 296 296 298 298
296 298 295 294 297 299 302 304 304 303 300 301 301 297 297 295 295 293 293 293 293 294 294 295 293 291 291 292 291 291 291 292 291 290 291 293 294 296 299 298 297 297 298 298
295 297 294 294 298 300 303 303 301 300 300 296 296 297 296 295 293 293 292 293 294 294 295 295 293 291 290 291 290 291 291 291 290 290 290 292 293 295 297 297 297 297 300 301
296 296 295 293 300 301 301 304 301 300 297 297 296 295 295 294 293 292 292 293 293 293 294 294 293 291 290 290 290 290 291 291 290 289 289 290 292 293 293 294 296 297 296 295

GFSCGP_sfc_thetae_108.txt.gz
Theta_e
301 297 295 299 302 302 300 298 298 302 305 303 302 303 305 307 307 307 308 311 314 317 323 326 327 330 330 337 345 348 352 358 358 354 355 352 351 354 355 359 359 359 358 358
298 295 301 303 303 301 300 298 299 302 304 302 303 302 306 307 307 308 309 312 314 316 319 323 326 326 330 339 343 349 353 354 354 353 354 352 352 354 356 355 355 353 352 351
298 300 302 301 300 299 299 298 299 299 302 304 302 301 303 307 308 310 312 315 315 315 317 320 323 327 328 336 338 344 348 353 355 355 348 340 341 340 333 335 334 338 338 338
300 304 301 300 298 300 296 302 300 299 298 295 303 294 301 305 306 308 310 312 313 315 317 320 323 323 328 333 340 344 347 348 349 349 344 340 330 328 327 329 329 332 337 335
298 300 300 298 299 302 298 303 301 300 299 299 299 296 300 304 303 306 309 311 313 316 317 316 320 321 327 335 337 336 336 335 333 337 340 332 333 328 329 333 334 337 337 336
301 305 303 301 302 303 304 301 301 301 299 293 298 297 298 301 303 306 309 312 313 315 317 320 322 325 329 332 331 331 330 329 331 331 334 334 332 329 328 331 329 327 328 329
298 299 303 304 300 303 302 299 292 290 291 290 299 296 298 305 307 308 310 312 314 317 320 321 322 324 324 325 326 326 326 325 325 325 324 323 326 325 323 325 323 324 323 323
293 291 299 303 301 299 299 299 293 286 288 292 299 293 300 307 310 311 312 315 317 319 321 322 322 323 322 323 323 322 323 322 323 322 322 322 321 319 319 321 320 320 320 320
294 294 302 302 304 303 299 296 302 296 296 293 296 299 304 308 308 310 312 314 316 317 319 320 320 321 321 321 320 320 320 320 319 319 320 320 320 320 319 321 322 319 322 319
300 294 300 301 304 305 302 304 295 297 288 287 292 295 297 303 305 309 311 313 315 315 315 316 317 318 318 318 318 319 318 317 316 317 317 317 318 319 319 319 319 319 320 320
303 300 298 303 300 298 299 298 300 300 297 291 289 292 305 304 307 309 311 313 313 314 314 315 315 316 316 316 316 316 316 313 315 314 315 316 316 316 317 317 317 318 319 318
303 300 295 297 303 305 304 301 301 294 293 296 294 293 307 308 310 312 311 312 313 315 314 314 314 314 314 313 313 315 314 313 313 313 314 314 315 316 316 316 317 317 316 317
304 299 293 294 299 303 300 302 303 302 301 294 292 293 305 307 308 311 310 310 311 312 312 312 312 311 311 313 313 312 311 311 312 312 312 313 314 315 315 315 316 315 315 315
307 302 297 291 294 301 297 299 301 301 294 295 296 297 302 305 306 308 308 309 308 309 309 309 310 310 311 310 310 309 310 311 311 311 311 312 312 313 313 314 314 313 313 312
306 298 299 298 298 298 297 298 300 298 299 294 297 297 301 305 307 308 309 309 308 308 308 308 309 309 308 308 308 308 309 310 311 310 310 311 312 312 311 311 312 312 312 311
304 298 299 294 299 298 295 299 300 299 299 299 300 299 305 308 308 308 308 307 307 307 305 306 306 306 306 307 307 308 309 309 309 308 308 310 310 310 309 309 309 310 310 311
300 300 298 292 297 297 292 297 298 299 301 300 296 301 306 304 306 307 307 307 306 306 305 306 305 305 306 307 307 307 307 307 306 306 306 307 308 306 306 307 308 309 309 309
301 299 298 292 294 284 295 300 299 297 299 301 301 302 303 305 307 308 308 307 305 305 305 305 305 305 307 307 307 306 305 304 303 303 304 305 305 304 304 303 307 308 308 308
305 300 294 290 289 291 293 298 298 297 298 302 301 303 305 307 306 304 306 306 305 304 304 304 306 306 306 305 305 303 302 301 300 300 301 301 301 300 302 304 306 307 307 304
300 301 294 290 285 283 296 300 305 304 294 303 304 304 304 305 298 300 305 304 304 304 304 304 305 305 305 303 303 301 299 299 298 298 298 297 296 298 300 303 304 307 303 304
293 294 291 290 290 292 300 301 305 292 295 305 306 306 305 301 303 304 304 303 303 304 304 304 304 303 301 301 300 298 296 295 296 296 295 295 296 298 299 302 305 303 304 301
292 291 290 291 287 286 302 302 296 304 307 307 307 306 304 303 303 302 302 301 302 301 302 303 302 300 300 299 297 294 293 295 295 294 294 294 295 298 300 301 301 302 302 300
292 297 294 294 294 304 306 307 310 310 307 306 306 305 305 303 301 300 300 300 299 299 300 302 299 297 297 295 293 291 292 293 293 293 293 293 296 298 299 299 300 301 301 300
299 302 298 298 300 303 306 309 309 309 307 308 308 306 304 301 300 299 298 298 298 298 298 300 300 296 294 294 292 292 292 292 292 292 291 292 294 296 298 299 301 300 299 299
299 301 299 298 302 304 306 308 307 307 306 303 303 303 301 300 297 296 295 296 297 298 298 299 299 297 294 291 290 291 291 292 290 290 291 292 293 294 296 296 298 298 300 299
302 297 298 295 304 304 304 307 307 305 302 301 301 299 299 298 295 295 295 296 297 297 297 297 298 297 294 290 289 289 291 291 290 289 290 291 292 293 294 294 296 296 294 294

GFSCGP_sfc_thetae_111.txt.gz
Theta_e
302 297 296 299 302 302 303 302 299 303 306 304 304 304 307 310 310 309 309 309 310 312 318 324 328 331 332 335 345 346 351 359 358 355 352 355 352 359 365 360 359 357 358 357
299 295 301 303 303 302 302 300 300 303 306 305 304 304 308 309 309 310 310 310 310 312 317 323 328 331 333 338 342 346 354 360 357 349 355 353 355 353 358 362 360 359 356 358
296 299 302 302 302 300 301 299 300 300 304 306 304 302 305 309 310 310 311 312 313 313 317 320 325 329 332 335 340 341 344 349 355 355 357 357 356 353 355 348 345 347 345 343
299 303 301 301 300 302 298 303 302 301 300 296 306 295 304 307 307 308 311 313 314 316 318 319 323 328 329 333 338 340 346 351 355 358 353 351 344 340 336 334 333 336 338 336
298 300 300 299 300 303 300 304 302 301 300 299 300 298 302 307 304 307 310 313 315 316 317 318 322 326 329 333 335 344 348 350 347 351 353 344 346 335 331 329 340 338 341 338
302 307 305 303 304 304 305 302 302 302 299 293 298 298 299 302 305 307 310 312 314 315 317 319 323 326 329 336 339 342 341 339 339 339 339 342 340 337 333 334 331 330 330 336
299 301 305 305 301 304 303 300 292 290 291 291 300 298 300 307 307 309 310 312 314 317 319 322 323 325 329 333 334 333 332 330 332 331 331 332 332 333 331 328 327 329 326 326
293 292 301 304 302 300 300 300 293 287 288 292 300 295 300 309 311 312 314 314 316 318 321 323 325 327 328 330 330 328 328 327 328 327 327 327 327 325 325 327 325 325 324 325
294 295 303 304 304 304 300 297 303 297 297 293 295 300 307 309 309 310 313 315 317 319 321 323 324 325 326 326 326 326 325 325 325 325 325 325 325 325 324 326 327 322 327 323
299 294 301 302 305 305 302 305 296 297 289 288 293 296 296 304 306 308 310 313 317 320 321 323 323 324 324 324 324 324 324 323 322 322 322 322 322 321 323 323 323 324 324 324
302 300 297 302 299 298 300 299 301 300 297 291 290 294 307 305 308 308 311 315 317 318 319 320 321 322 321 322 322 321 321 320 319 320 321 320 320 320 321 321 321 321 323 322
303 300 293 297 303 305 304 301 302 296 292 297 295 293 309 307 310 312 312 315 317 318 318 318 318 318 318 318 318 319 318 319 318 318 317 318 319 319 320 320 321 321 320 321
305 298 294 293 300 304 301 303 302 302 302 296 292 294 308 309 309 311 312 314 315 316 316 316 316 316 316 316 316 315 315 315 315 316 316 317 317 318 319 319 320 320 319 319
309 301 298 294 297 301 298 302 303 300 293 295 294 296 302 304 306 308 311 314 314 315 314 314 314 314 315 314 313 313 313 314 314 314 314 315 316 317 317 318 318 318 318 317
307 298 301 299 301 302 300 299 300 300 300 296 299 298 300 306 308 310 313 313 312 311 312 312 312 312 312 312 311 311 312 312 313 312 312 313 315 316 316 316 315 315 315 315
308 299 301 296 301 300 298 301 302 302 302 301 301 299 307 309 310 308 309 311 310 311 311 311 310 310 309 310 310 311 311 312 312 312 311 312 313 314 314 314 312 312 312 312
305 301 299 294 298 297 294 299 299 301 303 301 297 302 307 306 307 309 310 310 309 310 310 309 309 309 310 310 311 310 311 311 310 310 311 311 311 311 312 311 310 310 310 313
302 302 301 294 296 287 298 304 303 301 302 303 303 304 306 306 309 310 312 310 308 309 309 309 309 309 310 311 310 310 310 309 309 308 308 308 307 307 307 307 308 309 311 312
305 300 293 292 292 295 296 299 298 296 297 302 302 303 305 308 309 308 310 311 310 309 308 308 309 309 310 310 309 308 308 308 306 306 305 304 304 303 303 302 304 307 309 307
303 303 297 294 290 286 298 303 306 305 296 305 305 305 305 308 301 303 308 309 308 308 308 307 308 309 309 308 306 305 304 303 302 302 301 301 301 300 299 298 302 305 306 306
296 296 293 292 291 295 303 304 306 293 296 306 307 306 304 303 305 307 309 306 307 307 306 307 307 306 304 304 302 300 300 300 299 299 299 299 299 298 297 299 301 304 305 305
294 293 293 295 291 289 305 304 298 305 309 307 306 307 306 306 306 306 305 305 304 304 304 305 304 303 301 300 299 297 297 297 295 295 296 296 296 297 297 300 301 303 303 303
293 298 297 296 297 306 309 309 311 311 306 306 307 308 308 306 305 305 303 302 302 302 302 304 303 302 300 298 296 294 294 294 292 292 294 294 295 296 296 299 300 301 302 303
300 304 299 300 302 305 307 309 309 309 307 307 307 307 307 304 303 302 301 300 300 301 301 303 302 301 298 295 293 291 291 292 292 291 292 293 293 294 295 298 299 298 299 299
302 302 300 300 303 305 306 307 307 307 309 307 306 305 304 302 299 299 298 299 299 300 301 301 301 300 299 295 292 291 290 291 291 290 291 292 293 293 294 296 296 296 298 298
304 300 299 298 305 305 305 307 308 307 306 305 303 301 300 299 298 298 298 299 299 299 299 299 299 298 297 296 293 291 291 291 290 289 290 291 292 292 293 294 295 295 294 294

GFSCGP_sfc_thetae_117.txt.gz
Theta_e
303 295 292 294 296 296 295 293 293 296 300 298 296 296 298 302 302 301 302 302 302 303 306 309 314 329 338 339 336 328 328 333 331 331 329 329 327 331 337 332 340 340 337 340
298 294 299 300 299 297 295 292 292 297 301 299 297 296 301 303 302 302 303 303 303 303 305 307 321 329 337 339 335 334 333 337 332 332 332 331 330 333 344 333 336 335 334 339
294 298 303 299 296 295 293 291 292 293 299 301 298 295 298 304 305 306 306 306 304 303 303 306 325 331 335 339 344 343 343 338 336 340 343 342 342 342 342 340 335 336 338 343
298 302 300 297 294 295 290 297 297 296 295 290 298 285 295 300 301 304 304 302 303 305 305 305 326 328 337 339 346 348 349 346 347 349 342 342 339 336 340 339 340 335 339 341
297 298 297 294 294 297 293 299 297 296 294 292 293 287 292 299 300 302 302 303 303 304 305 306 321 328 337 336 337 341 344 343 342 343 341 338 336 330 329 332 328 326 326 328
300 304 300 298 299 298 299 297 297 295 290 284 290 290 290 295 299 301 303 304 306 307 306 306 322 325 331 330 334 337 333 330 330 334 331 329 329 328 329 326 324 326 328 328
298 298 301 302 296 298 296 292 286 284 283 282 293 289 290 299 304 305 304 304 305 311 308 311 319 322 331 331 330 331 328 324 323 323 323 321 322 321 320 321 321 320 319 322
290 289 297 302 297 294 293 292 285 279 281 284 293 287 293 302 305 308 309 306 311 314 316 317 321 329 328 327 326 325 321 319 320 321 320 319 319 320 318 317 316 316 315 318
290 290 301 301 301 299 294 291 295 290 292 287 289 292 300 304 305 305 307 309 308 312 315 318 325 325 324 324 322 321 320 319 319 319 317 317 316 316 316 316 316 318 317 318
295 290 299 300 301 302 298 298 290 289 282 282 288 292 292 300 301 306 305 307 313 315 317 320 321 321 320 320 319 318 317 316 317 316 316 315 314 315 314 314 313 314 315 316
298 296 294 299 296 294 295 294 293 291 289 283 282 289 302 301 301 304 307 309 311 314 316 316 316 316 316 316 315 314 314 314 313 312 312 312 311 312 313 312 313 314 314 315
299 296 290 292 300 302 300 294 294 287 287 290 287 290 306 304 307 306 306 310 313 313 314 315 314 315 314 313 313 310 311 311 310 310 310 309 311 311 311 312 312 313 312 313
300 293 285 290 294 298 296 298 295 294 294 289 285 288 305 307 306 310 308 308 311 314 314 314 313 312 310 309 309 308 307 307 308 309 308 308 309 309 309 310 311 311 311 311
303 294 290 285 290 296 294 297 296 295 287 290 292 294 300 303 304 307 308 310 311 312 313 309 307 307 307 307 307 306 306 307 307 307 306 306 306 307 308 309 310 310 311 309
301 291 295 297 298 298 297 297 296 295 296 291 295 296 299 302 305 306 308 309 309 310 310 307 306 306 307 306 306 307 306 306 306 306 305 305 306 307 307 307 308 309 308 308
299 291 295 294 297 298 296 298 298 300 299 298 297 297 304 306 309 308 308 308 308 310 307 307 307 306 305 305 306 306 305 305 305 305 304 306 306 305 304 304 304 303 303 304
295 294 291 289 295 294 290 296 299 300 300 299 294 299 304 304 305 306 309 308 308 306 305 305 305 305 304 304 304 302 303 304 304 303 304 303 302 302 301 301 300 300 299 300
297 295 294 287 288 284 295 302 304 301 303 303 302 303 303 303 305 306 307 305 304 303 303 303 304 303 301 301 300 301 301 301 301 300 299 299 298 298 298 297 297 297 299 300
301 296 292 286 285 294 296 301 301 299 298 304 303 304 304 302 302 301 304 304 302 302 302 301 301 299 298 297 298 298 297 297 297 296 295 296 296 296 297 297 297 298 298 296
296 302 293 290 286 283 296 301 305 303 292 304 304 302 301 301 293 296 303 302 302 302 301 299 298 298 296 295 295 294 294 296 293 294 294 295 293 293 295 296 296 297 294 296
292 294 290 289 288 293 301 304 304 289 292 303 303 302 301 297 298 299 301 301 300 300 300 299 297 295 294 294 293 291 291 290 293 294 294 293 293 294 295 295 296 296 296 298
290 289 288 291 287 284 305 304 296 300 303 303 302 302 300 300 300 300 300 299 299 298 300 299 296 294 293 292 290 289 289 291 291 292 291 292 292 294 295 294 294 294 296 298
290 295 290 294 292 302 306 303 305 305 303 303 302 303 301 300 299 298 296 296 297 297 297 297 296 294 292 291 291 289 289 291 291 290 290 291 292 293 293 293 293 294 295 295
300 303 296 296 300 301 302 304 304 304 302 303 303 301 300 297 296 295 295 295 295 295 295 295 293 292 291 292 292 291 291 291 291 289 289 290 290 291 292 292 293 293 293 293
298 300 298 298 301 302 303 303 303 303 303 301 300 299 297 296 295 295 295 295 294 294 293 293 291 290 290 291 290 290 292 292 289 289 289 288 289 289 290 291 291 292 293 293
300 298 295 294 301 300 301 303 305 301 298 297 296 295 296 296 294 294 293 293 293 292 293 292 291 290 290 290 289 290 291 293 290 287 287 287 288 289 289 289 290 293 292 293

GFSCGP_sfc_thetae_120.txt.gz
Theta_e
296 291 289 291 293 293 293 290 289 292 296 294 293 294 295 298 297 297 297 298 299 300 304 304 328 334 332 334 332 331 327 330 331 329 329 329 330 332 333 333 337 338 342 338
293 290 296 299 297 295 293 291 290 293 296 295 294 293 297 298 297 299 300 300 300 299 301 305 329 333 333 332 330 331 330 331 332 329 328 328 327 328 335 333 339 338 337 339
293 296 301 298 296 294 292 291 290 290 295 296 294 292 295 299 300 301 301 301 301 300 301 305 326 333 333 332 329 329 332 332 332 330 332 333 329 334 336 330 330 331 334 338
296 300 299 297 295 295 289 296 295 293 291 285 294 285 292 297 299 301 301 301 302 301 301 308 325 333 334 333 331 328 330 331 332 333 334 333 329 330 333 335 333 333 334 337
295 297 296 296 296 298 292 297 295 294 291 287 290 286 290 295 295 298 300 300 300 302 302 310 326 334 336 336 335 333 335 333 337 336 337 334 329 329 331 331 329 328 329 336
300 304 300 299 301 300 299 295 294 293 291 282 289 288 288 291 296 299 301 302 301 301 302 317 328 333 329 334 336 338 333 328 334 335 334 334 329 327 326 323 322 323 323 323
298 299 303 303 298 299 296 290 282 281 280 281 290 287 289 295 299 301 300 300 303 303 301 316 326 327 330 330 327 325 325 320 321 320 320 323 320 320 320 318 316 317 318 317
290 288 299 303 296 293 293 290 281 277 278 282 291 284 290 299 301 304 303 303 308 308 308 318 325 327 328 323 320 320 319 318 317 317 316 317 317 316 315 314 313 312 313 315
290 290 301 302 301 299 293 288 292 287 289 285 287 292 300 303 303 306 306 309 308 315 320 325 324 323 321 319 318 318 317 316 316 315 314 314 315 315 313 313 314 313 313 316
295 288 298 300 301 301 296 296 288 289 282 280 286 290 290 298 301 306 306 307 311 317 319 319 319 318 318 318 317 316 315 315 314 313 312 312 312 312 312 312 311 312 313 313
298 292 294 299 296 293 293 291 293 291 288 281 281 287 299 299 301 305 306 309 310 311 312 313 314 315 315 314 313 311 311 310 309 310 309 309 309 310 311 311 311 311 311 312
298 294 287 291 298 301 296 293 291 287 283 287 287 286 303 304 307 306 308 310 311 313 314 314 314 313 311 307 307 308 306 306 306 307 308 308 308 308 308 308 309 310 310 310
300 294 285 288 293 297 294 296 293 291 289 286 283 287 303 306 305 307 307 310 311 310 309 309 309 308 307 305 305 305 305 304 305 305 304 304 305 305 305 306 307 308 308 309
301 295 288 284 288 293 292 295 295 291 285 288 289 292 298 301 304 306 307 307 310 310 308 307 305 304 305 306 305 305 305 305 305 304 303 303 303 304 304 305 305 306 306 306
298 291 291 295 297 298 297 295 296 291 292 288 293 294 298 300 303 305 307 309 308 307 306 305 304 303 304 303 303 304 303 304 304 303 302 302 302 302 302 301 301 301 302 302
298 292 293 294 298 297 296 298 298 297 297 297 297 295 302 304 306 306 307 307 306 304 304 304 304 303 302 301 301 301 301 302 301 301 300 300 299 299 298 298 298 298 298 298
295 294 290 288 294 295 291 296 298 299 300 299 294 298 302 303 305 305 306 305 302 303 303 302 300 299 297 297 298 298 298 299 298 297 298 297 297 297 296 297 296 295 295 295
295 294 289 286 290 283 294 301 302 300 301 301 301 302 302 301 302 304 302 301 301 301 299 297 296 295 295 295 296 296 296 296 295 294 294 295 294 294 294 294 294 294 294 295
301 296 288 285 285 292 296 297 301 297 297 303 300 300 299 299 299 298 301 301 299 298 297 296 296 294 293 293 294 294 293 293 293 293 293 293 293 292 292 293 293 296 296 296
297 296 290 288 285 283 294 301 305 304 293 304 301 299 299 301 291 294 300 300 298 298 297 296 295 293 291 291 291 289 289 288 289 291 291 292 292 291 292 293 293 295 296 296
293 293 289 288 286 292 301 303 306 290 292 303 302 301 299 294 296 297 299 298 299 298 296 295 292 290 289 289 288 288 289 288 289 291 292 291 290 290 293 294 294 294 294 295
290 288 289 290 285 284 305 304 297 298 300 300 299 298 296 297 297 296 297 297 297 296 295 294 291 289 289 288 288 288 288 289 290 290 291 291 292 292 293 293 294 294 294 294
290 294 291 293 293 299 303 301 302 302 299 299 299 300 299 297 295 295 294 295 295 296 295 294 291 289 288 288 288 286 289 290 290 289 288 289 291 291 292 291 291 292 293 293
300 303 296 295 297 298 300 301 302 302 299 300 299 298 296 293 294 293 293 293 292 292 291 291 290 289 287 288 289 287 289 292 290 288 288 289 289 290 291 291 291 291 291 292
299 300 296 295 297 299 300 299 299 298 298 297 296 296 294 294 293 293 292 292 291 290 290 289 288 287 287 287 287 288 289 293 289 288 288 288 288 289 289 290 291 291 293 293
300 297 295 293 299 297 296 297 297 295 295 295 294 293 294 294 292 292 291 291 290 289 289 289 287 287 287 288 287 287 289 292 289 287 287 287 287 288 288 289 289 292 292 292

GFSCGP_sfc_thetae_126.txt.gz
Theta_e
296 296 290 292 294 293 288 286 286 287 291 289 289 288 290 293 293 293 294 295 296 297 300 305 331 337 336 336 335 335 334 332 331 330 335 334 332 334 335 340 342 342 342 339
294 291 297 297 295 293 291 286 286 290 292 290 289 289 292 293 293 294 294 295 295 296 297 304 330 336 338 336 336 335 333 330 332 331 330 334 333 333 334 335 338 339 340 342
290 293 300 295 293 291 290 287 286 287 292 291 289 287 290 294 295 296 295 296 296 297 296 310 327 334 337 337 336 336 333 330 331 330 329 328 331 331 332 331 332 335 339 341
293 298 297 294 290 291 286 291 291 290 288 282 289 279 286 291 293 295 296 295 295 296 297 311 324 329 334 334 335 336 333 329 329 330 329 327 326 326 329 330 331 334 335 337
293 294 293 292 292 292 288 293 291 291 286 283 285 281 284 290 291 294 296 296 296 297 298 310 323 327 331 332 333 331 327 327 327 329 329 328 327 329 331 331 330 331 331 332
295 300 297 293 296 294 295 292 291 289 286 279 284 283 282 287 291 294 296 297 298 298 298 308 321 326 328 327 323 324 327 325 327 328 330 330 329 330 330 329 328 327 329 330
293 294 298 298 291 296 294 287 278 278 278 278 284 282 284 291 297 299 298 299 298 300 300 316 323 325 326 325 326 325 325 324 327 327 328 330 329 329 327 325 323 321 319 320
286 285 295 298 294 291 291 288 278 274 276 277 286 280 286 302 307 311 311 304 310 314 319 323 327 328 327 326 324 321 319 318 319 319 318 318 319 317 316 319 318 316 316 316
287 287 298 300 298 296 291 287 288 282 282 279 282 286 297 305 306 310 311 313 314 317 317 317 318 319 318 316 315 315 315 315 316 316 316 315 315 315 313 314 314 315 315 316
293 286 297 298 302 299 295 295 285 285 277 276 281 284 285 297 302 306 307 308 310 315 314 314 314 313 314 314 314 314 314 313 314 315 315 315 313 314 313 313 312 313 313 314
293 292 292 297 295 293 294 291 290 287 282 278 280 284 295 301 304 304 308 310 309 310 309 309 309 309 310 311 311 311 311 312 312 310 310 310 311 310 312 310 309 310 310 311
297 293 287 291 298 301 296 291 289 283 280 283 283 285 300 305 307 308 308 308 306 306 306 306 307 307 307 307 307 308 308 307 306 307 307 307 306 307 305 305 305 306 306 307
296 291 285 286 292 298 294 291 291 287 287 284 282 288 305 307 307 308 305 304 304 304 304 305 304 304 304 304 305 304 304 304 304 304 303 302 301 301 300 300 301 302 302 302
299 294 287 283 286 292 289 291 293 289 283 284 285 293 300 303 304 305 304 304 304 305 305 304 303 303 303 303 303 302 302 302 301 301 299 298 298 298 298 299 299 300 300 300
296 287 291 292 294 294 293 292 292 290 289 286 290 294 299 302 304 305 305 305 304 304 304 304 303 301 301 300 300 300 299 299 299 297 296 296 297 297 297 297 297 298 298 298
295 287 293 291 294 294 292 294 294 294 293 294 295 294 304 306 307 305 305 304 303 302 301 300 299 299 298 298 297 297 296 296 296 295 295 295 295 295 294 295 295 296 296 296
293 287 289 286 294 293 289 295 295 296 297 297 292 296 304 303 304 304 302 301 301 298 296 295 294 294 294 295 295 294 294 294 293 293 294 294 293 293 293 293 294 294 294 294
291 286 289 287 290 281 292 300 301 298 299 300 300 303 305 305 305 303 304 298 295 294 293 292 292 292 292 293 291 291 292 291 291 291 291 292 292 291 292 292 292 292 293 293
296 288 288 282 282 290 295 299 298 296 295 302 302 303 299 299 298 296 298 296 293 292 292 291 291 290 290 290 290 290 289 290 290 289 290 291 291 290 291 291 291 292 293 295
297 293 289 284 281 279 291 300 304 303 292 302 300 298 299 302 294 293 294 293 292 293 292 291 291 290 289 289 290 290 289 290 289 290 290 290 290 290 290 291 293 294 295 295
289 292 285 283 284 289 299 303 305 288 290 301 301 300 302 297 297 294 294 293 293 292 291 291 290 288 288 288 289 289 290 289 290 291 291 290 289 290 292 292 293 293 293 294
291 287 285 285 286 282 303 303 293 296 301 302 302 298 295 294 293 293 292 292 293 292 291 290 289 288 287 288 289 290 289 290 291 291 290 290 291 292 292 292 292 293 293 293
289 291 290 291 289 298 300 301 302 303 298 298 297 298 296 293 293 294 293 293 292 291 290 290 288 287 286 287 287 288 289 290 290 290 290 290 291 291 291 291 291 292 293 292
299 299 292 292 294 296 297 299 300 300 298 299 299 297 296 293 293 293 293 292 291 290 288 288 287 286 285 286 287 287 290 290 289 289 289 289 289 290 290 290 291 291 291 291
298 296 291 290 293 295 297 298 297 297 298 297 297 296 295 294 293 293 291 290 289 288 287 287 286 286 285 286 286 288 290 290 288 289 289 289 289 288 288 290 290 290 291 291
298 293 291 290 295 293 293 296 297 295 295 295 293 292 292 292 289 288 287 288 287 286 286 286 286 286 286 286 286 288 289 289 288 287 288 288 288 288 288 288 288 291 291 291